     2              OBSERVATION DATA    GPS                 RINEX VERSION / TYPE
teqc 1997Sep28 Duncan Agnew 19980804 18:57:33UTC            PGM / RUN BY / DATE
                                                            COMMENT
Original Marker Name: PIN5C                                 COMMENT
Campaign Name: Ties at PFO and Monument Peak 93             COMMENT
4-Character Station Name: PIN5                              COMMENT
6-Character Antenna Code: TRMSST                            COMMENT
Vertical Measurement Point: BGP                             COMMENT
Vertical Offset to Rinex Ref. Point: 0.0597                 COMMENT
Radial Measurement Point: NGP                               COMMENT
Radial Offset to Rinex Ref. Point: 0.2334                   COMMENT
Antenna Height from Field Measurement: 1.0830 m             COMMENT
Antenna height is questionable. Ranges from                 COMMENT
1.0825 m to 1.086 m.                                        COMMENT
Original XYZ: -2371301.9280 -4760853.7494 3510478.7753      COMMENT
New XYZ position is based on association with SCEC monument COMMENT
E1D0K5P5+0011. Position of that monument is believed to be  COMMENT
valid to within 1 m horizontally; vertical accuracy         COMMENT
should be no worse than 3-times this value.                 COMMENT
                                                            COMMENT
Revised Rinex header created by UCSD GPS archive for        COMMENT
GSAC on 12-Apr-1999 (1999:102) 10:08:15 GMT                 COMMENT
For assistance contact dagnew@ucsd.edu or hjohnson@ucsd.edu COMMENT
                                                            COMMENT
UCSD 1992 PIN5C                                             MARKER NAME
Happer SCRIPPS INSTITUTION OF OCEANOGRAPHY                  OBSERVER / AGENCY
493 TRIMBLE 4000 SST NP 4.64 / SP 4.20                      REC # / TYPE / VERS
S/N UNKNOWN TR 4000SST L1/L2 GEO                            ANT # / TYPE
 -2371306.0000 -4760863.0000  3510485.0000                  APPROX POSITION XYZ
        0.9979        0.0000        0.0000                  ANTENNA: DELTA H/E/N
     1     1     0                                          WAVELENGTH FACT L1/2
     3    C1    L1    L2                                    # / TYPES OF OBSERV
     0                                                      INTERVAL
  1993     6    11    18     2   30.000000                  TIME OF FIRST OBS
  1993     6    11    23     1   60.000000                  TIME OF LAST OBS
     0                                                      # OF SATELLITES
                                                            END OF HEADER
 93  6 11 18  2 30.0000000  0  5G 2G27G15G13G26
  21086048.1724         -0.86857
  20971977.3674         -0.23057
  23972011.6334         -0.85155
  22919634.828          -0.01616
  23032592.6644         -0.15456
 93  6 11 18  3  0.0000000  0  5G 2G27G15G13G26
  21084636.2894      -7417.51547        -0.38973
  20980103.7114      42708.80447        -0.03773
  23971484.0704      -2790.51145        -0.08971
  22896924.805     -119347.335 6        -0.36931
  23024692.133      -41534.659 6        -0.16431
 93  6 11 18  3 30.0000000  0  5G 2G27G15G13G26
  21083252.852      -14690.387 7     -5667.53623
  20988315.1094      85857.31247     33622.18063
  23971066.023       -5012.497 5     -1731.47421
  22874267.531     -238398.100 6    -92767.11021
  23016885.742      -82544.601 6    -31955.94221
 93  6 11 18  4  0.0000000  0  7G 2G27G15G13G26G19G 7
  21081908.4454     -21751.31647    -11169.55763
  20996625.1254     129518.81347     67644.11863
  23970754.1414      -6604.46245     -2971.96961
  22851683.492     -357086.527 6   -185251.49821
  23009191.4454    -122978.92546    -63463.19161
  23611655.6484         -0.80354
  20906517.3594         -0.94657
 93  6 11 18  4 30.0000000  0  7G 2G27G15G13G26G19G 7
  21080615.5634     -28543.96647    -16462.52263
  21005038.5944     173734.98447    102098.26863
  23970576.8984      -7535.57045     -3697.50261
  22829172.4774    -475379.60046   -277427.87061
  23001616.6644    -162796.66346    -94489.98361
  23626428.2894      77634.50845        -0.18471
  20896163.867      -54411.423 7
 93  6 11 18  5  0.0000000  0  7G 2G27G15G13G26G19G 7
  21079380.0084     -35039.50047    -21523.97263
  21013561.2814     218517.76147    136993.92763
  23970527.5394      -7802.58545
  22806738.250     -593271.371 6   -369291.50021
  22994159.1484    -201992.61646   -125032.26161
  23641268.4384     155601.99645     60753.62161
  20885920.617     -108238.136 7        -0.16734
 93  6 11 18  5 30.0000000  0  7G 2G27G15G13G26G19G 7
  21078202.2504     -41234.68747    -26351.38363
  21022187.6884     263858.94247    172324.70163
  23970598.6174      -7418.99445
  22784378.375     -710772.852 6   -460851.00921
  22986815.9614    -240584.86246   -155104.13861
  23656165.2114     233887.75144    121755.45261
  20875786.188     -161494.118 7    -41498.30024
 93  6 11 18  6  0.0000000  0  7G 2G27G15G13G26G19G 7
  21077075.4064     -47153.48747    -30963.42863
  21030922.2814     309749.74047    208083.75263
  23970795.3364      -6406.26045     -2817.51161
  22762091.430     -827902.264 6   -552120.59221
  22979584.8364    -278575.80746   -184707.47161
  23671119.1254     312456.71444    182977.93961
  20865756.555     -214200.730 7    -82568.35724
 93  6 11 18  6 30.0000000  0  7G 2G27G15G13G26G19G 7
  21075999.5164     -52802.79347    -35365.47163
  21039755.7734     356173.88647    244258.40263
  23971109.9694      -4767.37645     -1540.46761
  22739872.6954    -944660.10246   -643100.67361
  22972472.7504    -315953.09646   -213832.62361
  23686118.4774     391314.92944    244425.83961
  20855831.555     -266360.090 7   -123211.98124
 93  6 11 18  7  0.0000000  0  7G 2G27G15G13G26G19G 7
  21074973.3444     -58200.17547    -39571.22463
  21048688.1644     403116.08747    280836.73563
  23971537.148       -2506.310 5       221.41721
  22717721.5784   -1061048.09046   -733792.53161
  22965477.8364    -352713.43446   -242477.03361
  23701188.734      470476.305 5    306109.94821
  20846009.102     -317976.377 7   -163432.43224
 93  6 11 18  7 30.0000000  0  7G 2G27G15G13G26G19G 7
  21073986.2504     -63386.04547    -43612.16163
  21057717.2274     450557.82547    317804.31263
  23972081.109         362.716 5      2457.02021
  22695643.6174   -1177077.80746   -824205.24361
  22958602.8834    -388860.65846   -270643.69861
  23716305.398      549922.989 4    368016.38021
  20836286.867     -369063.330 7   -203240.40824
 93  6 11 18  8  0.0000000  0  7G 2G27G15G13G26G19G 7
  21073033.3754     -68392.43647    -47513.23663
  21066832.3524     498465.78447    355135.17363
  23972742.0084       3823.78845      5153.94961
  22673626.523    -1292762.162 6   -914348.81921
  22951832.5084    -424409.34246   -298343.96461
  23731478.6884     629645.57244    430137.81161
  20826663.320     -419636.720 7   -242648.21524
 93  6 11 18  8 30.0000000  0  7G 2G27G15G13G26G19G 7
  21072115.6414     -73222.22547    -51276.69763
  21076033.6414     546817.72647    392812.00463
  23973508.8674       7866.98345      8304.50061
  22651678.0634   -1408108.64446  -1004229.12961
  22945177.7504    -459390.60346   -325602.07561
  23746698.7114     709645.01944    492474.94461
  20817135.422     -469706.686 7   -281663.73424
 93  6 11 18  9  0.0000000  0  7G 2G27G15G13G26G19G 7
  21071230.3914     -77872.24247    -54900.08063
  21085322.3524     595630.60547    430847.99263
  23974390.1954      12496.31645     11911.77361
  22629796.9534   -1523110.23946  -1093840.68961
  22938629.5864    -493814.33846   -352425.76961
  23761974.766      789904.233 4    555014.53221
  20807705.156     -519268.425 7   -320283.23724
 93  6 11 18  9 30.0000000  0  7G 2G27G15G13G26G19G 7
  21070380.1564     -82339.48147    -58381.03563
  21094700.4304     644906.87147    469245.07063
  23975382.3444      17712.33845     15976.19161
  22607977.445    -1637763.344 6  -1183180.70621
  22932176.469     -527707.040 6   -378835.64721
  23777288.156      870407.357 4    617744.14321
  20798370.938     -568321.260 7   -358506.18624
 93  6 11 18 10  0.0000000  0  7G 2G27G15G13G26G19G 7
  21069567.8984     -86608.89547    -61707.84863
  21104161.7424     694639.16547    507997.49363
  23976489.4774      23510.18545     20493.99661
  22586226.2894   -1752070.14646  -1272250.87061
  22925827.266     -561081.246 6   -404841.51221
  23792654.977      951146.502 4    680657.67821
  20789131.617     -616869.299 7   -396335.79524
 93  6 11 18 10 30.0000000  0  7G 2G27G15G13G26G19G 7
  21068787.9534     -90694.78947    -64891.65263
  21113711.2734     744814.40747    547095.06663
  23977697.2894      29869.63545     25449.41661
  22564534.9844   -1866048.81646  -1361065.34861
  22919571.3524    -593945.22846   -430449.80361
  23808057.008     1032086.647 4    743727.83721
  20779986.367     -664932.252 7   -433787.41424
 93  6 11 18 11  0.0000000  0  7G 2G27G15G13G26G19G 7
  21068046.1954     -94598.31547    -67933.35463
  21123341.7344     795426.07647    586532.71963
  23979012.9454      36789.21745     30841.31061
  22542911.6804   -1979698.07846  -1449623.13461
  22913415.1724    -626285.01746   -455649.63561
  23823500.258     1113224.712 4    806952.22021
  20770931.039     -712511.533 7   -470862.14124
 93  6 11 18 11 30.0000000  0  7G 2G27G15G13G26G19G 7
  21067342.7344     -98303.08147    -70820.18063
  21133056.2114     846472.67447    626309.28063
  23980437.7664      44277.27445     36676.15561
  22521347.313    -2093006.664 6  -1537915.48421
  22907368.0394    -658073.35946   -480419.76661
  23838981.3984    1194589.85944    870353.52261
  20761972.031     -759599.136 7   -507553.74924
 93  6 11 18 12  0.0000000  0  7G 2G27G15G13G26G19G 7
  21066670.1564    -101833.97047    -73571.51263
  21142851.5084     897937.11347    666411.43063
  23981965.5474      52311.87945     42936.87361
  22499846.992    -2205993.313 6  -1625956.96521
  22901424.7194    -689309.03246   -504759.23361
  23854496.5784    1276157.84044    933912.92361
  20753100.016     -806216.159 7   -543878.67424
 93  6 11 18 12 30.0000000  0  7G 2G27G15G13G26G19G 7
  21066030.8594    -105192.52247    -76188.54463
  21152724.9844     949831.94247    706848.94163
  23983603.8984      60904.94145     49632.78661
  22478410.977    -2318643.151 6  -1713735.98021
  22895586.3594    -719987.98046   -528664.89361
  23870068.266     1357941.769 4    997640.57521
  20744321.125     -852350.213 7   -579827.25124
 93  6 11 18 13  0.0000000  0  7G 2G27G15G13G26G19G 7
  21065427.3834    -108359.70347    -78656.46963
  21162689.6414    1002187.87247    747645.75163
  23985347.7664      70081.08845     56783.02261
  22457042.4384   -2430929.14446  -1801231.49061
  22889857.3674    -750104.95746   -552132.67561
  23885672.484     1439968.823 3   1061557.67921
  20735638.469     -897976.720 7   -615380.33624
 93  6 11 18 13 30.0000000  0  7G 2G27G15G13G26G19G 7
  21064855.6484    -111376.11947    -81006.91563
  21172735.8834    1054986.92747    788787.85763
  23987201.977       79814.075 5     64367.18221
  22435742.8834   -2542874.50046  -1888461.56061
  22884227.0554    -779692.86846   -575188.18661
  23901322.063     1522202.425 3   1125635.69821
  20727046.031     -943121.038 7   -650557.69524
 93  6 11 18 14  0.0000000  0  7G 2G27G15G13G26G19G 7
  21064307.9844    -114244.45747    -83241.96963
  21182866.7664    1108228.90947    830275.09663
  23989158.0704      90105.06445     72386.10561
  22414504.5234   -2654475.18646  -1975423.06461
  22878694.7344    -808764.50146   -597841.39161
  23917008.445     1604636.500 3   1189869.96121
  20718548.250     -987781.924 7   -685358.35224
 93  6 11 18 14 30.0000000  0  7G 2G27G15G13G26G19G 7
  21063794.1414    -116950.63647    -85350.67563
  21193082.4144    1161911.98647    872106.05563
  23991227.5394     100956.09545     80841.45161
  22393333.844    -2765726.313 6  -2062112.17721
  22873260.9454    -837324.58346   -620096.00461
  23932736.891     1687280.105 3   1254267.48021
  20710143.641    -1031956.619 7   -719780.16324
 93  6 11 18 15  0.0000000  0  7G 2G27G15G13G26G19G 7
  21063306.9384    -119499.94547    -87337.13963
  21203380.680     1216025.866 7    914272.69223
  23993395.852      112354.835 5     89723.60321
  22372228.664    -2876637.278 6  -2148536.21921
  22867922.6804    -865362.79646   -641943.96261
  23948500.742     1770127.295 4   1318823.66121
  20701826.758    -1075657.628 7   -753832.86924
 93  6 11 18 15 30.0000000  0  7G 2G27G15G13G26G19G 7
  21062855.1954    -121879.06047    -89190.98763
  21213759.0704    1270557.41147    956764.78863
  23995666.9144     124299.01645     99030.74561
  22351187.0784   -2987207.17546  -2234694.51261
  22862692.0004    -892860.70846   -663370.90961
  23964313.188     1853187.641 4   1383545.92121
  20693601.383    -1118886.392 7   -787517.58724
 93  6 11 18 16  0.0000000  0  7G 2G27G15G13G26G19G 7
  21062436.9844    -124071.92347    -90899.70063
  21224214.2344    1325506.84047    999582.50663
  23998046.227      136792.702 5    108766.07621
  22330212.3914   -3097428.90046  -2320581.50261
  22857560.2664    -919813.73546   -684373.25761
  23980154.6644    1936467.17144   1448438.95661
  20685465.406    -1161638.899 7   -820831.20024
 93  6 11 18 16 30.0000000  0  7G 2G27G15G13G26G19G 7
  21062054.5164    -126079.25247    -92463.85163
  21234753.1564    1380888.90447   1042737.34262
  24000528.6804     149843.33445    118935.40361
  22309306.1094   -3207292.14346  -2406189.16361
  22852540.2274    -946207.63046   -704939.93561
  23996043.859     2019963.967 3   1513501.34721
  20677421.266    -1203906.711 7   -853767.13324
 93  6 11 18 17  0.0000000  0  7G 2G27G15G13G26G19G 7
  21061705.6334    -127919.52547    -93897.82563
  21245372.6024    1436696.77447   1086223.98263
  24003114.2974     163440.68445    129530.74161
  22288467.469    -3316804.183 6  -2491523.15121
  22847623.945     -972048.468 6   -725075.65321
  24011972.398     2103665.500 3   1578723.17621
  20669469.570    -1245700.068 7   -886333.35424
 93  6 11 18 17 30.0000000  0  7G 2G27G15G13G26G19G 7
  21061385.4774    -129609.80047    -95214.91963
  21256070.8594    1492918.84447   1130033.36762
  24005804.938      177572.724 5    140542.71021
  22267693.7734   -3425973.64946  -2576590.20161
  22842803.1644    -997374.88446   -744810.52061
  24027935.7894    2187545.63743   1644084.22761
  20661603.969    -1287029.835 7   -918538.34224
 93  6 11 18 18  0.0000000  0  7G 2G27G15G13G26G19G 7
  21061091.0634    -131154.96847    -96418.94363
  21266853.2114    1549575.30547   1174181.23963
  24008595.3204     192251.21645    151980.50261
  22246987.258    -3534786.359 6  -2661379.24321
  22838081.1724   -1022189.08246   -764146.25261
  24043935.609     2271603.622 3   1709583.86621
  20653829.6954   -1327884.83547   -950373.38764
 93  6 11 18 18 30.0000000  0  7G 2G27G15G13G26G19G 7
  21060822.5554    -132558.07947    -97512.26063
  21277717.1724    1606667.34147   1218668.53062
  24011495.2114     207472.28545    163841.08061
  22226348.102    -3643243.151 6  -2745890.95321
  22833457.8134   -1046491.18246   -783082.94761
  24059964.5394    2355838.42243   1775221.28961
  20646145.352    -1368267.993 7   -981840.75424
 93  6 11 18 19  0.0000000  0  7G 2G27G15G13G26G19G 7
  21060588.6334    -133801.40647    -98481.09263
  21288662.0784    1664189.86947   1263491.25763
  24014496.8984     223244.26745    176130.95161
  22205778.609    -3751332.359 6  -2830116.23521
  22828931.8754   -1070276.65346   -801617.07661
  24076029.430     2440270.300 3   1841012.25721
  20638552.297    -1408170.930 7  -1012933.92124
 93  6 11 18 19 30.0000000  0  7G 2G27G15G13G26G19G 7
  21060377.9924    -134897.65347    -99335.31563
  21299687.7504    1722118.62047   1308630.52062
  24017599.4774     239552.48245    188838.62761
  22185276.141    -3859065.870 6  -2914064.34521
  22824501.1094   -1093561.80646   -819761.34961
  24092122.1954    2524872.00643   1906935.58161
  20631048.859    -1447607.308 7  -1043663.54524
 93  6 11 18 20  0.0000000  0  7G 2G27G15G13G26G19G 7
  21060196.4534    -135839.27947   -100069.03963
  21310787.6884    1780445.86847   1354080.30562
  24020805.586      256398.367 5    201965.30521
  22164845.633    -3966438.679 6  -2997731.39521
  22820169.9384   -1116320.11646   -837495.09161
  24108260.9224    2609647.21043   1972994.04761
  20623631.742    -1486575.494 7  -1074028.34323
 93  6 11 18 20 30.0000000  0  7G 2G27G15G13G26G19G 7
  21060049.7344    -136623.23647   -100679.91263
  21321959.5864    1839162.28947   1399833.34363
  24024114.563      273778.920 5    215508.56721
  22144481.1094   -4073451.08446  -3081117.62261
  22815940.0864   -1138542.20946   -854811.00361
  24124427.016     2694602.007 2   2039192.50921
  20616304.5634   -1525078.19447  -1104030.42663
 93  6 11 18 21  0.0000000  0  7G 2G27G15G13G26G19G 7
  21059934.2274    -137237.41847   -101158.49063
  21333207.6484    1898280.18647   1445899.21862
  24027524.172      291707.568 5    229478.93521
  22124189.2274   -4180086.82146  -3164210.32961
  22811815.3204   -1160212.55346   -871696.98661
  24140629.563     2779741.275 3   2105534.72321
  20609070.313    -1563101.410 7  -1133658.88123
 93  6 11 18 21 30.0000000  0  7G 2G27G15G13G26G19G 7
  21059846.6804    -137690.55447   -101511.58363
  21344536.0704    1957808.74147   1492285.08462
  24031039.2114     310181.66645    243874.33461
  22103970.0084   -4286344.82446  -3247008.69561
  22807797.8984   -1181329.68646   -888151.89161
  24156860.1954    2865055.08943   2172012.90561
  20601924.0554   -1600647.00247  -1162915.16663
 93  6 11 18 22  0.0000000  0  7G 2G27G15G13G26G19G 7
  21059793.6644    -137968.51847
  21355948.930     2017775.444 7   1539012.36022
  24034661.6884     329215.67245    258706.00161
  22083825.6484   -4392207.64546  -3329499.13761
  22803885.6024   -1201883.94246   -904168.19161
  24173136.969     2950580.460 2   2238655.95621
  20594874.7814   -1637700.46747  -1191787.97563
 93  6 11 18 22 30.0000000  0  7G 2G27G15G13G26G19G 7
  21059769.3914    -138096.34047
  21367437.586     2078152.457 7   1586059.35122
  24038382.945      348778.575 5    273949.82521
  22063750.578    -4497703.719 6  -3411703.79221
  22800072.5864   -1221926.58546   -919785.83061
  24189442.898     3036286.270 2   2305439.60421
  20587910.8674   -1674292.41647  -1220301.16363
 93  6 11 18 23  0.0000000  0  7G 2G27G15G13G26G19G 7
  21059776.4304    -138067.18947
  21379004.133     2138931.580 7   1633419.69022
  24042208.625      368872.438 5    289607.37521
  22043745.1334   -4602827.44246  -3493618.31661
  22796350.4614   -1241471.17846   -935015.38861
  24205787.5084    3122164.24743   2372357.38761
  20581035.8364   -1710419.99747  -1248452.50463
 93  6 11 18 23 30.0000000  0  7G 2G27G15G13G26G19G 7
  21059815.3364    -137867.90747
  21390646.313     2200120.293 7   1681099.18122
  24046134.4064     389506.48645    305685.84561
  22023813.328    -4707566.344 6  -3575232.97321
  22792731.6954   -1260510.79646   -949851.46061
  24222164.0314    3208230.22142   2439421.67261
  20574249.6254   -1746073.40647  -1276234.35963
 93  6 11 18 24  0.0000000  0  7G 2G27G15G13G26G19G 7
  21059888.9144    -137489.28147
  21402369.3204    2261714.76947   1729094.85762
  24050167.563      410691.125 5    322193.35621
  22003957.141    -4811907.228 6  -3656537.48621
  22789202.9224   -1279033.76746   -964284.94061
  24238578.289     3294490.815 2   2506637.62821
  20567558.9224   -1781241.95547  -1303638.39963
 93  6 11 18 24 30.0000000  0  7G 2G27G15G13G26G19G 7
  21059985.7424    -136958.67347   -100941.26163
  21414158.219     2323668.789 7   1777370.69322
  24054298.1254     432403.22745    339111.88461
  21984176.9844   -4915869.48346  -3737546.96961
  22785775.9144   -1297052.96346   -978325.87761
  24255026.2424    3380901.08243   2573970.19861
  20560954.219    -1815948.283 7  -1330682.26723
 93  6 11 18 25  0.0000000  0  7G 2G27G15G13G26G19G 7
  21060115.0704    -136293.53347   -100422.97163
  21426018.195     2385994.212 7   1825935.93722
  24058530.6564     454645.03945    356443.15261
  21964464.4614   -5019448.10946  -3818257.51361
  22782445.5004   -1314552.78346   -991962.10961
  24271496.5634    3467464.98243   2641422.47761
  20554436.5704   -1850189.36947  -1357363.60863
 93  6 11 18 25 30.0000000  0  6G 2G27G15G13G26G 7
  21060264.6884    -135497.44747    -99802.64263
  21437953.7504    2448709.97047   1874805.33962
  24062865.516      477418.890 5    374188.99121
  21944828.3594   -5122637.27946  -3898664.59261
  22779216.5234   -1331517.67146  -1005181.50061
  20548011.711    -1883962.749 7  -1383680.50323
 93  6 11 18 26  0.0000000  0  7G 2G27G15G13G26G19G 7
  21060440.5634    -134576.58247    -99085.07963
  21449961.0554    2511805.67847   1923970.80362
  24067297.961      500719.333 5    392345.14521
  21925264.8284   -5225439.07746  -3978769.80461
  22776092.172    -1347961.333 6  -1017994.75221
  24304525.211          -0.12512
  20541671.3364   -1917272.78247  -1409636.35363
 93  6 11 18 26 30.0000000  0  6G 2G27G15G13G26G 7
  21060642.6564    -133501.35247    -98247.23963
  21462044.0634    2575315.31047   1973458.80762
  24071837.242      524559.698 5    410922.01321
  21905780.352    -5327837.084 6  -4058560.40421
  22773063.0394   -1363866.02646  -1030388.02961
  20535426.3284   -1950106.13047  -1435220.76263
 93  6 11 18 27  0.0000000  0  6G 2G27G15G13G26G 7
  21060881.1884    -132263.88547    -97282.97263
  21474215.5394    2639268.32947   2023292.30762
  24076477.0164     548941.13945    429920.54261
  21886372.594    -5429827.157 6  -4138033.12021
  22770135.2974   -1379235.99446  -1042364.62761
  20529267.8054   -1982460.49647  -1460431.93663
 93  6 11 18 27 30.0000000  0  6G 2G27G15G13G26G 7
  21061146.8834    -130856.26247    -96186.11363
  21486464.9924    2703639.68747   2073451.78162
  24081210.7274     573851.49745    449331.22061
  21867038.5864   -5531418.56646  -4217195.19861
  22767312.4144   -1394080.64146  -1053931.88661
  20523199.3204   -2014348.02647  -1485279.34363
 93  6 11 18 28  0.0000000  0  6G 2G27G15G13G26G 7
  21061448.3594    -129273.81147    -94953.03563
  21498791.8674    2768426.52946   2123935.01862
  24086053.547      599295.435 5    469157.63721
  21847783.7194   -5632603.06746  -4296040.19661
  22764586.2814   -1408396.36446  -1065086.98661
  20517223.727    -2045763.734 7  -1509759.09223
 93  6 11 18 28 30.0000000  0  6G 2G27G15G13G26G 7
  21061781.0004    -127519.04647    -93585.68363
  21511200.6954    2833629.91347   2174742.81662
  24090998.6414     625270.49045    489397.92661
  21828605.4614   -5733380.41546  -4374567.93661
  22761965.0474   -1422178.85446  -1075826.60161
  20511333.4064   -2076708.75047  -1533872.08163
 93  6 11 18 29  0.0000000  0  6G 2G27G15G13G26G 7
  21062148.1644    -125605.85347    -92094.88263
  21523685.828     2899231.890 7   2225861.21622
  24096042.8524     651773.48344    510049.58861
  21809508.383    -5833749.790 6  -4452777.77421
  22759440.9694   -1435445.11946  -1086163.96161
  20505533.797    -2107185.755 7  -1557620.37423
 93  6 11 18 29 30.0000000  0  6G 2G27G15G13G26G 7
  21062541.1724    -123521.70247    -90470.86263
  21536241.523     2965214.371 6   2277276.11322
  24101186.7894     678810.45145    531117.35061
  21790487.6024   -5933701.78746  -4530662.38261
  22757019.2194   -1448192.91646  -1096097.30861
  20499824.2664   -2137188.81947  -1580999.36263
 93  6 11 18 30  0.0000000  0  6G 2G27G15G13G26G 7
  21062970.4614    -121284.34547    -88727.47463
  21548867.508     3031570.273 6   2328981.98522
  24106436.383      706372.230 5    552594.03821
  21771542.750    -6033242.434 6  -4608226.46421
  22754683.1254   -1460441.19646  -1105641.43061
  20494203.5554   -2166726.09947  -1604015.40763
 93  6 11 18 30 30.0000000  0  6G 2G27G15G13G26G 7
  21063423.9064    -118888.83947    -86860.83963
  21561565.1644    3098300.80646   2380979.78062
  24111776.359      734453.342 5    574475.38721
  21752682.7504   -6132373.93346  -4685471.72461
  22752447.0474   -1472192.79746  -1114798.53561
  20488670.2584   -2195802.40247  -1626672.24663
 93  6 11 18 31  0.0000000  0  6G 2G27G15G13G26G 7
  21063915.2974    -116319.32047    -84858.61663
  21574336.711     3165409.872 6   2433272.53222
  24117217.813      763062.674 5    596768.32721
  21733898.0554   -6231084.83146  -4762389.23361
  22750312.4694   -1483427.41346  -1123552.78061
  20483225.9224   -2224408.67147  -1648962.82763
 93  6 11 18 31 30.0000000  0  5G 2G27G13G26G 7
  21064437.4844    -113572.39647    -82718.15363
  21587180.813     3232900.078 6   2485862.27322
  21715192.6024   -6329375.87646  -4838979.59161
  22748270.7194   -1494141.96446  -1131901.78661
  20477871.5394   -2252548.54347  -1670889.98763
 93  6 11 18 32  0.0000000  0  5G 2G27G13G26G 7
  21064989.8674    -110661.40947    -80449.85363
  21600096.070     3300778.175 6   2538754.26822
  21696567.0554   -6427253.73446  -4915247.99161
  22746329.9774   -1504341.51546  -1139849.48761
  20472604.0164   -2280231.96647  -1692461.46863
 93  6 11 18 32 30.0000000  0  5G 2G27G13G26G 7
  21065579.5944    -107566.04547    -78037.87863
  21613092.516     3369061.366 6   2591961.92422
  21678024.3834   -6524701.26546  -4991181.06561
  22744492.7274   -1514012.29246  -1147385.16161
  20467425.5634   -2307444.01347  -1713665.64863
 93  6 11 18 33  0.0000000  0  5G 2G27G13G26G 7
  21066199.1564    -104316.81447    -75506.00263
  21626155.289     3437717.443 6   2645460.13722
  21659557.742    -6621734.783 6  -5066791.53821
  22742746.3364   -1523181.59046  -1154530.07961
  20462332.7274   -2334203.77747  -1734517.39163
 93  6 11 18 33 30.0000000  0  5G 2G27G13G26G 7
  21066846.0944    -100907.21447    -72849.17763
  21639296.7274    3506773.52346   2699270.04662
  21641177.0704   -6718324.64546  -5142056.29761
  22741101.6804   -1531839.13846  -1161276.21461
  20457332.3754   -2360484.84747  -1754996.13063
 93  6 11 18 34  0.0000000  0  5G 2G27G13G26G 7
  21067516.0704     -97384.17847    -70103.95263
  21652507.008     3576189.156 6   2753360.11722
  21622874.0234   -6814502.69446  -5217000.17061
  22739546.617    -1540007.442 6  -1167641.14321
  20452416.2504   -2386321.10147  -1775128.25763
 93  6 11 18 34 30.0000000  0  5G 2G27G13G26G 7
  21068211.6414     -93736.06547    -67261.26263
  21665782.094     3645959.095 6   2807726.27122
  21604654.9064   -6910255.03346  -5291612.32661
  22738089.1954   -1547667.85546  -1173610.29561
  20447584.7424   -2411701.77147  -1794905.39163
 93  6 11 18 35  0.0000000  0  5G 2G27G13G26G 7
  21068929.0784     -89960.66647    -64319.39163
  21679125.008     3716079.319 6   2862365.38122
  21586516.0314   -7005578.06346  -5365889.95261
  22736731.578    -1554809.894 6  -1179175.54021
  20442843.3594   -2436625.90147  -1814326.77463
 93  6 11 18 35 30.0000000  0  5G 2G27G13G26G 7
  21069678.7814     -86030.62447    -61257.02063
  21692538.891     3786570.988 6   2917293.91522
  21568461.4534   -7100460.12046  -5439823.96061
  22735473.8914   -1561405.31046  -1184314.84261
  20438188.1644   -2461085.12547  -1833385.89663
 93  6 11 18 36  0.0000000  0  5G 2G27G13G26G 7
  21070460.0084     -81920.60847    -58054.41063
  21706022.305     3857426.234 6   2972505.76222
  21550490.6954   -7194895.83546  -5513410.17461
  22734324.2814   -1567432.88046  -1189011.64261
  20433624.5234   -2485075.61347  -1852079.76763
 93  6 11 18 36 30.0000000  0  5G 2G27G13G26G 7
  21071276.3204     -77620.92547    -54704.01163
  21719571.500     3928631.875 6   3027990.64122
  21532602.727    -7288887.318 6  -5586650.23221
  22733285.3204   -1572906.85846  -1193277.08961
  20429146.8284   -2508602.38747  -1870412.30263
 93  6 11 18 37  0.0000000  0  5G 2G27G13G26G 7
  21072129.5164     -73140.47947    -51212.75663
  21733189.688     4000189.699 6   3083749.95022
  21514800.570    -7382437.222 6  -5659546.21221
  22732345.570    -1577838.901 6  -1197120.24621
  20424756.5314   -2531671.00447  -1888387.83063
 93  6 11 18 37 30.0000000  0  5G 2G27G13G26G 7
  21073018.6954     -68477.40747    -47579.19663
  21746877.570     4072114.598 6   3139795.29122
  21497088.0004   -7475527.32946  -5732083.89861
  22731512.4774   -1582217.47546  -1200532.12461
  20420458.1414   -2554266.02347  -1905994.32263
 93  6 11 18 38  0.0000000  0  5G 2G27G13G26G 7
  21073934.8914     -63661.84147    -43826.80963
  21760628.891     4144387.252 6   3196111.60622
  21479459.0944   -7568166.68646  -5804270.34961
  22730776.5084   -1586081.98846  -1203543.45061
  20416245.5634   -2576399.39547  -1923241.08863
 93  6 11 18 38 30.0000000  0  5G 2G27G13G26G 7
  21074878.4454     -58697.84547    -39958.76063
  21774455.2894    4217034.98446   3252720.19862
  21461916.3674   -7660351.45646  -5876102.57861
  22730134.0474   -1589458.41146  -1206174.43361
  20412120.9064   -2598069.74747  -1940127.06263
 93  6 11 18 39  0.0000000  0  5G 2G27G13G26G 7
  21075849.3284     -53594.58247    -35982.19763
  21788353.711     4290068.388 6   3309629.31022
  21444460.0944   -7752082.96646  -5947581.62361
  22729582.5234   -1592358.22746  -1208434.03661
  20408084.6414   -2619281.50647  -1956655.68863
 93  6 11 18 39 30.0000000  0  5G 2G27G13G26G 7
  21076850.0394     -48342.17147    -31889.41263
  21802325.328     4363488.905 6   3366840.05822
  21427090.1884   -7843358.41146  -6018705.28361
  22729120.1954   -1594790.38946  -1210329.23661
  20404135.6724   -2640034.37647  -1972826.74163
 93  6 11 18 40  0.0000000  0  5G 2G27G13G26G 7
  21077881.3834     -42911.94647    -27658.06863
  21816370.8204    4437306.28446   3424360.06662
  21409808.1884   -7934175.77246  -6089472.00961
  22728748.570    -1596758.909 6  -1211863.15921
  20400274.2504   -2660329.17547  -1988640.85263
 93  6 11 18 40 30.0000000  0  5G 2G27G13G26G 7
  21078954.2034     -37289.43547    -23276.89063
  21830494.711     4511518.689 6   3482187.85822
  21392615.0944   -8024531.85746  -6159879.29061
  22728460.0784   -1598246.56946  -1213022.38761
  20396499.4064   -2680165.21247  -2004097.48863
 93  6 11 18 41  0.0000000  0  5G 2G27G13G26G 7
  21080058.5234     -31472.45447    -18744.17863
  21844687.094     4586103.228 6   3540305.65322
  21375510.0864   -8114417.87346  -6229920.29661
  22728277.0164   -1599229.60246  -1213788.39561
  20392812.6094   -2699536.24247  -2019191.79363
 93  6 11 18 41 30.0000000  0  5G 2G27G13G26G 7
  21081201.7344     -25467.55947    -14065.04363
  21858948.055     4661039.726 6   3598697.68222
  21358493.9774   -8203840.39446  -6299600.13261
  22728182.5164   -1599716.92546
  20389214.0004   -2718451.86147  -2033931.22863
 93  6 11 18 42  0.0000000  0  5G 2G27G13G26G 7
  21082380.3674     -19274.84047     -9239.55163
  21873271.430     4736315.506 6   3657354.08422
  21341565.617    -8292793.252 6  -6368913.99821
  22728187.9224   -1599690.65546
  20385701.2274   -2736908.96347  -2048313.37663
 93  6 11 18 42 30.0000000  0  5G 2G27G13G26G 7
  21083591.3134     -12914.69247     -4283.59063
  21887654.117     4811914.400 6   3716262.27322
  21324729.125    -8381271.420 6  -6437857.97421
  22728291.9774   -1599147.10546
  20382277.0164   -2754904.63547  -2062335.97263
 93  6 11 18 43  0.0000000  0  5G 2G27G13G26G 7
  21084834.0394      -6393.99547       797.46963
  21902107.180     4887841.796 6   3775426.44322
  21307982.688    -8469273.353 6  -6506430.86521
  22728492.4534   -1598096.76746  -1212905.72261
  20378940.1564   -2772440.25047  -2076000.07763
 93  6 11 18 43 30.0000000  0  5G 2G27G13G26G 7
  21086105.0554        298.31947      6012.24963
  21916622.477     4964125.020 6   3834867.86521
  21291328.016    -8556792.042 6  -6574627.18721
  22728787.820    -1596534.826 6  -1211688.65621
  20375691.4924   -2789510.87447  -2089301.84663
 93  6 11 18 44  0.0000000  0  5G 2G27G13G26G 7
  21087408.8444       7155.81047     11355.74463
  21931207.852     5040769.333 6   3894590.66421
  21274766.539    -8643822.259 6  -6642442.89621
  22729186.1414   -1594453.37246  -1210066.76061
  20372531.5554   -2806114.44747  -2102239.68663
 93  6 11 18 44 30.0000000  0  5G 2G27G13G26G 7
  21088742.4924      14159.01747     16812.78063
  21945862.258     5117784.277 6   3954602.26822
  21258298.461    -8730369.546 6  -6709882.29421
  22729674.4774   -1591876.67146  -1208058.95261
  20369458.9454   -2822259.47047  -2114820.21263
 93  6 11 18 45  0.0000000  0  5G 2G27G13G26G 7
  21090106.0944      21307.91247     22383.34563
  21960587.734     5195171.790 6   4014904.18421
  21241920.211    -8816439.275 6  -6776949.56521
  22730255.5004   -1588814.07446  -1205672.53361
  20366471.6094   -2837953.73547  -2127049.50063
 93  6 11 18 45 30.0000000  0  5G 2G27G13G26G 7
  21091489.5554      28597.72847     28063.71763
  21975383.773     5272909.332 6   4075478.84522
  21225630.773    -8902037.520 6  -6843649.44821
  22730935.9774   -1585263.76846  -1202906.08361
  20363570.2344   -2853205.92547  -2138934.31063
 93  6 11 18 46  0.0000000  0  5G 2G27G13G26G 7
  21092908.0314      36037.83047     33861.19263
  21990238.852     5350984.995 6   4136316.98021
  21209433.055    -8987158.777 7  -6909977.65921
  22731700.3754   -1581218.52146  -1199753.95461
  20360752.7894   -2868013.45547  -2150472.63463
 93  6 11 18 46 30.0000000  0  5G 2G27G13G26G 7
  21094357.0704      43659.21247     39799.92163
  22005161.242     5429403.154 6   4197421.99121
  21193329.1724   -9071796.43647  -6975929.02961
  22732572.5004   -1576668.82046  -1196208.76061
  20358020.0474   -2882371.92247  -2161661.03763
 93  6 11 18 47  0.0000000  0  5G 2G27G13G26G 7
  21095846.9844      51496.95547     45907.24963
  22020150.234     5508165.822 6   4258795.44921
  21177314.9774   -9155938.72147  -7041494.39961
  22733537.2194   -1571586.49146  -1192248.52361
  20355376.0944   -2896272.19247  -2172492.40863
 93  6 11 18 47 30.0000000  0  5G 2G27G13G26G 7
  21097381.0394      59544.27647     52177.88163
  22035202.227     5587255.424 6   4320423.66521
  21161395.039    -9239594.634 7  -7106680.78021
  22734603.578    -1565971.726 6  -1187873.40421
  20352815.6884   -2909726.26747  -2182976.10363
 93  6 11 18 48  0.0000000  0  5G 2G27G13G26G 7
  21098949.0634      67789.34947     58602.61463
  22050314.125     5666675.735 6   4382309.56421
  21145570.672    -9322760.191 7  -7171485.06321
  22735771.6884   -1559834.84746  -1183091.43861
  20350340.4774   -2922732.95747  -2193111.17563
 93  6 11 18 48 30.0000000  0  5G 2G27G13G26G 7
  21100549.3204      76200.26847     65156.56663
  22065488.969     5746417.626 6   4444446.06421
  21129836.492    -9405445.387 7  -7235915.03621
  22737036.6254   -1553198.83846  -1177920.53661
  20347945.9304   -2935304.75247  -2202907.37163
 93  6 11 18 49  0.0000000  0  5G 2G27G13G26G 7
  21102177.6334      84761.33547     71827.52363
  22080725.227     5826491.755 6   4506841.44221
  21114195.453    -9487637.768 7  -7299961.00321
  22738394.0704   -1546058.26446  -1172356.47961
  20345640.6024   -2947431.60047  -2212356.86363
 93  6 11 18 49 30.0000000  0  5G 2G27G13G26G 7
  21103832.2664      93453.52947     78600.65663
  22096024.836     5906893.619 6   4569492.19621
  21098647.563    -9569334.570 7  -7363620.81021
  22739845.6024   -1538432.75146  -1166414.53761
  20343415.7194   -2959113.74947  -2221459.82563
 93  6 11 18 50  0.0000000  0  5G 2G27G13G26G 7
  21105514.9224     102304.16547     85497.24463
  22111395.430     5987659.982 6   4632426.98721
  21083200.977    -9650512.557 7  -7426876.34621
  22741389.5944   -1530317.87546  -1160091.28161
  20341283.4694   -2970330.73347  -2230200.32263
 93  6 11 18 50 30.0000000  0  5G 2G27G13G26G 7
  21107229.7974     111304.62947     92510.59063
  22126825.695     6068754.570 6   4695617.53021
  21067844.063    -9731209.253 7  -7489756.85121
  22743019.2274   -1521749.07246  -1153414.30761
  20339229.7504   -2981122.78647  -2238609.70463
 93  6 11 18 51  0.0000000  0  5G 2G27G13G26G 7
  21108982.4304     120505.87947
  22142325.5234    6150203.80846   4759084.41961
  21052585.719    -9811391.830 7  -7552236.74021
  22744737.281    -1512701.811 6
  20337261.3594   -2991459.37947  -2246664.18663
 93  6 11 18 51 30.0000000  0  5G 2G27G13G26G 7
  21110772.0394     129917.32247    107013.97363
  22157889.000     6231990.504 6   4822814.26321
  21037422.656    -9891063.362 6  -7614318.40721
  22746549.266    -1503187.282 6  -1138950.63421
  20335380.4304   -3001345.50147  -2254367.65363
 93  6 11 18 52  0.0000000  0  5G 2G27G13G26G 7
  21112604.0864     139544.25947    114515.47263
  22173514.6094    6314102.06546   4886797.23761
  21022359.063    -9970229.384 6  -7676006.17821
  22748452.8984   -1493205.33746  -1131172.52461
  20333582.7974   -3010789.83847  -2261726.86963
 93  6 11 18 52 30.0000000  0  5G 2G27G13G26G 7
  21114471.3054     149360.40847    122164.41963
  22189192.227     6396498.581 6   4951002.27021
  21007388.477   -10048905.447 7  -7737312.16321
  22750437.641    -1482767.249 6  -1123038.96821
  20331866.0554   -3019810.86347  -2268756.23563
 93  6 11 18 53  0.0000000  0  5G 2G27G13G26G 7
  21116372.0164     159356.82147    129953.82163
  22204930.414     6479190.096 6   5015437.16821
  20992513.820   -10127075.179 7  -7798223.60521
  22752513.359    -1471860.671 6  -1114540.37021
  20330233.9224   -3028394.08147  -2275444.45363
 93  6 11 18 53 29.9990000  0  5G 2G27G13G26G 7
  21118309.7694     169527.96947    137879.38063
  22220719.5034    6562175.02546   5080100.68661
  20977733.105   -10204739.339 7  -7858741.08821
  22754678.933    -1460485.103 6  -1105676.31721
  20328681.9094   -3036545.51547  -2281796.22163
 93  6 11 18 53 59.9990000  0  5G 2G27G13G26G 7
  21120276.9404     179860.47747    145930.67863
  22236572.0734    6645474.43046   5145009.26561
  20963048.815   -10281903.574 7  -7918869.02021
  22756930.269    -1448634.127 6  -1096441.81021
  20327211.9724   -3044269.11547  -2287814.60063
 93  6 11 18 54 29.9990000  0  5G 2G27G13G26G 7
  21122269.0344     190343.79947    154099.49463
  22252487.128     6729107.322 6   5210177.69821
  20948461.659   -10358561.051 7  -7978602.08922
  22759280.0894   -1436305.03846  -1086834.75661
  20325824.6124   -3051562.22647  -2293497.54163
 93  6 11 18 54 59.9990000  0  5G 2G27G13G26G 7
  21124296.3704     200985.88647    162392.02263
  22268468.2374    6813081.46446   5275612.04261
  20933970.128   -10434712.882 7  -8037941.13821
  22761715.4724   -1423497.74546  -1076855.07561
  20324516.8084   -3058429.54647  -2298848.70063
 93  6 11 18 55 29.9990000  0  5G 2G27G13G26G 7
  21126357.7304     211819.40347    170833.70863
  22284515.542     6897405.073 6   5341318.69321
  20919579.480   -10510340.581 7  -8096871.77521
  22764249.448    -1410189.532 6  -1066485.06021
  20323294.7144   -3064854.60247  -2303855.23263
 93  6 11 18 55 59.9990000  0  5G 2G27G13G26G 7
  21128456.2374     222843.28247    179423.74263
  22300623.5974    6982064.02046   5407286.64961
  20905288.683   -10585440.014 7  -8155390.77021
  22766874.6594   -1396379.45446  -1055723.98361
  20322154.9014   -3070835.15447  -2308515.39963
 93  6 11 18 56 29.9990000  0  5G 2G27G13G26G 7
  21130587.8004     234047.29547    188154.13363
  22316784.855     7066998.102 6   5473469.00321
  20891092.925   -10660041.344 7  -8213521.63322
  22769590.870    -1382109.984 6  -1044604.95121
  20321096.2534   -3076404.35847  -2312855.03963
 93  6 11 18 56 59.9990000  0  5G 2G27G13G26G 7
  21132757.6444     245451.95947    197040.87563
  22332997.3314    7152194.51146   5539855.74961
  20876993.190   -10734130.001 7  -8271253.01821
  22772395.331    -1367373.194 6  -1033121.76021
  20320118.0504   -3081550.20647  -2316864.78163
 93  6 11 18 57 29.9990000  0  5G 2G27G13G26G 7
  21134959.8784     257027.55347    206060.80463
  22349258.1364    7237642.43646   5606438.49661
  20862991.269   -10807710.934 7  -8328588.77421
  22775284.7844   -1352191.79946  -1021292.12561
  20319218.5264   -3086280.64447  -2320550.83263
 93  6 11 18 57 59.9990000  0  5G 2G27G13G26G 7
  21137193.7224     268768.10547    215209.27163
  22365575.1054    7323372.17946   5673240.82661
  20849088.792   -10880775.117 7  -8385521.86421
  22778257.776    -1336564.427 6  -1009114.98521
  20318396.5344   -3090588.74147  -2323907.78763
 93  6 11 18 58 29.9990000  0  5G 2G27G13G26G 7
  21139461.2614     280678.49447    224490.08763
  22381945.7924    7409405.79046   5740279.95561
  20835282.7224  -10953317.01747  -8442047.98561
  22781317.5264   -1320482.93946   -996583.97761
  20317657.1284   -3094471.05547  -2326932.96963
 93  6 11 18 58 59.9990000  0  5G 2G27G13G26G 7
  21141758.9484     292750.52647    233896.85663
  22398380.081     7495778.209 6   5807583.06821
  20821581.120   -11025325.834 7  -8498158.70522
  22784467.151    -1303944.395 6   -983696.84221
  20317002.7924   -3097918.77547  -2329619.49762
 93  6 11 18 59 29.9990000  0  5G 2G27G13G26G 7
  21144087.2064     304985.70047    243430.74363
  22414883.909     7582497.119 6   5875156.20021
  20807981.4644  -11096799.92147  -8553852.76362
  22787698.784    -1286946.807 6   -970452.00321
  20316428.1444   -3100933.45947  -2331968.59963
 93  6 11 18 59 59.9990000  0  5G 2G27G13G26G 7
  21146446.6754     317382.88947    253090.87463
  22431443.761     7669529.019 6   5942973.19721
  20794476.659   -11167760.361 7  -8609146.57721
  22791017.644    -1269503.354 6   -956859.73521
  20315933.9804   -3103538.53847  -2333998.52963
 93  6 11 19  0 29.9990000  0  5G 2G27G13G26G 7
  21148837.2534     329963.24247    262893.74063
  22448062.2454    7756865.80746   6011027.77961
  20781074.894   -11238191.928 7  -8664028.28022
  22794428.2064   -1251600.96946   -942909.85961
  20315517.3624   -3105721.63847  -2335699.64263
 93  6 11 19  0 59.9990000  0  5G 2G27G13G26G 7
  21151266.9804     342724.24747    272837.37163
  22464737.511     7844485.752 6   6079303.00021
  20767772.042   -11308095.241 7  -8718498.35922
  22797919.7534   -1233242.31746   -928604.42761
  20315181.1754   -3107485.83147  -2337074.34263
 93  6 11 19  1 29.9990000  0  5G 2G27G13G26G 7
  21153734.4334     355669.75247    282924.76963
  22481461.7614    7932365.69246   6147780.80761
  20754569.112   -11377475.518 7  -8772560.88022
  22801502.105    -1214427.610 6   -913943.65221
  20314923.2304   -3108837.99247  -2338127.97163
 93  6 11 19  1 59.9990000  0  5G 2G27G13G26G 7
  21156231.0734     368807.46247    293161.93763
  22498232.105     8020502.783 6   6216458.99121
  20741468.065   -11446328.179 7  -8826212.26622
  22805165.7304   -1195156.76846   -898927.46061
  20314744.7454   -3109775.92347  -2338858.82663
 93  6 11 19  2 29.9990000  0  5G 2G27G13G26G 7
  21158770.0814     382143.51047    303553.65663
  22515057.245     8108907.968 6   6285346.09021
  20728466.995   -11514642.873 7  -8879444.45921
  22808922.315    -1175423.284 6   -883550.74221
  20314648.8004   -3110292.22947  -2339261.14163
 93  6 11 19  2 59.9990000  0  5G 2G27G13G26G 7
  21161349.6514     395698.92347    314116.30363
  22531932.0264    8197591.61646   6354450.15861
  20715571.8394  -11582404.04147  -8932245.34462
  22812770.347    -1155219.837 6   -867807.82421
  20314632.3944   -3110373.56047
 93  6 11 19  3 29.9990000  0  5G 2G27G13G26G 7
  21163967.7614     409457.23847    324837.06063
  22548856.1754    8286538.57546   6423759.39861
  20702779.222   -11649636.896 7  -8984634.55321
  22816692.644    -1134581.101 6   -851725.72821
  20314696.5584   -3110047.30747
 93  6 11 19  3 59.9990000  0  5G 2G27G13G26G 7
  21166621.7454     423414.69647    335712.99163
  22565832.730     8375750.174 6   6493274.86221
  20690083.8784  -11716344.03447  -9036614.11461
  22820706.448    -1113504.880 6   -835302.72221
  20314836.4804   -3109319.12147  -2338502.87963
 93  6 11 19  4 29.9990000  0  5G 2G27G13G26G 7
  21169319.3234     437588.11147    346757.19263
  22582866.6754    8465258.65746   6563021.67061
  20677494.8084  -11782506.43247  -9088169.19962
  22824805.995    -1091977.828 6   -818528.43321
  20315050.0584   -3108171.96347  -2337608.99163
 93  6 11 19  4 59.9990000  0  5G 2G27G13G26G 7
  21172056.2224     451962.49847    357958.00263
  22599954.917     8555053.253 6   6632991.41321
  20665005.683   -11848138.444 7  -9139310.99421
  22828982.0894   -1070019.35446   -801417.96861
  20315346.5894   -3106622.12547  -2336401.31963
 93  6 11 19  5 29.9990000  0  5G 2G27G13G26G 7
  21174831.2064     466549.15147    369324.21463
  22617101.5814    8645167.43846   6703210.19161
  20652621.073   -11913214.494 7  -9190019.56921
  22833248.6514   -1047606.14646   -783953.17461
  20315724.6204   -3104646.32947  -2334861.74063
 93  6 11 19  5 59.9990000  0  5G 2G27G13G26G 7
  21177635.1124     481292.65447    380812.64763
  22634303.8154    8735556.90746   6773643.47961
  20640337.417   -11977769.854 7  -9240322.42522
  22837593.901    -1024777.397 6   -766164.58321
  20316173.2534   -3102282.56247  -2333019.84263
 93  6 11 19  6 29.9990000  0  5G 2G27G13G26G 7
  21180470.3394     496187.28047    392418.83363
  22651556.933     8826219.724 6   6844289.75021
  20628154.073   -12041796.798 7  -9290213.51821
  22842012.1124   -1001540.26946   -748057.75361
  20316697.4254   -3099525.07247  -2330871.15163
 93  6 11 19  6 59.9990000  0  5G 2G27G13G26G 7
  21183335.2064     511233.21147    404142.92563
  22668857.0584    8917147.01446   6915142.11361
  20616070.7144  -12105285.63247  -9339685.31062
  22846514.6514    -977886.27446   -729626.10961
  20317297.4874   -3096366.61247  -2328410.01963
 93  6 11 19  7 29.9990000  0  5G 2G27G13G26G 7
  21186225.1674     526439.52847    415991.99163
  22686214.7304    9008345.20946   6986205.56561
  20604095.839   -12168220.022 7  -9388725.07122
  22851099.933     -953795.733 6   -710854.30121
  20317980.4954   -3092793.38047  -2325625.68363
 93  6 11 19  7 59.9990000  0  5G 2G27G13G26G 7
  21189148.1054     541790.36447    427953.66763
  22703611.300     9099774.615 6   7057449.16621
  20592220.2304  -12230628.19247  -9437354.78561
  22855761.940     -929296.586 6   -691764.11121
  20318729.7304   -3088835.86547  -2322541.91063
 93  6 11 19  8 29.9990000  0  5G 2G27G13G26G 7
  21192109.1054     557339.02047    440069.49263
  22721061.409     9191463.452 6   7128894.93321
  20580449.261   -12292484.009 7  -9485554.09321
  22860503.776     -904363.520 6   -672335.77821
  20319560.8234   -3084470.14047  -2319140.05463
 93  6 11 19  8 59.9990000  0  5G 2G27G13G26G 7
  21195106.6834     573098.80547    452349.82963
  22738552.1834    9283397.34046   7200531.64861
  20568780.9644  -12353793.74147  -9533327.88961
  22865334.425     -878997.618 6   -652570.17221
  20320470.2144   -3079703.94947  -2315426.13963
 93  6 11 19  9 29.9990000  0  5G 2G27G13G26G 7
  21198146.3864     589083.11847    464805.12563
  22756095.4724    9375577.25846   7272360.09561
  20557218.417   -12414556.774 7  -9580675.67721
  22870240.105     -853206.743 6   -632473.42621
  20321453.2144   -3074539.40247  -2311401.82663
 93  6 11 19  9 59.9990000  0  5G 2G27G13G26G 7
  21201238.011      605332.454 7    477466.93223
  22773688.3554    9468031.26945   7344402.08861
  20545765.2064  -12474747.72447  -9627577.69561
  22875231.948     -826980.360 6   -612037.33621
  20322516.3234   -3068953.13847  -2307048.88763
 93  6 11 19 10 29.9990000  0  5G 2G27G13G26G 7
  21204376.1834     621798.96247    490297.95863
  22791329.769     9560721.249 6   7416627.96421
  20534411.5894  -12534403.57347  -9674062.74861
  22880296.480     -800356.342 6   -591291.38221
  20323650.2304   -3062984.08547  -2302397.67863
 93  6 11 19 10 59.9990000  0  5G 2G27G13G26G 7
  21207547.4094     638470.17947    503288.50063
  22809013.565     9653655.613 5   7489044.25921
  20523166.9014  -12593507.10747  -9720117.42762
  22885441.089     -773324.318 6   -570227.50221
  20324861.9874   -3056617.74947  -2297436.89863
 93  6 11 19 11 29.9990000  0  5G 2G27G13G26G 7
  21210753.6444     655329.51947    516425.63363
  22826745.3944    9746844.56045   7561658.94461
  20512023.886   -12652062.393 7  -9765744.90221
  22890663.401     -745896.612 6   -548855.30921
  20326149.4954   -3049859.69047  -2292170.88063
 93  6 11 19 11 59.9990000  0  5G 2G27G13G26G 7
  21213998.5504     672371.20147    529704.84563
  22844529.3704    9840294.06446   7634476.66361
  20500985.925   -12710061.541 7  -9810939.02222
  22895960.917     -718055.224 6   -527160.76821
  20327510.1754   -3042704.27647  -2286595.24163
 93  6 11 19 12 29.9990000  0  5G 2G27G13G26G 7
  21217273.9484     689574.15047    543109.73363
  22862363.269     9934006.368 6   7707499.14121
  20490055.8314  -12767500.26747  -9855696.45062
  22901333.948     -689797.759 6   -505142.02321
  20328947.1444   -3035149.29547  -2280708.24163
 93  6 11 19 12 59.9990000  0  5G 2G27G13G26G 7
  21220579.7614     706948.44447    556648.13463
  22880242.7224   10027972.37145   7780719.31961
  20479231.542   -12824378.912 7  -9900017.44821
  22906791.558     -661129.041 6   -482802.80721
  20330459.8704   -3027197.98147  -2274512.41663
 93  6 11 19 13 29.9990000  0  5G 2G27G13G26G 7
  21223922.5814     724516.09347    570337.19663
  22898171.2534   10122184.91845   7854131.62261
  20468513.8704  -12880698.34847  -9943902.70962
  22912322.8784    -632049.10946   -460143.16961
  20332048.7534   -3018852.44847  -2268009.40563
 93  6 11 19 13 59.9990000  0  5G 2G27G13G26G 7
  21227305.2304     742293.81447    584189.95063
  22916146.206    10216641.598 5   7927734.13621
  20457906.065   -12936448.866 7  -9987344.64422
  22917941.5734    -602557.26646   -437162.56661
  20333712.1364   -3010105.47647  -2261193.58863
 93  6 11 19 14 29.9990000  0  5G 2G27G13G26G 7
  21230726.308      760283.607 7    598207.94622
  22934164.1904   10311328.39146   8001515.95961
  20447403.886   -12991639.768 7 -10030350.52422
  22923623.9874    -572669.10246   -413873.14861
  20335451.8004   -3000968.03547  -2254073.51063
 93  6 11 19 14 59.9990000  0  5G 2G27G13G26G 7
  21234194.8864     778511.72747    612411.65663
  22952225.4564   10406235.32045   8075469.33661
  20437009.1284  -13046266.00747 -10072916.40362
  22929393.1284    -542365.98946   -390260.38861
  20337267.4404   -2991437.22047  -2246646.90663
 93  6 11 19 15 29.9990000  0  5G 2G27G13G26G 7
  21237710.3864     796974.74247    626798.41162
  22970329.6514   10501387.91445   8149614.12361
  20426722.0114  -13100323.52047 -10115039.12362
  22935236.722     -511639.105 6   -366317.40821
  20339154.0264   -2981511.26747  -2238912.39763
 93  6 11 19 15 59.9990000  0  5G 2G27G13G26G 7
  21241262.3004     815640.52547    641343.16163
  22988480.987    10596776.299 5   8223942.64821
  20416538.9724  -13153831.77047 -10156733.84362
  22941162.433     -480503.068 6   -342055.61521
  20341116.1444   -2971211.27847  -2230886.43363
 93  6 11 19 16 29.9990000  0  5G 2G27G13G26G 7
  21244856.5424     834537.39047    656067.97663
  23006689.933    10692433.553 6   8298480.67321
  20406469.081   -13206753.793 7 -10197971.76122
  22947174.5584    -448907.62146   -317435.83761
  20343153.2534   -2960502.10747  -2222541.62363
 93  6 11 19 16 59.9990000  0  5G 2G27G13G26G 7
  21248492.4954     853634.47347    670948.79763
  23024935.8314   10788338.86645   8373211.99661
  20396503.0114  -13259122.62247 -10238778.62062
  22953268.190     -416888.877 5   -292486.21521
  20345260.5654   -2949419.24347  -2213905.63363
 93  6 11 19 17 29.9990000  0  5G 2G27G13G26G 7
  21252164.6594     872923.47447    685979.17363
  23043234.878    10884508.762 5   8448149.49521
  20386641.9804  -13310935.19647 -10279152.04062
  22959439.347     -384465.136 6   -267221.02621
  20347441.3704   -2937961.37647  -2204977.43563
 93  6 11 19 17 59.9990000  0  5G 2G27G13G26G 7
  21255872.5814     892408.70347    701162.45963
  23061584.503    10980917.824 5   8523273.33821
  20376890.3704  -13362189.56547 -10319090.48262
  22965684.409     -351646.474 6   -241648.09121
  20349692.2764   -2926128.12047  -2195756.71763
 93  6 11 19 18 29.9990000  0  5G 2G27G13G26G 7
  21259616.2844     912098.07647    716504.80963
  23079974.284    11077562.186 5   8598580.52721
  20367243.5264  -13412881.93647 -10358591.01562
  22972002.9644    -318438.43046   -215771.75161
  20352016.1834   -2913917.67447  -2186242.09063
 93  6 11 19 18 59.9990000  0  5G 2G27G13G26G 7
  21263398.7534     931983.99947    732000.32262
  23098409.8394   11174442.29545   8674071.43361
  20357704.1754  -13463012.24547 -10397653.57962
  22978392.0424    -284858.99946   -189606.00361
  20354412.4644   -2901332.42147  -2176435.39763
 93  6 11 19 19 29.9990000  0  5G 2G27G13G26G 7
  21267219.9874     952053.75747    747639.08762
  23116885.831    11271523.245 5   8749718.82121
  20348269.120   -13512591.539 7 -10436286.77122
  22984848.2764    -250938.79046   -163174.71461
  20356875.8154   -2888384.91247  -2166346.43563
 93  6 11 19 19 59.9990000  0  5G 2G27G13G26G 7
  21271075.8864     972324.94347    763434.80162
  23135396.2694   11368803.52045   8825521.51361
  20338942.8474  -13561607.87547 -10474481.29762
  22991376.0194    -216663.07846   -136466.43361
  20359410.6514   -2875064.99547  -2155967.28463
 93  6 11 19 20 29.9990000  0  5G 2G27G13G26G 7
  21274975.1054     992793.64147    779384.42062
  23153943.8944   11466283.64245   8901479.96161
  20329719.386   -13610069.876 7 -10512243.87322
  22997957.480     -182040.259 6   -109487.67121
  20362015.0194   -2861383.13547  -2145306.09863
 93  6 11 19 20 59.9990000  0  5G 2G27G13G26G 7
  21278901.6834    1013450.53847    795480.69262
  23172527.9954   11563941.68845   8977577.03761
  20320600.1284  -13657991.05847 -10549585.04062
  23004611.0584    -147084.85046    -82249.74261
  20364684.6984   -2847354.31647  -2134374.55363
 93  6 11 19 21 29.9990000  0  5G 2G27G13G26G 7
  21282874.3084    1034324.24147    811745.91463
  23191148.3084   11661778.28745   9053813.24861
  20311587.5344  -13705358.82947 -10586494.97062
  23011333.0194    -111769.26646    -54731.15361
  20367423.5734   -2832968.46347  -2123164.81063
 93  6 11 19 21 59.9990000  0  5G 2G27G13G26G 7
  21286888.8314    1055409.75047    828176.16763
  23209798.7304   11759808.34445   9130200.21961
  20302679.6834  -13752166.73047 -10622968.63562
  23018127.9334     -76066.89946    -26911.18861
  20370228.2844   -2818220.54147  -2111672.93063
 93  6 11 19 22 29.9990000  0  5G 2G27G13G26G 7
  21290940.3084    1076703.39347    844768.60262
  23228490.300    11858025.084 5   9206732.62321
  20293876.894   -13798420.714 7 -10659010.68322
  23024994.605      -39980.417 6      1208.09221
  20373100.3474   -2803118.70547  -2099905.27663
 93  6 11 19 22 59.9990000  0  5G 2G27G13G26G 7
  21295030.0734    1098208.37247    861525.71762
  23247218.3004   11956431.79345   9283413.06361
  20285181.6444  -13844117.75447 -10694618.75162
  23031932.011       -3508.772 6     29627.50021
  20376045.1514   -2787661.21947  -2087860.48463
 93  6 11 19 23 29.9990000  0  5G 2G27G13G26G 7
  21299160.3154    1119906.53347    878433.35962
  23265983.636    12055023.903 5   9360237.97621
  20276588.3234  -13889275.11447 -10729806.29662
  23038938.503       33324.247 5     58328.48321
  20379049.7924   -2771866.78047  -2075553.13863
 93  6 11 19 23 59.9990000  0  5G 2G27G13G26G 7
  21303325.0194    1141789.56047    895485.06062
  23284780.386    12153811.362 5   9437215.07921
  20268098.503   -13933892.691 7 -10764573.22122
  23046016.4254      70503.60745     87299.34761
  20382118.2304   -2755737.52647  -2062984.89263
 93  6 11 19 24 29.9990000  0  5G 2G27G13G26G 7
  21307531.4254    1163879.33047    912697.85162
  23303618.2064   12252798.88745   9514348.11961
  20259710.8474  -13977965.90347 -10798915.96962
  23053156.058      108019.314 5    116532.31121
  20385251.0734   -2739270.49247  -2050153.44263
 93  6 11 19 24 59.9990000  0  5G 2G27G13G26G 7
  21311773.3474    1186192.65447    930084.84862
  23322492.198    12352006.519 5   9591652.66321
  20251432.2764  -14021472.07647 -10832816.87062
  23060359.7304     145886.22245    146038.92461
  20388453.5734   -2722444.20347  -2037042.06363
 93  6 11 19 25 29.9990000  0  5G 2G27G13G26G 7
  21316065.0034    1208731.07847    947647.24062
  23341410.6444   12451427.25845   9669123.23461
  20243262.847   -14064403.535 7 -10866269.94522
  23067637.3154     184115.61946    175827.99661
  20391724.0974   -2705251.97047  -2023645.52863
 93  6 11 19 25 59.9990000  0  5G 2G27G13G26G 7
  21320395.7224    1231496.20047    965386.28262
  23360370.4094   12551041.94045   9746744.94661
  20235201.4404  -14106766.86647 -10899280.31862
  23074981.6054     222705.92245    205898.28561
  20395066.1444   -2687702.65447  -2009970.75363
 93  6 11 19 26 29.9990000  0  5G 2G27G13G26G 7
  21324771.7144    1254496.85947    983308.85762
  23379363.7224   12650847.67245   9824515.53061
  20227246.6904  -14148564.56847 -10931849.94562
  23082392.6754     261654.00346    236247.37661
  20398473.5584   -2669800.41447  -1996020.95463
 93  6 11 19 26 59.9990000  0  5G 2G27G13G26G 7
  21329192.4644    1277716.62947   1001402.17162
  23398386.300    12750831.674 5   9902425.02521
  20219399.6204  -14189802.62947 -10963983.48762
  23089874.5344     300956.74346    266872.82161
  20401941.9954   -2651552.89147  -1981802.11464
 93  6 11 19 27 29.9990000  0  5G 2G27G13G26G 7
  21333648.3084    1301130.32647   1019646.60162
  23417442.901    12850970.146 5   9980454.87421
  20211653.8624  -14230509.60447 -10995703.19362
  23097410.8004     340581.68046    297749.33761
  20405473.8474   -2632990.62947  -1967338.01863
 93  6 11 19 27 59.9990000  0  5G 2G27G13G26G 7
  21338145.4014    1324764.65347   1038062.94662
  23436536.4874   12951300.48745  10058634.24561
  20204014.1754  -14270654.52847 -11026984.94162
  23105016.2764     380538.60446    328884.53361
  20409071.5264   -2614084.00347  -1952605.58664
 93  6 11 19 28 29.9990000  0  5G 2G27G13G26G 7
  21342676.4094    1348582.58447   1056622.36162
  23455658.534    13051794.418 5  10136941.07321
  20196478.6364  -14310257.35647 -11057844.27962
  23112676.8704     420793.29045    360251.75761
  20412732.0734   -2594854.14747  -1937621.28863
 93  6 11 19 28 59.9990000  0  5G 2G27G13G26G 7
  21347245.7844    1372582.71447   1075323.74662
  23474813.3154   13152446.59145  10215371.22761
  20189047.9254  -14349302.41647 -11088268.98962
  23120394.980      461353.656 6    391857.16921
  20416455.0814   -2575287.45547  -1922374.51664
 93  6 11 19 29 29.9990000  0  5G 2G27G13G26G 7
  21351842.2694    1396759.20447   1094162.54762
  23493994.105    13253247.008 5  10293916.85721
  20181724.2844  -14387796.86047 -11118264.64562
  23128168.784      502204.390 5    423688.83721
  20420242.4484   -2555392.09947  -1906871.64763
 93  6 11 19 29 59.9990000  0  5G 2G27G13G26G 7
  21356479.2764    1421118.28947   1113143.64462
  23513203.081    13354191.084 5  10372574.45721
  20174503.2454  -14425736.94747 -11147828.34161
  23135997.948      543354.206 5    455753.55421
  20424094.0034   -2535165.44647  -1891110.62663
 93  6 11 19 30 29.9990000  0  5G 2G27G13G26G 7
  21361153.3084    1445679.16347   1132281.96962
  23532441.925    13455281.609 5  10451346.19021
  20167391.1984  -14463119.00747 -11176957.20262
  23143889.4254     584816.98545    488062.14761
  20428002.8944   -2514605.45747  -1875089.86163
 93  6 11 19 30 59.9990000  0  5G 2G27G13G26G 7
  21365867.800     1470465.058 7   1151595.63222
  23551708.815    13556535.164 5  10530244.91221
  20160383.8704  -14499938.35647 -11205647.59662
  23151842.4724     626608.29945    520626.72561
  20431982.0114   -2493708.90147  -1858806.83463
 93  6 11 19 31 29.9990000  0  5G 2G27G13G26G 7
  21370637.2374    1495503.30247   1171105.93262
  23571012.7064   13657979.28545  10609292.15661
  20153486.3554  -14536188.58547 -11233894.50562
  23159858.878      668735.250 5    553452.85521
  20436021.0734   -2472470.57247  -1842257.49663
 93  6 11 19 31 59.9990000  0  5G 2G27G13G26G 7
  21375440.2144    1520764.76947   1190790.17762
  23590344.362    13759571.805 5  10688455.00721
  20146688.8624  -14571908.50547 -11261728.20261
  23167935.3704     711166.78546    586516.31661
  20440122.7064   -2450931.13847  -1825473.53563
 93  6 11 19 32 29.9990000  0  5G 2G27G13G26G 7
  21380295.7844    1546273.28447   1210666.92462
  23609709.6124   13861327.58045  10767745.09861
  20139995.2614  -14607077.75447 -11289132.80362
  23176067.245      753921.636 5    619831.71121
  20444280.8864   -2429071.16647  -1808439.79663
 93  6 11 19 32 59.9990000  0  5G 2G27G13G26G 7
  21385198.0584    1572022.20247   1230731.00262
  23629104.105    13963250.226 4  10847165.20621
  20133409.4954  -14641686.83747 -11316100.90961
  23184268.1904     797007.16745    653404.77161
  20448502.2064   -2406882.83547  -1791150.20063
 93  6 11 19 33 29.9990000  0  5G 2G27G13G26G 7
  21390139.9644    1598000.57747   1250973.87562
  23648530.3084   14065335.86744  10926712.31461
  20126932.6124  -14675726.43247 -11342625.25261
  23192530.620      840419.559 5    687232.51621
  20452789.6364   -2384358.22247  -1773598.56363
 93  6 11 19 33 59.9990000  0  5G 2G27G13G26G 7
  21395125.5814    1624204.82847   1271392.75262
  23667988.425    14167572.293 5  11006376.90421
  20120562.972   -14709190.643 7 -11368701.24821
  23200851.659      884162.932 5    721318.17421
  20457141.4564   -2361492.67347  -1755781.26863
 93  6 11 19 34 29.9990000  0  5G 2G27G13G26G 7
  21400147.0504    1650596.92647   1291958.00462
  23687465.3314   14269935.67345  11086140.46461
  20114297.8864  -14742112.80747 -11394354.87161
  23209227.2374     928180.08145    755617.17561
  20461551.9724   -2338320.13447  -1737724.74863
 93  6 11 19 34 59.9990000  0  6G 2G27G24G13G26G 7
  21405207.9334    1677181.53847   1312673.26762
  23706971.9014   14372437.07444  11166011.52961
  23918838.269          -0.77515
  20108138.1054  -14774487.39947 -11419581.82561
  23217656.6054     972468.95045    790127.90761
  20466020.5974   -2314836.59747  -1719425.90163
 93  6 11 19 35 29.9990000  0  6G 2G27G24G13G26G 7
  21410309.6284    1704001.92547   1333572.24462
  23726502.8944   14475087.48844  11245998.72561
  23896271.3394    -118605.59245        -0.14671
  20102084.2064  -14806298.49547 -11444369.68262
  23226144.2694    1017051.06645    824867.16061
  20470551.7144   -2291027.95747  -1700873.72263
 93  6 11 19 35 59.9990000  0  6G 2G27G24G13G26G 7
  21415458.4334    1731057.30947   1354654.34962
  23746065.4174   14577873.12844  11326091.27661
  23873707.2764    -237168.70445    -92386.79961
  20096135.6284  -14837560.05947 -11468729.32761
  23234680.2454    1061926.63545    859835.06361
  20475141.3554   -2266908.74647  -1682079.53663
 93  6 11 19 36 29.9990000  0  6G 2G27G24G13G26G 7
  21420652.2764    1758353.16947   1375923.84062
  23765654.9954   14680808.25644  11406300.34761
  23851156.206     -355672.470 5   -184727.17421
  20090294.2844  -14868264.12347 -11492654.56261
  23243280.894     1107117.824 5    895048.90221
  20479789.8474   -2242471.86747  -1663037.81563
 93  6 11 19 36 59.9990000  0  6G 2G27G24G13G26G 7
  21425899.5034    1785901.90447   1397390.36362
  23785266.105    14783891.365 3  11486624.69221
  23828624.8084    -474087.45045   -276998.38061
  20084559.2614  -14898397.86247 -11516135.39561
  23251945.003     1152651.058 5    930529.25721
  20484500.9404   -2217705.97847  -1643739.72763
 93  6 11 19 37 29.9990000  0  6G 2G27G24G13G26G 7
  21431181.4564    1813677.79347   1419033.89862
  23804902.487    14887097.288 3  11567044.71221
  23806100.4954    -592444.96345   -369224.81461
  20078929.1204  -14927984.57147 -11539189.96661
  23260667.1444    1198489.71245    966247.62061
  20489272.0894   -2192635.99147  -1624204.68063
 93  6 11 19 37 59.9990000  0  6G 2G27G24G13G26G 7
  21436501.6984    1841639.28447   1440822.05662
  23824572.6204   14990431.05744  11647564.40361
  23783586.2844    -710765.97445   -461422.80361
  20073401.0814  -14957034.78247 -11561826.48961
  23269443.2764    1244600.47845   1002177.98561
  20494100.0344   -2167273.07947  -1604441.38063
 93  6 11 19 38 29.9990000  0  7G 2G27G24G13G26G12G 7
  21441861.3154    1869797.22347   1462763.29462
  23844264.558    15093910.468 4  11728197.55221
  23761077.987     -829038.240 5   -553582.81421
  20067977.6514  -14985538.83947 -11584037.43261
  23278266.065     1290969.103 5   1038309.31421
  23826030.1904         -0.04955
  20498983.5034   -2141609.22947  -1584443.58763
 93  6 11 19 38 59.9990000  0  7G 2G27G24G13G26G12G 7
  21447256.4484    1898156.63347   1484861.52362
  23863987.0504   15197535.57544  11808944.22261
  23738584.0424    -947256.88645   -645701.04361
  20062656.1124  -15013493.63247 -11605820.37961
  23287136.714     1337576.239 5   1074626.46921
  23805725.4014    -106709.05745
  20503923.4404   -2115641.83247  -1564209.26463
 93  6 11 19 39 29.9990000  0  7G 2G27G24G13G26G12G 7
  21452694.0424    1926717.22347   1507116.50962
  23883729.4484   15301301.07544  11889800.28861
  23716092.245    -1065439.696 5   -737791.39021
  20057440.9484  -15040901.74747 -11627177.34961
  23296051.7304    1384426.68445   1111133.21561
  23785424.2614    -213375.00745        -0.44771
  20508923.6284   -2089374.44747  -1543741.18163
 93  6 11 19 39 59.9990000  0  7G 2G27G24G13G26G12G 7
  21458168.315     1955505.670 7   1529549.04022
  23903502.042    15405214.144 4  11970771.33721
  23693610.0814   -1183574.38145   -829844.21461
  20052331.9564  -15067751.84347 -11648099.49161
  23305019.355     1431550.152 5   1147852.74421
  23765140.5974    -319983.88345    -83072.22461
  20513981.0034   -2062797.02247  -1523031.50763
 93  6 11 19 40 29.9990000  0  7G 2G27G24G13G26G12G 7
  21463693.1834    1984522.95047   1552159.88962
  23923297.1364   15509219.62044  12051814.41361
  23671137.8154   -1301675.64945   -921870.98761
  20047323.8864  -15094072.12347 -11668608.79361
  23314033.526     1478927.050 5   1184769.71921
  23744859.222     -426561.000 5   -166119.27321
  20519088.8704   -2035938.97447  -1502103.16663
 93  6 11 19 40 59.9990000  0  7G 2G27G24G13G26G12G 7
  21469260.1834    2013782.53447   1574959.55662
  23943101.253    15613307.140 4  12132921.44721
  23648670.862    -1419739.102 5  -1013868.33121
  20042415.5344  -15119858.80147 -11688702.29661
  23323101.3624    1526577.15545   1221899.58961
  23724586.456     -533099.383 5   -249136.12721
  20524258.3004   -2008797.32847  -1480953.83463
 93  6 11 19 41 29.9990000  0  7G 2G27G24G13G26G12G 7
  21474878.315     2043297.488 7   1597958.19122
  23962926.003    15717478.362 4  12214093.65521
  23626209.167    -1537768.754 5  -1105839.32121
  20037611.0814  -15145109.82447 -11708378.41261
  23332221.425     1574510.311 5   1259250.01521
  23704317.3154    -639594.08545   -332118.95061
  20529473.8864   -1981370.53147  -1459582.31263
 93  6 11 19 41 59.9990000  0  7G 2G27G24G13G26G12G 7
  21480545.7764    2073074.34347   1621160.91262
  23982768.1514   15821758.85044  12295351.00961
  23603760.1904   -1655734.66445  -1197760.65461
  20032910.9724  -15169809.82347 -11727625.14861
  23341394.940     1622716.717 5   1296813.34921
  23684062.425     -746026.923 5   -415053.55521
  20534750.5424   -1953644.25047  -1437977.43363
 93  6 11 19 42 29.9990000  0  7G 2G27G24G13G26G12G 7
  21486255.8554    2103093.17647   1644552.19362
  24002637.2064   15926150.45444  12376694.94661
  23581325.3234   -1773628.67845  -1289625.97461
  20028315.5814  -15193956.42147 -11746440.66961
  23350614.573     1671186.216 5   1334581.68921
  23663823.5814    -852392.20545   -497935.51761
  20540087.8314   -1925617.24647  -1416138.21063
 93  6 11 19 42 59.9990000  0  7G 2G27G24G13G26G12G 7
  21492009.1204    2133336.30247   1668118.24562
  24022527.144    16030675.848 4  12458143.10821
  23558901.597    -1891461.835 5  -1381443.86021
  20023825.6444  -15217551.37547 -11764826.34261
  23359893.4014    1719916.96545   1372553.59261
  23643599.605     -958688.859 5   -580764.02421
  20545475.2764   -1897291.85547  -1394066.49663
 93  6 11 19 43 29.9990000  0  7G 2G27G24G13G26G12G 7
  21497805.4804    2163777.89047   1691838.94462
  24042438.120    16135316.883 5  12539681.41721
  23536487.9094   -2009243.65045  -1473221.76561
  20019437.2614  -15240616.22947 -11782798.95161
  23369208.2304    1768870.19745   1410698.87361
  23623380.456    -1064934.872 5   -663553.04521
  20550918.0584   -1868690.47747  -1371779.72063
 93  6 11 19 43 59.9990000  0  7G 2G27G24G13G26G12G 7
  21503637.7764    2194420.18447   1715716.03562
  24062372.714    16240064.164 5  12621302.50621
  23514092.7224   -2126938.84845  -1564932.19261
  20015149.4724  -15263146.69647 -11800355.15061
  23378567.175     1818048.308 5   1449019.37921
  23603176.3554   -1171123.30745   -746297.20961
  20556412.3084   -1839809.88447  -1349275.36764
 93  6 11 19 44 29.9990000  0  7G 2G27G24G13G26G12G 7
  21509508.5654    2225276.07747   1739759.56562
  24082322.870    16344900.868 4  12702993.24621
  23491713.347    -2244543.173 5  -1656571.77921
  20010961.2374  -15285144.92447 -11817496.62161
  23387968.284     1867459.808 5   1487521.78721
  23582978.472    -1277253.436 5   -828995.93521
  20561958.8394   -1810653.01847  -1326555.74763
 93  6 11 19 44 59.9990000  0  6G 2G24G13G26G12G 7
  21515420.1834    2256351.53447   1763974.18662
  23469356.980    -2362050.878 5  -1748136.09321
  20006876.6834  -15306622.11247 -11834232.08961
  23397417.0114    1917097.69345   1526200.54861
  23562788.5034   -1383333.73445   -911655.83461
  20567562.0734   -1781232.66347  -1303630.80163
 93  6 11 19 45 29.9990000  0  6G 2G24G13G26G12G 7
  21521376.8004    2287657.18647   1788368.18862
  23447017.0814   -2479429.77745  -1839600.04861
  20002890.3704  -15327569.63447 -11850554.83461
  23406905.8394    1966970.60145   1565062.46961
  23542617.894    -1489351.977 5   -994267.37821
  20573211.0504   -1751540.40647  -1280493.98963
 93  6 11 19 45 59.9990000  0  6G 2G24G13G26G12G 7
  21527375.6594    2319178.13147   1812929.93862
  23424703.2224   -2596691.11245  -1930972.39061
  19999004.1364  -15347987.79147 -11866465.07361
  23416440.8554    2017084.47645   1604112.15761
  23522455.050    -1595305.317 5  -1076828.35721
  20578913.9014   -1721577.31547  -1257146.14464
 93  6 11 19 46 29.9990000  0  6G 2G24G13G26G12G 7
  21533415.3084    2350914.69247   1837659.70762
  23402407.6834   -2713853.60845  -2022267.72061
  19995220.6834  -15367872.56147 -11881959.70061
  23426022.5734    2067439.20045   1643349.49861
  23502307.644    -1701186.207 5  -1159332.86621
  20584666.9094   -1691339.81247  -1233584.46364
 93  6 11 19 46 59.9990000  0  6G 2G24G13G26G12G 7
  21539498.5504    2382869.75847   1862559.73362
  23380129.987    -2830915.011 5  -2113484.26021
  19991538.8704  -15387220.27847 -11897035.82761
  23435654.050     2118040.005 5   1682778.60221
  23482169.5814   -1806987.69545  -1241775.54061
  20590473.8004   -1660825.27947  -1209806.91364
 93  6 11 19 47 29.9990000  0  6G 2G24G13G26G12G 7
  21545618.2064    2415034.98247   1887623.52662
  23357870.1904   -2947894.63845  -2204637.10161
  19987957.1904  -15406037.39347 -11911698.51761
  23445325.4954    2168871.88645   1722387.75761
  23462054.1514   -1912712.55345  -1324158.46761
  20596329.3784   -1630039.97547  -1185818.37764
 93  6 11 19 47 59.9990000  0  6G 2G24G13G26G12G 7
  21551782.925     2447423.526 7   1912861.32122
  23335624.0504   -3064805.05645  -2295736.00361
  19984480.6674  -15424316.48147 -11925941.95861
  23455045.5424    2219941.36845   1762182.06061
  23441950.9174   -2018351.08645  -1406474.15961
  20602241.3154   -1598978.54147  -1161614.68064
 93  6 11 19 48 29.9990000  0  6G 2G24G13G26G12G 7
  21557989.253     2480058.111 7   1938290.84522
  23313387.362    -3181643.027 5  -2386778.46521
  19981101.7064  -15442066.07247 -11939772.80761
  23464806.6984    2271239.09845   1802154.21361
  23421860.5654   -2123908.29645  -1488726.45361
  20608204.7304   -1567649.85947  -1137202.73664
 93  6 11 19 48 59.9990000  0  6G 2G24G13G26G12G 7
  21564248.230     2512950.290 7   1963921.08722
  23291172.198    -3298397.238 5  -2477755.66821
  19977826.1674  -15459281.53747 -11953187.44661
  23474609.3084    2322761.26945   1842301.26861
  23401796.9174   -2229375.68345  -1570908.76561
  20614219.7694   -1536049.17147  -1112578.83764
 93  6 11 19 49 29.9990000  0  6G 2G24G13G26G12G 7
  21570555.183     2546091.019 7   1989745.00322
  23268966.8864   -3415081.29945  -2568678.17961
  19974651.0034  -15475969.11047 -11966190.74561
  23484455.9174    2374490.02345   1882609.30361
  23381742.011    -2334755.513 5  -1653022.84721
  20620282.9724   -1504183.29347  -1087748.29964
 93  6 11 19 49 59.9990000  0  6G 2G24G13G26G12G 7
  21576911.1674    2579491.21046   2015771.10662
  23246776.9874   -3531684.77945  -2659537.91361
  19971575.5974  -15492125.20947 -11978779.90661
  23494336.878     2426428.102 5   1923080.45621
  23361701.519    -2440041.256 5  -1735063.63721
  20626396.7924   -1472049.52447  -1062709.00763
 93  6 11 19 50 29.9990000  0  6G 2G24G13G26G12G 7
  21583313.0654    2613130.68546   2041983.65962
  23224608.823    -3648192.283 6  -2750322.88521
  19968600.7534  -15507763.16747 -11990965.32261
  23504256.3784    2478551.41745   1963695.91661
  23341685.1754   -2545242.93645  -1817038.90261
  20632558.0814   -1439661.86547  -1037471.87964
 93  6 11 19 50 59.9990000  0  6G 2G24G13G26G12G 7
  21589756.128     2646979.232 7   2068359.12022
  23202451.706    -3764605.294 5  -2841034.22021
  19965722.3944  -15522889.27347 -12002751.90261
  23514207.6834    2530852.28945   2004449.74361
  23321680.003    -2650363.494 5  -1898950.96521
  20638769.7144   -1407027.47647  -1012042.50164
 93  6 11 19 51 29.9990000  0  6G 2G24G13G26G12G 7
  21596237.644     2681050.305 6   2094907.98122
  23180325.0814   -3880882.68845  -2931639.88161
  19962943.0654  -15537490.87447 -12014129.76661
  23524195.456     2583347.963 5   2045355.34021
  23301695.8084   -2755386.61845  -1980787.11061
  20645029.0734   -1374133.74547   -986411.03264
 93  6 11 19 51 59.9990000  0  6G 2G24G13G26G12G 7
  21602762.128     2715336.305 6   2121624.31822
  23158227.159    -3997015.831 5  -3022133.14021
  19960263.5034  -15551577.37547 -12025106.25261
  23534223.292     2636034.076 5   2086409.35921
  23281727.581    -2860318.056 5  -2062551.80621
  20651336.6444   -1340990.46147   -960585.10664
 93  6 11 19 52 29.9990000  0  6G 2G24G13G26G12G 7
  21609327.0654    2749825.56546   2148499.04262
  23136157.331    -4113002.614 6  -3112512.34521
  19957678.5194  -15565152.52547 -12035684.29261
  23544288.4804    2688914.05645   2127614.42961
  23261782.495    -2965157.503 6  -2144244.80321
  20657688.4954   -1307601.76747   -934567.95964
 93  6 11 19 52 59.9990000  0  6G 2G24G13G26G12G 7
  21615933.128     2784548.763 7   2175556.05222
  23114110.511    -4228848.628 5  -3202781.86521
  19955194.7374  -15578209.41947 -12045858.49461
  23554391.956     2741996.996 5   2168977.67121
  23241845.8154   -3069894.73845  -2225858.17661
  20664091.1054   -1273961.54947   -908354.81363
 93  6 11 19 53 29.9990000  0  6G 2G24G13G26G12G 7
  21622587.456     2819522.182 7   2202808.03322
  23092095.112    -4344557.681 5  -3292944.66221
  19952809.8944  -15590739.70747 -12055622.35461
  23564532.112     2795294.719 5   2210508.24321
  23221938.370    -3174518.237 5  -2307382.91421
  20670543.2694   -1240062.04847   -881939.63863
 93  6 11 19 53 59.9990000  0  6G 2G24G13G26G12G 7
  21629287.128     2854715.604 6   2230231.45122
  23070091.7924   -4460176.66446  -3383037.28361
  19950520.7764  -15602770.98347 -12064997.37261
  23574715.253     2848789.151 5   2252192.13121
  23202045.4094   -3279051.28545  -2388837.17361
  20677035.8944   -1205930.84947   -855343.90863
 93  6 11 19 54 29.9990000  0  6G 2G24G13G26G12G 7
  21636028.7614    2890153.92546   2257845.69862
  23048110.112    -4575687.557 6  -3473045.67021
  19948329.7454  -15614287.98947 -12073971.65761
  23584932.753     2902490.297 5   2294037.05321
  23182175.8704   -3383475.15045  -2470206.35861
  20683578.9404   -1171553.41147   -828556.30963
 93  6 11 19 54 59.9990000  0  6G 2G24G13G26G12G 7
  21642817.8784    2925838.30246   2285651.68362
  23026151.058    -4691086.220 6  -3562966.60821
  19946237.2534  -15625288.14147 -12082543.20161
  23595187.5344    2956387.58745   2336034.86961
  23162326.511    -3487783.888 6  -2551485.83821
  20690169.9404   -1136927.57747   -801575.15464
 93  6 11 19 55 29.9990000  0  6G 2G24G13G26G12G 7
  21649655.776     2961754.795 6   2313638.54022
  23004215.808    -4806353.800 6  -3652785.41421
  19944241.9724  -15635761.50847 -12090704.26661
  23605482.9334    3010490.88745   2378193.18761
  23142503.0814   -3591963.35546  -2632664.58961
  20696804.4644   -1102043.38447   -774392.68663
 93  6 11 19 55 59.9990000  0  6G 2G24G13G26G12G 7
  21656531.933     2997884.191 6   2341791.28022
  22982304.7454   -4921491.19546  -3742502.78561
  19942345.1204  -15645734.38547 -12098475.33261
  23615813.1444    3064761.73945   2420482.05261
  23122695.7534   -3696036.17746  -2713760.23361
  20703487.6204   -1066928.16047   -747030.18363
 93  6 11 19 56 29.9990000  0  6G 2G24G13G26G12G 7
  21663442.987     3034224.296 6   2370108.21822
  22960420.878    -5036492.402 6  -3832114.03021
  19940541.2764  -15655212.91047 -12105861.19461
  23626166.980     3119181.700 5   2462887.11921
  23102913.3944   -3800004.77946  -2794774.68461
  20710214.3234   -1031587.14947   -719491.74363
 93  6 11 19 56 59.9990000  0  6G 2G24G13G26G12G 7
  21670402.5114    3070785.79346   2398597.67262
  22938564.636    -5151338.824 6  -3921604.66221
  19938835.0584  -15664179.55547 -12112848.18761
  23636552.6364    3173769.18845   2505422.74361
  23083151.4954   -3903848.23946  -2875691.61461
  20716984.4724    -996004.64047   -691765.12663
 93  6 11 19 57 29.9990000  0  6G 2G24G13G26G12G 7
  21677409.3704    3107606.62746   2427289.19462
  22916746.3154   -5266002.09346  -4010952.58361
  19937229.7534  -15672613.77447 -12119420.29861
  23646980.0264    3228547.04845   2548106.66861
  23063418.8154   -4007541.88446  -2956491.78861
  20723805.4014    -960160.03547   -663834.28163
 93  6 11 19 57 59.9990000  0  6G 2G24G13G26G12G 7
  21684467.925     3144709.982 6   2456200.87122
  22894958.8624   -5380486.12246  -4100160.84461
  19935724.7304  -15680519.29647 -12125580.44361
  23657434.9014    3283501.92545   2590928.53761
  23043714.5654   -4111084.86646  -3037174.57361
  20730678.4954    -924056.72347   -635701.84263
 93  6 11 19 58 29.9990000  0  6G 2G24G13G26G12G 7
  21691581.081     3182079.222 6   2485319.73022
  22873205.6054   -5494816.68346  -4189249.51161
  19934319.2224  -15687915.57447 -12131343.76861
  23667922.8314    3338613.36345   2633872.41661
  23024036.683    -4214492.898 6  -3117752.20921
  20737591.1754    -887714.07047   -607382.90663
 93  6 11 19 58 59.9990000  0  6G 2G24G13G26G12G 7
  21698746.050     3219729.521 6   2514657.58722
  22851481.659    -5608981.019 6  -4278208.64421
  19933009.5114  -15694797.76147 -12136706.51061
  23678441.9804    3393879.11445   2676936.51961
  23004383.9174   -4317757.50146  -3198218.06161
  20744553.7614    -851128.04047   -578874.32663
 93  6 11 19 59 29.9990000  0  6G 2G24G13G26G12G 7
  21705958.612     3257653.682 6   2544208.84922
  22829784.245    -5722992.093 6  -4367048.36321
  19931794.2144  -15701182.89747 -12141681.94261
  23688980.808     3449280.852 5   2720106.59121
  22984758.901    -4420891.213 6  -3278581.93821
  20751559.5504    -814315.16047   -550188.97963
 93  6 11 19 59 59.9990000  0  6G 2G24G13G26G12G 7
  21713225.847     3295830.123 6   2573956.69722
  22808117.105    -5836859.171 6  -4455775.86821
  19930671.7064  -15707080.61047 -12146277.55961
  23699545.1754    3504819.82745   2763383.60361
  22965159.5654   -4523900.01246  -3358848.47561
  20758605.2764    -777285.36247   -521334.60463
 93  6 11 20  0 29.9990000  0  6G 2G24G13G26G12G 7
  21720541.362     3334257.043 6   2603899.72322
  22786484.292    -5950548.735 6  -4544365.05621
  19929644.6514  -15712476.74147 -12150482.32961
  23710147.433     3560515.424 5   2806782.65021
  22945584.0504   -4626765.74746  -3439003.54361
  20765695.4174    -740024.89447   -492300.48263
 93  6 11 20  0 59.9990000  0  6G 2G24G13G26G12G 7
  21727898.284     3372921.295 6   2634027.67122
  22764880.159    -6064057.556 6  -4632813.40121
  19928711.8474  -15717380.48047 -12154303.41961
  23720778.237     3616365.003 5   2850301.68521
  22926032.6984   -4729493.48446  -3519051.06861
  20772828.0504    -702543.34347   -463094.09663
 93  6 11 20  1 29.9990000  0  6G 2G24G13G26G12G 7
  21735295.347     3411800.017 6   2664322.74521
  22743310.7144   -6177403.10946  -4721134.52361
  19927869.4484  -15721800.82847 -12157747.84261
  23731433.784     3672366.366 5   2893938.98821
  22906511.565    -4832088.554 6  -3598995.22121
  20780003.2764    -664849.72747   -433722.45663
 93  6 11 20  1 59.9990000  0  6G 2G24G13G26G12G 7
  21742738.980     3450924.239 6   2694809.11721
  22721782.1204   -6290544.21246  -4809296.35661
  19927127.5894  -15725704.71147 -12160789.82861
  23742128.8474    3728545.51645   2937714.84661
  22887022.417    -4934513.366 6  -3678806.71521
  20787222.7924    -626910.61247   -404159.52963
 93  6 11 20  2 29.9990000  0  6G 2G24G13G26G12G 7
  21750225.573     3490252.498 6   2725454.47521
  22700284.6834   -6403519.86846  -4897329.24761
  19926475.0734  -15729139.88547 -12163466.59061
  23752838.573     3784844.914 5   2981584.40321
  22867556.011    -5036811.679 6  -3758519.63521
  20794479.4254    -588774.07447   -374442.75063
 93  6 11 20  2 59.9990000  0  6G 2G24G13G26G12G 7
  21757751.362     3529796.622 6   2756268.04621
  22678817.0114   -6516332.16446  -4985234.86261
  19925912.4874  -15732092.58347 -12165767.39561
  23763577.4094    3841275.80445   3025556.37661
  22848117.409    -5138965.393 6  -3838119.87421
  20801776.0114    -550426.44847   -344561.50363
 93  6 11 20  3 29.9990000  0  6G 2G24G13G26G12G 7
  21765318.714     3569584.523 6   2787271.56622
  22657383.4174   -6628973.27246  -5073007.07061
  19925447.5814  -15734546.91647 -12167679.86061
  23774343.480     3897852.334 4   3069641.93521
  22828708.2924   -5240954.47446  -3917591.83661
  20809116.6444    -511851.31747   -314502.97963
 93  6 11 20  3 59.9990000  0  6G 2G24G13G26G12G 7
  21772942.9484    3609645.43146   2818487.83961
  22635987.4094   -6741408.07746  -5160618.53161
  19925075.9094  -15736485.98647 -12169190.82361
  23785144.605     3954591.673 4   3113854.26821
  22809333.144    -5342757.953 6  -3996919.17021
  20816506.4254    -473032.35847   -284254.45563
 93  6 11 20  4 29.9990000  0  6G 2G24G13G26G12G 7
  21780611.917     3649933.535 6   2849881.12921
  22614621.2144   -6853678.46146  -5248101.87461
  19924797.8394  -15737951.98647 -12170333.16061
  23795959.3084    4011451.77744   3158160.73161
  22789991.3944   -5444413.26946  -4076131.04661
  20823928.4174    -434011.38747   -253848.51963
 93  6 11 20  4 59.9990000  0  6G 2G24G13G26G12G 7
  21788326.815     3690466.275 6   2881465.04821
  22593291.4874   -6965775.37546  -5335450.05061
  19924611.9014  -15738933.85547 -12171098.25761
  23806807.0034    4068434.54844   3202562.77061
  22770680.815    -5545905.518 6  -4155215.86421
  20831393.7304    -394777.39647   -223276.59963
 93  6 11 20  5 29.9990000  0  6G 2G24G13G26G12G 7
  21796088.417     3731262.417 6   2913254.21421
  22571999.339    -7077665.982 6  -5422637.44921
  19924515.3004  -15739421.60047
  23817669.456     4125551.835 4   3247069.60121
  22751399.1204   -5647220.82146  -4234162.79561
  20838900.6514    -355320.99247   -192531.36263
 93  6 11 20  5 59.9980000  0  6G 2G24G13G26G12G 7
  21803899.639     3772301.711 6   2945232.86021
  22550745.7254   -7189337.14446  -5509653.87661
  19924518.6544  -15739417.60547
  23828561.334     4182784.257 4   3291666.22021
  22732155.3424   -5748353.56846  -4312967.47561
  20846453.240     -315645.178 7   -161615.16223
 93  6 11 20  6 29.9980000  0  6G 2G24G13G26G12G 7
  21811750.584     3813564.659 6   2977385.76721
  22529533.7254   -7300824.73046  -5596527.25761
  19924609.5294  -15738942.00147
  23839474.2014    4240109.11945   3336334.79761
  22712938.170    -5849326.680 6  -4391647.78421
  20854040.2564    -275767.47647   -130541.64663
 93  6 11 20  6 59.9980000  0  6G 2G24G13G26G12G 7
  21819640.248     3855045.044 6   3009708.11521
  22508351.8894   -7412137.32046  -5683264.27861
  19924787.0144  -15738011.89647 -12170379.84461
  23850395.693     4297510.346 4   3381062.89521
  22693753.6474   -5950149.19346  -4470210.73061
  20861666.2404    -235706.00647    -99324.92763
 93  6 11 20  7 29.9980000  0  6G 2G24G13G26G12G 7
  21827580.076     3896759.349 6   3042212.73521
  22487205.4204   -7523250.72146  -5769846.08461
  19925053.2724  -15736608.33547 -12169286.16261
  23861337.1934    4355019.72944   3425875.28461
  22674600.686    -6050797.316 6  -4548637.79021
  20869327.2644    -195441.48347    -67949.98963
 93  6 11 20  7 59.9980000  0  6G 2G24G13G26G12G 7
  21835565.436     3938728.237 6   3074915.72921
  22466098.7644   -7634158.99246  -5856268.05561
  19925413.3814  -15734721.37847 -12167815.80061
  23872305.975     4412646.563 5   3470779.24221
  22655483.975    -6151257.320 6  -4626918.26921
  20877030.0534    -154964.04147    -36409.14563
 93  6 11 20  8 29.9980000  0  6G 2G24G13G26G12G 7
  21843602.936     3980955.948 6   3107820.40221
  22445033.9904   -7744864.08946  -5942531.70761
  19925860.4204  -15732366.80247 -12165981.06861
  23883293.897     4470387.228 4   3515771.83521
  22636399.506    -6251540.444 6  -4705060.91921
  20884770.2404    -114289.43247     -4714.65863
 93  6 11 20  8 59.9980000  0  6G 2G24G13G26G12G 7
  21851685.897     4023438.292 6   3140923.48421
  22424009.2954   -7855353.18946  -6028627.04461
  19926395.1314  -15729553.43647 -12163788.84061
  23894305.248     4528242.316 5   3560853.60221
  22617349.279    -6351651.264 6  -4783069.31521
  20892547.1394     -73426.11347     27126.87363
 93  6 11 20  9 29.9980000  0  6G 2G24G13G26G12G 7
  21859816.115     4066163.011 6   3174215.43621
  22403028.4754   -7965619.25046  -6114548.58161
  19927017.2014  -15726288.23447 -12161244.52661
  23905334.748     4586198.587 5   3606014.22521
  22598332.365    -6451592.093 6  -4860945.24421
  20900357.2724     -32380.98047     59110.07563
 93  6 11 20  9 59.9980000  0  5G 2G24G13G12G 7
  21867997.732     4109141.352 6   3207705.01521
  22382088.1394   -8075638.29246  -6200277.64661
  19927726.1864  -15722559.60947 -12158339.10861
  22579347.482    -6551347.234 6  -4938676.48221
  20908203.7874       8857.98247     91244.32163
 93  6 11 20 10 29.9980000  0  5G 2G24G13G12G 7
  21876222.232     4152367.744 6   3241387.87521
  22361200.7724   -8185408.50246  -6285812.81761
  19928524.4434  -15718362.71247 -12155068.80061
  22560400.9514   -6650907.22946  -5016255.64561
  20916089.7874      50295.91447    123533.59163
 93  6 11 20 10 59.9980000  0  5G 2G24G13G12G 7
  21884490.482     4195820.636 6   3275247.24021
  22340352.311    -8294963.508 6  -6371180.30321
  19929409.6784  -15713715.34847 -12151447.48261
  22541493.170    -6750284.799 6  -5093692.67021
  20924011.4124      91915.49147    155964.42263
 93  6 11 20 11 29.9980000  0  5G 2G24G13G12G 7
  21892800.381     4239494.137 6   3309278.50621
  22319542.2404   -8404329.21746  -6456400.27161
  19930377.6934  -15708624.33447 -12147480.45661
  22522613.318    -6849482.324 6  -5170989.39021
  20931964.1934     133710.44247    188531.90363
 93  6 11 20 11 59.9980000  0  5G 2G24G13G12G 7
  21901153.615     4283394.115 6   3343486.25021
  22298765.0374   -8513517.16146  -6541481.72561
  19931432.0224  -15703089.25247 -12143167.40361
  22503772.732    -6948495.424 6  -5248142.41621
  20939949.725      175680.623 7    221235.91123
 93  6 11 20 12 29.9980000  0  5G 2G24G13G12G 7
  21909558.725     4327548.511 6   3377892.22821
  22278024.287    -8622510.101 6  -6626411.22721
  19932571.8574  -15697094.47547 -12138496.15061
  22484971.287    -7047303.398 6  -5325135.59921
  20947972.8184     217842.81947    254089.55963
 93  6 11 20 12 59.9980000  0  5G 2G24G13G12G 7
  21918009.795     4371972.647 6   3412508.39421
  22257325.4904   -8731290.99046  -6711175.48161
  19933801.9594  -15690631.98447 -12133460.44361
  22466207.186    -7145894.172 6  -5401959.53421
  20956034.436      260204.648 7    287098.76223
 93  6 11 20 13 29.9980000  0  5G 2G24G13G12G 7
  21926512.607     4416652.285 6   3447323.65521
  22236664.3974   -8839848.83746  -6795765.95761
  19935119.9674  -15683715.53647 -12128071.00461
  22447487.131    -7244277.055 6  -5478621.47921
  20964130.8114     302752.61647    320253.00763
 93  6 11 20 13 59.9980000  0  5G 2G24G13G12G 7
  21935065.186     4461588.116 6   3482338.55221
  22216055.7644   -8948155.16046  -6880160.43361
  19936519.6934  -15676346.34947 -12122328.78161
  22428803.998    -7342448.173 6  -5555118.40521
  20972261.5924     345486.60947    353552.21063
 93  6 11 20 14 29.9980000  0  5G 2G24G13G12G 7
  21943660.897     4506770.220 6   3517545.33621
  22195494.1394   -9056208.00446  -6964357.38861
  19938006.9904  -15668535.43347 -12116242.35261
  22410163.037    -7440413.936 6  -5631455.32421
  20980429.3574     388396.02847    386988.10163
 93  6 11 20 14 59.9980000  0  5G 2G24G13G12G 7
  21952311.631     4552218.122 6   3552959.25521
  22174986.0144   -9163975.32846  -7048331.87161
  19939582.7324  -15660254.79447 -12109789.90761
  22391568.514    -7538142.201 6  -5707607.17921
  20988632.8574     431508.23647    420582.00363
 93  6 11 20 15 29.9980000  0  5G 2G24G13G12G 7
  21961003.865     4597903.621 6   3588558.30221
  22154528.7174   -9271476.08646  -7132098.61861
  19941242.8654  -15651531.78747 -12102992.76261
  22373009.5454   -7635655.24546  -5783591.32061
  20996868.8974     474797.47047    454313.85663
 93  6 11 20 15 59.9980000  0  5G 2G24G13G12G 7
  21969746.951     4643846.592 6   3624357.98321
  22134122.8734   -9378711.54946  -7215658.66461
  19942988.4904  -15642361.34247 -12095846.96561
  22354498.404    -7732943.509 6  -5859400.31621
  21005142.9284     518268.62447    488187.46663
 93  6 11 20 16 29.9980000  0  5G 2G24G13G12G 7
  21978536.600     4690039.106 6   3660352.10421
  22113762.4904   -9485707.41146  -7299031.98761
  19944814.6154  -15632757.94647 -12088363.79761
  22336022.975    -7830016.512 6  -5935041.57621
  21013446.248      561908.301 7    522192.38023
 93  6 11 20 16 59.9980000  0  5G 2G24G13G12G 7
  21987376.397     4736497.384 6   3696553.32121
  22093450.0534   -9592448.96746  -7382207.16561
  19946727.2014  -15622710.12247 -12080534.31861
  22317598.4284   -7926858.13846  -6010502.54661
  21021785.5614     605728.13647    556337.69063
 93  6 11 20 17 29.9980000  0  5G 2G24G13G12G 7
  21996272.209     4783253.538 6   3732986.64621
  22073189.9594   -9698913.06746  -7465166.13661
  19948729.5064  -15612196.85947 -12072342.16961
  22299217.5764   -8023442.97646  -6085763.42461
  21030163.0454     649749.01147    590639.65263
 93  6 11 20 17 59.9980000  0  5G 2G24G13G12G 7
  22005221.732     4830277.374 6   3769628.54821
  22052977.2724   -9805131.52946  -7547933.69961
  19950810.5294  -15601250.86247 -12063812.81961
  22280879.740    -8119798.509 6  -6160845.62121
  21038571.8734     693939.90347    625074.10163
 93  6 11 20 18 29.9980000  0  5G 2G24G13G12G 7
  22014225.193     4877591.479 6   3806496.63321
  22032818.7564   -9911059.25046  -7630474.72061
  19952983.3734  -15589832.98147 -12054915.77161
  22262599.029    -8215881.261 6  -6235715.25421
  21047020.3574     738339.90547    659671.48663
 93  6 11 20 18 59.9980000  0  5G 2G24G13G12G 7
  22023279.5684    4925155.63046   3843559.57461
  22012712.420   -10016723.448 6  -7712810.40021
  19955239.7794  -15577975.57647 -12045676.23861
  22244362.248    -8311718.859 6  -6310393.86821
  21055502.3344     782916.91647    694406.81063
 93  6 11 20 19 29.9980000  0  5G 2G24G13G12G 7
  22032379.201     4972962.526 6   3880811.66321
  21992658.1234  -10122115.53246  -7794934.03661
  19957578.3814  -15565682.40547 -12036097.14261
  22226169.600    -8407309.979 6  -6384880.42221
  21064018.8034     827668.24347    729277.95763
 93  6 11 20 19 59.9980000  0  5G 2G24G13G12G 7
  22041521.7254    5021009.69746   3918250.96161
  21972653.2564  -10227231.80346  -7876842.75661
  19960003.1394  -15552949.03347 -12026175.02862
  22208028.982    -8502645.699 6  -6459167.94921
  21072569.0764     872598.80647    764288.77363
 93  6 11 20 20 29.9980000  0  5G 2G24G13G12G 7
  22050710.842     5069306.386 6   3955884.71221
  21952705.4754  -10332064.16746  -7958530.24661
  19962509.0224  -15539774.72847 -12015909.33661
  22189936.709    -8597720.159 6  -6533251.90221
  21081153.1544     917710.07547    799440.39363
 93  6 11 20 20 59.9980000  0  5G 2G24G13G12G 7
  22059948.342     5117860.571 6   3993719.10721
  21932809.0764  -10436615.24546  -8039998.56461
  19965098.8034  -15526169.36047 -12005307.75561
  22171892.951    -8692538.465 6  -6607136.26121
  21089771.6154     962992.79547    834725.61062
 93  6 11 20 21 29.9980000  0  5G 2G24G13G12G 7
  22069238.053     5166680.862 6   4031760.84021
  21912970.6864  -10540874.44246  -8121239.44561
  19967768.5454  -15512140.70947 -11994376.33761
  22153899.311    -8787103.786 6  -6680823.47621
  21098418.1624    1008439.32847    870138.48263
 93  6 11 20 21 59.9980000  0  5G 2G24G13G12G 7
  22078575.717     5215750.736 6   4069997.06021
  21893181.4984  -10644866.79146  -8202272.38061
  19970514.0454  -15497713.26847 -11983134.18162
  22135949.068    -8881435.367 6  -6754328.57221
  21107092.4674    1054026.39547    905660.85163
 93  6 11 20 22 29.9980000  0  5G 2G24G13G12G 7
  22087966.404     5265084.087 6   4108438.59921
  21873448.1074  -10748557.22646  -8283070.06361
  19973337.4044  -15482869.79147 -11971567.83461
  22118044.350    -8975511.320 6  -6827634.47621
  21115797.9904    1099771.79747    941306.60163
 93  6 11 20 22 59.9980000  0  5G 2G24G13G12G 7
  22097396.162     5314668.041 6   4147075.38721
  21853775.779   -10851934.300 6  -8363623.57321
  19976242.5374  -15467613.43647 -11959679.76862
  22100190.576    -9069330.031 6  -6900739.91921
  21124534.6704    1145673.02047    977073.77763
 93  6 11 20 23 29.9980000  0  5G 2G24G13G12G 7
  22106884.389     5364501.438 6   4185906.56621
  21834164.9674  -10954998.33546  -8443933.15061
  19979225.9434  -15451936.72247 -11947464.14562
  22082389.943    -9162878.946 6  -6973635.14421
  21133299.850     1191738.299 7   1012968.78023
 93  6 11 20 23 59.9980000  0  5G 2G24G13G12G 7
  22116407.350     5414570.625 6   4224921.47821
  21814608.5844  -11057765.58946  -8524011.47361
  19982287.4904  -15435841.90747 -11934922.73562
  22064640.842    -9256155.733 6  -7046318.31422
  21142096.8504    1237966.23147   1048990.53963
 93  6 11 20 24 29.9980000  0  5G 2G24G13G12G 7
  22125990.8734    5464897.52946   4264137.20261
  21795114.7484  -11160215.15046  -8603842.24761
  19985432.4824  -15419312.87947 -11922042.97061
  22046947.647    -9349138.979 6  -7118772.75421
  21150927.811     1284373.689 7   1085152.17123
 93  6 11 20 24 59.9980000  0  5G 2G24G13G12G 7
  22135613.8424    5515475.17346   4303548.29261
  21775669.6474  -11262387.17746  -8683456.74161
  19988654.7174  -15402383.87547 -11908851.54161
  22029301.709    -9441858.470 6  -7191021.68422
  21159785.9124    1330926.51547   1121427.08362
 93  6 11 20 25 29.9980000  0  5G 2G24G13G12G 7
  22145287.959     5566314.236 6   4343163.09621
  21756281.404   -11364286.248 6  -8762858.56921
  19991948.1394  -15385060.00847 -11895352.42562
  22011706.693    -9534313.859 6  -7263064.80921
  21168672.5844    1377621.16447   1157812.51362
 93  6 11 20 25 59.9980000  0  5G 2G24G13G12G 7
  22155016.537     5617433.474 6   4382996.22521
  21736945.1004  -11465887.10746  -8842028.01062
  19995323.9824  -15367334.66747 -11881540.47562
  21994164.295    -9626494.011 6  -7334893.46921
  21177584.147     1424464.617 7   1194313.88122
 93  6 11 20 26 29.9980000  0  5G 2G24G13G12G 7
  22164800.2484    5668848.38846   4423059.73961
  21717673.7174  -11567171.36946  -8920950.75861
  19998772.3184  -15349201.57247 -11867410.79161
  21976679.326    -9718387.292 6  -7406498.58322
  21186528.9124    1471464.42647   1230937.08962
 93  6 11 20 26 59.9980000  0  5G 2G24G13G12G 7
  22174637.545     5720547.334 6   4463344.58721
  21698460.5064  -11668134.23646  -8999623.06561
  20002302.4984  -15330659.43547 -11852962.37461
  21959247.631    -9809988.277 6  -7477875.94422
  21195501.982     1518621.962 7   1267683.19922
 93  6 11 20 27 29.9980000  0  5G 2G24G13G12G 7
  22184528.6154    5772510.31846   4503835.17261
  21679306.8814  -11768768.28246  -9078039.15062
  20005909.9044  -15311703.56147 -11838191.55861
  21941874.725    -9901287.114 6  -7549017.86521
  21204508.6074    1565942.71847   1304556.49862
 93  6 11 20 27 59.9980000  0  5G 2G24G13G12G 7
  22194458.904     5824699.474 6   4544502.01821
  21660213.8114  -11869108.97746  -9156226.65062
  20009590.2874  -15292362.07147 -11823120.27662
  21924553.8034   -9992306.52346  -7619942.05962
  21213537.811     1613400.021 7   1341536.19422
 93  6 11 20 28 29.9980000  0  5G 2G24G13G12G 7
  22204431.9044    5877096.96146   4585331.17961
  21641175.2644  -11969154.92446  -9234184.48462
  20013343.7324  -15272640.80747 -11807753.05661
  21907287.459   -10083047.700 6  -7690649.44222
  21222593.9904    1660988.47447   1378618.08962
 93  6 11 20 28 59.9980000  0  5G 2G24G13G12G 7
  22214437.3034    5929697.33546   4626318.42861
  21622194.2014  -12068902.85246  -9311910.08861
  20017164.6074  -15252553.78947 -11792100.84362
  21890070.709   -10173519.455 6  -7761146.87222
  21231673.412     1708695.177 7   1415792.12322
 93  6 11 20 29 29.9980000  0  5G 2G24G13G12G 7
  22224490.6784    5982528.16346   4667485.24061
  21603273.4284  -12168340.91946  -9389394.24562
  20021059.9824  -15232088.12947 -11776153.57662
  21872910.076   -10263703.967 6  -7831420.47622
  21240775.4824    1756533.47547   1453068.70262
 93  6 11 20 29 59.9980000  0  5G 2G24G13G12G 7
  22234584.904     6035589.333 6   4708831.55721
  21584404.8264  -12267479.90146  -9466645.32962
  20025021.8184  -15211263.36247 -11759926.48261
  21855799.873   -10353615.549 6  -7901481.41122
  21249901.545     1804485.379 7   1490433.81022
 93  6 11 20 30 29.9980000  0  5G 2G24G13G12G 7
  22244734.3894    6088908.25646   4750378.70761
  21565602.857   -12366285.453 6  -9543636.61522
  20029057.8734  -15190061.49847 -11743405.55862
  21838746.818   -10443231.211 7  -7971311.76322
  21259051.865     1852569.675 7   1527902.06122
 93  6 11 20 30 59.9980000  0  5G 2G24G13G12G 7
  22254926.7094    6142475.53746   4792119.38961
  21546860.0064  -12464789.07546  -9620392.62462
  20033160.5294  -15168495.78547 -11726601.10561
  21821748.623   -10532559.425 7  -8040918.12922
  21268224.0294    1900774.01247   1565463.86962
 93  6 11 20 31 29.9980000  0  5G 2G24G13G12G 7
  22265169.2724    6196301.07646   4834061.30761
  21528173.115   -12562988.091 6  -9696911.28522
  20037337.7644  -15146543.98947 -11709495.81461
  21804809.873   -10621573.126 7  -8110279.42322
  21277425.0534    1949121.01447   1603136.83662
 93  6 11 20 31 59.9980000  0  5G 2G24G13G12G 7
  22275461.5064    6250369.70646   4876192.64261
  21509547.5764  -12660878.77446  -9773189.67562
  20041586.4514  -15124222.97447 -11692102.82261
  21787926.506   -10710284.156 7  -8179404.86722
  21286648.7724    1997594.90647   1640908.68662
 93  6 11 20 32 29.9980000  0  5G 2G24G13G12G 7
  22285792.826     6304665.291 6   4918500.83321
  21490977.803   -12758460.125 6  -9849227.04022
  20045901.9594  -15101539.59447 -11674427.46261
  21771103.256   -10798694.214 7  -8248295.78422
  21295897.451     2046190.560 7   1678775.40722
 93  6 11 20 32 59.9980000  0  5G 2G24G13G12G 7
  22296167.897     6359189.512 6   4960987.17621
  21472467.0064  -12855729.21846  -9925021.08162
  20050285.2094  -15078500.98547 -11656475.30562
  21754337.264   -10886805.053 7  -8316953.53922
  21305166.4904    2094901.15747   1716731.69962
 93  6 11 20 33 29.9980000  0  5G 2G24G13G12G 7
  22306590.6314    6413972.05346   5003674.81261
  21454027.0224  -12952639.87946 -10000535.82162
  20054740.0924  -15055094.68947 -11638236.63361
  21737630.639   -10974599.492 7  -8385364.76122
  21314459.2644    2143740.24647   1754788.11062
 93  6 11 20 33 59.9980000  0  5G 2G24G13G12G 7
  22317066.8184    6469022.43745   5046571.15561
  21435656.1544  -13049171.96546 -10075755.57362
  20059265.0764  -15031324.40047 -11619714.33162
  21720983.482   -11062076.130 7  -8453528.35022
  21323778.5534    2192704.95747   1792942.40462
 93  6 11 20 34 29.9980000  0  5G 2G24G13G12G 7
  22327592.1074    6524331.66445   5089669.19461
  21417354.7794  -13145339.79746 -10150691.47962
  20063854.5614  -15007196.04447 -11600913.01462
  21704397.803   -11149236.057 7  -8521445.13822
  21333118.7484    2241790.53747   1831190.89862
 93  6 11 20 34 59.9980000  0  5G 2G24G13G12G 7
  22338174.5684    6579936.59146   5132997.64461
  21399128.1624  -13241121.96346 -10225326.88062
  20068518.2484  -14982690.47647 -11581817.76562
  21687879.053   -11236054.977 7  -8589096.21622
  21342488.1394    2291017.49747   1869549.55462
 93  6 11 20 35 29.9980000  0  5G 2G24G13G12G 7
  22348802.1004    6635790.53846   5176520.13961
  21380963.272   -13336576.346 6 -10299706.86022
  20073244.4824  -14957853.10547 -11562463.97462
  21671414.959   -11322573.316 7  -8656513.07322
  21351870.2644    2340340.94747   1907983.38762
 93  6 11 20 35 59.9980000  0  5G 2G24G13G12G 7
  22359480.6544    6691887.21246   5220231.76761
  21362860.662   -13431709.582 6 -10373836.60722
  20078035.1234  -14932677.13747 -11542846.33662
  21655009.748   -11408779.115 7  -8723686.38422
  21361275.8264    2389768.77947   1946498.56562
 93  6 11 20 36 29.9980000  0  5G 2G24G13G12G 7
  22370198.0684    6748226.31846   5264132.30361
  21344822.5224  -13526512.31846 -10447708.81962
  20082891.7094  -14907157.36647 -11522960.80262
  21638665.326   -11494662.278 7  -8790608.30322
  21370704.5294    2439307.03747   1985099.78762
 93  6 11 20 36 59.9980000  0  5G 2G24G13G12G 7
  22380972.1474    6804835.10345   5308242.98661
  21326848.873   -13620958.732 6 -10521303.37722
  20087819.3344  -14881272.51147 -11502790.79862
  21622390.131   -11580196.299 7  -8857258.15922
  21380158.3424    2488978.32047   2023804.67162
 93  6 11 20 37 29.9980000  0  5G 2G24G13G12G 7
  22391790.748     6861682.380 6   5352539.51821
  21308941.6394  -13715059.51346 -10594628.61062
  20092811.7874  -14855026.91447 -11482339.68562
  21606181.178   -11665380.431 7  -8923635.37022
  21389633.2564    2538779.89847   2062611.07462
 93  6 11 20 37 59.9980000  0  5G 2G24G13G12G 7
  22402649.9434    6918748.76246   5397006.75061
  21291098.686   -13808811.623 6 -10667682.15522
  20097873.4364  -14828432.83247 -11461617.02962
  21590034.662   -11750222.157 7  -8989745.77522
  21399131.8654    2588699.65847   2101509.57162
 93  6 11 20 38 29.9980000  0  5G 2G24G13G12G 7
  22413552.0454    6976045.50446   5441653.49261
  21273331.5924  -13902207.81847 -10740458.35662
  20103000.6864  -14801491.71747 -11440623.95562
  21573956.0064  -11834717.62947  -9055586.37562
  21408654.7794    2638737.73447   2140500.26162
 93  6 11 20 38 59.9980000  0  5G 2G24G13G12G 7
  22424500.4754    7033590.60846   5486493.77361
  21255625.709   -13995239.034 7 -10812950.16122
  20108196.2174  -14774188.97847 -11419349.09962
  21557945.326   -11918847.247 7  -9121141.89322
  21418202.6474    2688909.75347   2179595.32262
 93  6 11 20 39 29.9980000  0  5G 2G24G13G12G 7
  22435499.7954    7091384.87545   5531528.19961
  21237993.092   -14087891.876 6 -10885147.13522
  20113459.9364  -14746526.21547 -11397793.69862
  21542008.232   -12002607.443 7  -9186409.54522
  21427775.240     2739215.097 7   2218794.28022
 93  6 11 20 39 59.9980000  0  5G 2G24G13G12G 7
  22446546.498     7149436.835 5   5576763.43221
  21220432.709   -14180167.035 7 -10957049.80622
  20118786.2954  -14718525.55647 -11375975.00762
  21526134.936   -12086015.553 7  -9251402.85322
  21437368.9824    2789632.66347   2258080.67662
 93  6 11 20 40 29.9980000  0  5G 2G24G13G12G 7
  22457650.881     7207776.936 6   5622223.17621
  21202948.4594  -14272051.73346 -11028648.21462
  20124181.2094  -14690175.34947 -11353883.94162
  21510332.787   -12169054.742 7  -9316108.68922
  21446988.4594    2840176.03647   2297465.10362
 93  6 11 20 40 59.9980000  0  5G 2G24G13G12G 7
  22468799.3814    7266377.74946   5667886.07361
  21185534.3184  -14363575.63547 -11099965.48962
  20129637.6474  -14661506.76147 -11331544.78362
  21494597.678   -12251750.541 7  -9380546.94422
  21456623.2324    2890815.43447   2336924.36162
 93  6 11 20 41 29.9980000  0  5G 2G24G13G12G 7
  22479997.303     7325234.342 5   5713748.28521
  21168183.787   -14454747.536 7 -11171008.47222
  20135150.9204  -14632532.83347 -11308967.70662
  21478924.3264  -12334111.11147  -9444723.99262
  21466275.2404    2941538.41147   2376448.74262
 93  6 11 20 41 59.9980000  0  5G 2G24G13G12G 7
  22491252.904     7384375.292 5   5759832.09521
  21150905.3654  -14545544.52347 -11241759.31462
  20140727.4284  -14603228.12047 -11286132.86762
  21463318.9434  -12416106.37547  -9508616.38362
  21475947.272     2992371.477 7   2416058.89922
 93  6 11 20 42 29.9980000  0  5G 2G24G13G12G 7
  22502559.2794    7443788.19145   5806127.80761
  21133699.3814  -14635960.71147 -11312213.43162
  20146367.6544  -14573592.27947 -11263040.01762
  21447786.5534  -12497730.52047  -9572219.59462
  21485643.9984    3043316.75647   2455756.50262
 93  6 11 20 42 59.9980000  0  5G 2G24G13G12G 7
  22513913.2014    7503443.12246   5852612.09261
  21116568.139   -14725991.967 7 -11382367.60222
  20152067.9044  -14543633.63147 -11239695.62662
  21432324.936   -12578987.210 7  -9635536.47322
  21495356.4284    3094366.29447   2495535.34262
 93  6 11 20 43 29.9980000  0  5G 2G24G13G12G 7
  22525310.2794    7563326.97146   5899274.76361
  21099510.9754  -14815622.75147 -11452209.71762
  20157830.3424  -14513354.69847 -11216101.66362
  21416933.404   -12659874.079 7  -9698565.17722
  21505091.0924    3145518.45647   2535394.16362
 93  6 11 20 43 59.9980000  0  5G 2G24G13G12G 7
  22536746.9824    7623440.99045   5946116.77061
  21082534.0764  -14904841.49547 -11521730.75862
  20163651.9364  -14482758.94747 -11192260.81662
  21401610.537   -12740389.269 7  -9761304.26422
  21514844.3814    3196771.60347   2575331.66462
 93  6 11 20 44 29.9980000  0  5G 2G24G13G12G 7
  22548231.8424    7683791.31445   5993142.95361
  21065635.4514  -14993636.91747 -11590921.94562
  20169535.3344  -14451842.90147 -11168170.39662
  21386363.420   -12820524.512 7  -9823747.28422
  21524617.467     3248130.104 7   2615351.25322
 93  6 11 20 44 59.9980000  0  5G 2G24G13G12G 7
  22559759.6074    7744386.10445   6040359.60561
  21048818.6704  -15082019.39447 -11659791.35762
  20175476.6934  -14420609.43947 -11143832.64662
  21371186.7324  -12900277.54247  -9885892.48562
  21534412.193     3299592.663 7   2655451.91322
 93  6 11 20 45 29.9980000  0  5G 2G24G13G12G 7
  22571343.9124    7805237.50545   6087776.21061
  21032075.154   -15170006.788 7 -11728352.90422
  20181481.4364  -14389068.01147 -11119254.91562
  21356081.334   -12979652.916 7  -9947743.39922
  21544222.4984    3351150.68747   2695626.98562
 93  6 11 20 45 59.9980000  0  5G 2G24G13G12G 7
  22582970.740     7866353.661 5   6135399.11721
  21015402.545   -15257608.723 7 -11796614.09922
  20187542.4674  -14357221.71147 -11094439.62062
  21341049.764   -13058648.250 7 -10009298.18322
  21554052.0374    3402803.08047   2735875.59462
 93  6 11 20 46 29.9980000  0  5G 2G24G13G12G 7
  22594643.8424    7927699.93945   6183201.33761
  20998801.420   -15344861.863 7 -11864603.51122
  20193655.3264  -14325096.44047 -11069406.95462
  21326083.475   -13137284.580 7 -10070573.21822
  21563891.311     3454524.133 6   2776177.69422
 93  6 11 20 46 59.9980000  0  5G 2G24G13G12G 7
  22606362.193     7989277.038 5   6231183.41321
  20982261.6784  -15431771.98947 -11932325.62862
  20199820.8264  -14292689.33947 -11044154.67762
  21311191.193   -13215554.435 7 -10131562.68722
  21573751.2014    3506318.69047   2816537.05762
 93  6 11 20 47 29.9980000  0  5G 2G24G13G12G 7
  22618129.467     8051109.362 5   6279364.36721
  20965793.8264  -15518306.39047 -11999754.97362
  20206045.7564  -14259976.01547 -11018663.79262
  21296371.811   -13293427.892 7 -10192243.27422
  21583624.7564    3558212.51647   2856973.79662
 93  6 11 20 47 59.9980000  0  5G 2G24G13G12G 7
  22629943.600     8113198.536 5   6327745.47421
  20949403.092   -15604446.622 7 -12066877.18622
  20212330.8344  -14226951.77447 -10992930.62562
  21281627.7644  -13370895.38747 -10252607.53262
  21593522.1004    3610211.63647   2897492.56662
 93  6 11 20 48 29.9980000  0  5G 2G24G13G12G 7
  22641813.3894    8175542.33345   6376324.98161
  20933083.834   -15690191.006 7 -12133690.93822
  20218674.2644  -14193614.45047 -10966953.49162
  21266967.8184  -13447950.10447 -10312650.14862
  21603435.7484    3662318.50847   2938095.30362
 93  6 11 20 48 59.9980000  0  5G 2G24G13G12G 7
  22653722.350     8238152.601 5   6425112.11021
  20916847.647   -15775516.555 7 -12200178.33722
  20225080.5294  -14159959.12147 -10940728.56962
  21252383.9984  -13524582.26647 -10372363.50162
  21613372.920     3714539.942 7   2978787.29722
 93  6 11 20 49 29.9980000  0  5G 2G24G13G12G 7
  22665684.1704    8301008.85745   6474090.96261
  20900694.248   -15860415.708 7 -12266333.47623
  20231538.5614  -14126000.85847 -10914267.59362
  21237880.3894  -13600801.57047 -10431755.14662
  21623331.2014    3766862.32847   3019557.97062
 93  6 11 20 49 59.9980000  0  5G 2G24G13G12G 7
  22677689.7644    8364102.54145   6523254.80261
  20884615.709   -15944895.015 7 -12332161.46322
  20238058.7874  -14091750.15647 -10887578.74262
  21223455.9984  -13676613.27947 -10490829.18562
  21633306.6864    3819276.73247   3060400.34162
 93  6 11 20 50 29.9980000  0  5G 2G24G13G12G 7
  22689743.5844    8427435.52645   6572605.08961
  20868623.8734  -16028954.57847 -12397662.37362
  20244632.3734  -14057205.23747 -10860660.62962
  21209104.6154  -13752011.07147 -10549580.68862
  21643295.4284    3871785.59447   3101316.32261
 93  6 11 20 50 59.9980000  0  5G 2G24G13G12G 7
  22701839.3344    8491001.01545   6622136.56061
  20852704.3654  -16112595.46147 -12462837.04062
  20251260.1004  -14022382.19947 -10833525.80262
  21194835.5614  -13827006.07347 -10608018.32962
  21653303.326     3924374.199 7   3142294.42922
 93  6 11 20 51 29.9980000  0  5G 2G24G13G12G 7
  22713985.959     8554821.063 5   6671866.39521
  20836871.412   -16195799.189 7 -12527671.06123
  20257944.1004  -13987260.41947 -10806158.19262
  21180645.8814  -13901572.72747 -10666122.20062
  21663328.3114    3977064.79547   3183352.01562
 93  6 11 20 51 59.9980000  0  5G 2G24G13G12G 7
  22726178.8424    8618910.80945   6721806.35761
  20821121.240   -16278571.534 7 -12592168.95023
  20264683.3264  -13951840.75947 -10778558.46662
  21166536.5764  -13975706.61747 -10723888.85162
  21673374.639     4029857.873 7   3224489.44722
 93  6 11 20 52 29.9980000  0  5G 2G24G13G12G 7
  22738419.287     8683229.902 5   6771925.05221
  20805446.451   -16360930.674 7 -12656344.86423
  20271474.1624  -13916158.58047 -10750754.18362
  21152508.826   -14049438.437 7 -10781342.20022
  21683437.334     4082719.316 7   3265680.14822
 93  6 11 20 52 59.9980000  0  5G 2G24G13G12G 7
  22750697.139     8747756.654 5   6822205.54821
  20789855.076   -16442875.952 7 -12720198.28822
  20278308.5064  -13880237.06947 -10722763.41762
  21138547.7094  -14122786.22947 -10838496.31362
  21693503.1704    4135627.18547   3306907.04562
 93  6 11 20 53 29.9980000  0  5G 2G24G13G12G 7
  22763026.857     8812546.790 5   6872691.28421
  20774351.756   -16524344.342 7 -12783680.11323
  20285198.2794  -13844023.05047 -10694544.71162
  21124676.6704  -14195691.80547 -10895305.84662
  21703591.209     4188636.186 6   3348212.73622
 93  6 11 20 53 59.9980000  0  5G 2G24G13G12G 7
  22775406.4434    8877587.94445   6923372.61961
  20758937.904   -16605341.033 7 -12846794.37623
  20292144.3114  -13807535.96147 -10666113.22061
  21110883.1934  -14268169.65547 -10951782.07562
  21713695.068     4241728.868 7   3389583.63022
 93  6 11 20 54 29.9980000  0  5G 2G24G13G12G 7
  22787830.248     8942875.243 5   6974245.74621
  20743615.373   -16685858.242 7 -12909535.01023
  20299139.0374  -13770772.72747 -10637466.55162
  21097176.8974  -14340212.15247 -11007919.06963
  21723815.2724    4294908.85147   3431022.55862
 93  6 11 20 54 59.9980000  0  5G 2G24G13G12G 7
  22800298.3424    9008415.37445   7025315.90461
  20728380.5294  -16765922.98347 -12971923.06863
  20306187.1864  -13733735.71647 -10608606.54862
  21083548.5924  -14411816.78147 -11063714.86962
  21733949.5614    4348175.22346   3472528.80261
 93  6 11 20 55 29.9980000  0  5G 2G24G13G12G 7
  22812820.561     9074199.488 5   7076576.16321
  20713221.740   -16845574.487 7 -13033989.12723
  20313285.0454  -13696433.83847 -10579540.15161
  21070007.0924  -14482987.64747 -11119172.66762
  21744102.545     4401520.564 6   3514096.58222
 93  6 11 20 55 59.9980000  0  5G 2G24G13G12G 7
  22825379.318     9140211.198 5   7128013.78321
  20698140.420   -16924839.870 7 -13095754.32523
  20320434.3114  -13658869.80147 -10550269.48561
  21056545.5294  -14553722.57947 -11174290.77463
  21754266.568     4454943.478 6   3555724.80322
 93  6 11 20 56 29.9980000  0  5G 2G24G13G12G 7
  22837982.6314    9206442.99945   7179622.91161
  20683126.256   -17003735.878 7 -13157231.68323
  20327630.4674  -13621049.91647 -10520799.45762
  21043167.5924  -14624022.90747 -11229070.22963
  21764446.7254    4508439.25346   3597409.79662
 93  6 11 20 56 59.9980000  0  5G 2G24G13G12G 7
  22850631.170     9272903.507 5   7231410.21821
  20668184.678   -17082247.966 7 -13218409.89023
  20334875.3184  -13582974.32847 -10491130.17662
  21029876.7724  -14693883.60947 -11283507.11962
  21774641.9044    4562009.34246   3639152.69762
 93  6 11 20 57 29.9980000  0  5G 2G24G13G12G 7
  22863317.8814    9339588.43945   7283372.41961
  20653322.092   -17160353.511 7 -13279271.31123
  20342171.2174  -13544648.33047 -10461265.78262
  21016661.803   -14763305.586 7 -11337602.14823
  21784848.350     4615649.468 6   3680950.16521
 93  6 11 20 57 59.9980000  0  5G 2G24G13G12G 7
  22876054.5684    9406520.78245   7335527.42061
  20638544.576   -17238008.593 7 -13339781.72123
  20349512.5614  -13506060.34747 -10431197.23961
  21003539.5534  -14832272.70247 -11391342.73163
  21795071.3814    4669372.49846   3722812.24961
 93  6 11 20 58 29.9980000  0  5G 2G24G13G12G 7
  22888847.2014    9473730.39945   7387898.47361
  20623861.0534  -17315170.49447 -13399907.83563
  20356907.3504  -13467199.90047 -10400916.38261
  20990504.5684  -14900769.31247 -11444716.69563
  21805313.178     4723190.375 6   3764748.23122
 93  6 11 20 58 59.9980000  0  5G 2G24G13G12G 7
  22901686.5224    9541203.75945   7440475.01761
  20609271.717   -17391845.454 7 -13459654.51223
  20364352.6934  -13428079.26547 -10370432.77961
  20977557.7254  -14968802.80647 -11497729.78363
  21815572.311     4777092.849 6   3806750.14521
 93  6 11 20 59 29.9980000  0  5G 2G24G13G12G 7
  22914575.4824    9608930.59245   7493249.11061
  20594765.795   -17468061.524 7 -13519043.61823
  20371843.9674  -13388711.10947 -10339756.30562
  20964700.436   -15036380.971 7 -11550388.07723
  21825841.412     4831068.371 6   3848808.96622
 93  6 11 20 59 59.9980000  0  5G 2G24G13G12G 7
  22927507.467     9676892.815 5   7546206.58421
  20580349.248   -17543831.747 7 -13578085.31123
  20379379.6934  -13349106.16747 -10308895.31861
  20951925.9514  -15103509.92347 -11602696.33363
  21836125.639     4885107.428 6   3890917.29521
 93  6 11 21  0 29.9980000  0  5G 2G24G13G12G 7
  22940486.904     9745084.945 5   7599343.24121
  20566013.225   -17619168.536 7 -13636789.26523
  20386960.9674  -13309262.40647 -10277848.24261
  20939236.4204  -15170183.35747 -11654649.64463
  21846422.7954    4939213.40346   3933077.76761
 93  6 11 21  0 59.9980000  0  5G 2G24G13G12G 7
  22953506.584     9813518.592 5   7652668.06021
  20551757.514   -17694062.965 7 -13695148.52123
  20394590.7484  -13269166.69647 -10246604.84061
  20926641.1704  -15236383.01647 -11706233.77563
  21856731.732     4993400.940 6   3975301.80422
 93  6 11 21  1 29.9980000  0  5G 2G24G13G12G 7
  22966572.107     9882180.779 5   7706170.97021
  20537593.795   -17768512.124 7 -13753160.81523
  20402266.2174  -13228838.90447 -10215180.59561
  20914128.0764  -15302124.21147 -11757460.66663
  21867056.943     5047651.734 6   4017575.11522
 93  6 11 21  1 59.9980000  0  5G 2G24G13G12G 7
  22979684.0924    9951082.06045   7759860.17761
  20523516.975   -17842487.602 7 -13810804.00023
  20409984.8114  -13188268.07447 -10183566.97061
  20901709.1474  -15367391.44047 -11808318.23363
  21877395.115     5101977.820 6   4059907.09121
 93  6 11 21  2 29.9980000  0  5G 2G24G13G12G 7
  22992849.0684   10020238.06945   7813747.87961
  20509527.803   -17915987.827 7 -13868076.86323
  20417752.5684  -13147451.94947 -10151762.21061
  20889381.3504  -15432177.85547 -11858801.14263
  21887749.5534    5156383.04546   4102300.75061
 93  6 11 21  2 59.9980000  0  5G 2G24G13G12G 7
  23006056.4284   10089671.38145   7867851.65761
  20495642.014   -17988975.318 7 -13924950.18723
  20425570.3114  -13106371.47347 -10119751.45361
  20877148.0844  -15496459.70547 -11908890.88263
  21898116.6934    5210887.58746   4144771.80061
 93  6 11 21  3 29.9980000  0  5G 2G24G13G12G 7
  23019315.178    10159340.129 4   7922138.91821
  20481842.248   -18061489.228 7 -13981454.49223
  20433432.1074  -13065061.81747 -10087562.11362
  20865007.2094  -15560267.26247 -11958611.04563
  21908503.561     5265458.480 6   4187294.54521
 93  6 11 21  3 59.9980000  0  5G 2G24G13G12G 7
  23032613.5844   10229231.90745   7976599.95961
  20468123.014   -18133567.628 7 -14037619.44123
  20441333.2404  -13023541.93447 -10055208.98361
  20852951.8814  -15623614.49447 -12007972.50663
  21918896.209     5320078.209 6   4229855.34921
 93  6 11 21  4 29.9980000  0  5G 2G24G13G12G 7
  23045959.787    10299362.153 5   8031246.78421
  20454497.490   -18205190.492 7 -14093429.42823
  20449275.5064  -12981798.28647 -10022681.47261
  20840985.8344  -15686483.83647 -12056961.58563
  21929304.303     5374761.528 6   4272465.69721
 93  6 11 21  4 59.9980000  0  5G 2G24G13G12G 7
  23059350.5294   10369732.59645   8086080.79761
  20440959.381   -18276332.143 7 -14148864.43823
  20457264.4754  -12939819.54147  -9989970.77461
  20829118.1154  -15748859.16247 -12105565.72162
  21939724.0294    5429521.35846   4315135.66961
 93  6 11 21  5 29.9980000  0  5G 2G24G13G12G 7
  23072785.5844   10440314.16145   8141079.33361
  20427505.076   -18347016.743 7 -14203943.30923
  20465292.8974  -12897633.99547  -9957098.93061
  20817339.1314  -15810764.31747 -12153803.49363
  21950150.975     5484330.221 6   4357843.84121
 93  6 11 21  5 59.9980000  0  5G 2G24G13G12G 7
  23086259.5374   10511124.24745   8196255.90561
  20414150.311   -18417211.461 7 -14258640.45723
  20473361.4824  -12855225.80847  -9924053.59961
  20805651.0764  -15872178.91347 -12201659.01163
  21960596.131     5539206.238 6   4400604.34721
 93  6 11 21  6 29.9980000  0  5G 2G24G13G12G 7
  23099776.006    10582165.591 5   8251612.69921
  20400892.795   -18486887.341 7 -14312933.31023
  20481478.248   -12812576.156 7  -9890820.11722
  20794061.2324  -15933079.96347 -12249114.36063
  21971054.475     5594168.679 6   4443432.19221
 93  6 11 21  6 59.9980000  0  5G 2G24G13G12G 7
  23113339.9364   10653420.17345   8307135.65261
  20387724.826   -18556070.781 7 -14366842.44923
  20489634.9364  -12769706.71847  -9857415.36661
  20782569.1234  -15993483.99147 -12296182.41963
  21981526.607     5649198.342 6   4486312.42421
 93  6 11 21  7 29.9980000  0  5G 2G24G13G12G 7
  23126941.5294   10724906.27545   8362838.99961
  20374650.772   -18624768.051 7 -14420372.74923
  20497837.6864  -12726611.63247  -9823834.79261
  20771171.6784  -16053380.81147 -12342855.24863
  21992010.178     5704302.548 6   4529250.74721
 93  6 11 21  7 59.9980000  0  5G 2G24G13G12G 7
  23140583.4594   10796601.12745   8418704.98861
  20361667.647   -18693014.325 7 -14473551.62923
  20506073.5224  -12683324.98947  -9790104.94961
  20759861.022   -16112800.412 7 -12389156.22423
  22002507.381     5759448.138 6   4572221.29221
 93  6 11 21  8 29.9980000  0  5G 2G24G13G12G 7
  23154270.053    10868530.247 5   8474753.58421
  20348768.342   -18760801.221 7 -14526372.54923
  20514349.615   -12639840.455 7  -9756220.91322
  20748646.8734  -16171731.56247 -12435076.58763
  22013011.2644    5814643.33346   4615230.51361
 93  6 11 21  8 59.9980000  0  5G 2G24G13G12G 7
  23168002.897    10940693.647 4   8530984.73021
  20335952.256   -18828134.666 7 -14578840.13623
  20522657.8034  -12596176.40647  -9722196.99461
  20737524.9904  -16230188.31847 -12480627.28963
  22023520.6544    5869870.89346   4658264.96161
 93  6 11 21  9 29.9980000  0  5G 2G24G13G12G 7
  23181778.115    11013103.861 4   8587408.18221
  20323229.662   -18894990.888 7 -14630935.86423
  20531003.2404  -12552318.86047  -9688022.29561
  20726494.7564  -16288152.28747 -12525794.00163
  22034037.412     5925146.618 6   4701336.91821
 93  6 11 21  9 59.9980000  0  5G 2G24G13G12G 7
  23195604.1474   11085756.27544   8644020.34261
  20310602.5454  -18961361.59147 -14682653.26863
  20539384.7644  -12508269.08047  -9653697.80461
  20715555.8184  -16345620.43347 -12570574.36763
  22044566.022     5980470.308 6   4744446.25221
 93  6 11 21 10 29.9980000  0  5G 2G24G13G12G 7
  23209476.1474   11158638.84544   8700811.87661
  20298062.779   -19027261.842 7 -14734004.07923
  20547804.3184  -12464029.64947  -9619225.53261
  20704715.4594  -16402591.17547 -12614967.14363
  22055103.803     6035841.354 6   4787592.49121
 93  6 11 21 10 59.9980000  0  5G 2G24G13G12G 7
  23223390.5924   11231751.92845   8757782.97861
  20285611.912   -19092684.152 7 -14784982.47223
  20556261.9364  -12419586.59947  -9584594.59861
  20693973.6154  -16459046.28147 -12658958.12263
  22065651.506     6091274.660 6   4830787.24121
 93  6 11 21 11 29.9980000  0  5G 2G24G13G12G 7
  23237343.2484   11305070.24345   8814914.03061
  20273246.334   -19157651.543 7 -14835606.38923
  20564754.7094  -12374958.01347  -9549819.08162
  20683328.3894  -16514999.01847 -12702557.64963
  22076208.8894    6146754.09346   4874017.94661
 93  6 11 21 11 59.9980000  0  5G 2G24G13G12G 7
  23251339.357    11378602.198 5   8872211.54421
  20260970.123   -19222162.351 7 -14885874.51523
  20573283.3264  -12330137.66047  -9514894.14561
  20672777.209   -16570438.697 7 -12745757.38023
  22086777.350     6202287.733 6   4917290.88121
 93  6 11 21 12 29.9980000  0  5G 2G24G13G12G 7
  23265366.5454   11452345.47345   8929673.73761
  20248782.537   -19286214.504 7 -14935785.25123
  20581849.6704  -12285126.26647  -9479820.34462
  20662325.1704  -16625361.89847 -12788554.67563
  22097356.0064    6257876.08846   4960606.46561
 93  6 11 21 12 59.9980000  0  5G 2G24G13G12G 7
  23279446.107    11526309.689 5   8987308.05521
  20236688.006   -19349772.156 7 -14985310.66423
  20590450.3264  -12239916.76547  -9444592.17861
  20651974.0294  -16679757.65547 -12830940.96963
  22107949.022     6313527.539 6   5003971.19021
 93  6 11 21 13 29.9980000  0  4G24G13G12G 7
  20224691.014   -19412825.730 7 -15034443.28923
  20599092.4594  -12194512.36047  -9409212.12761
  20641725.0224  -16733624.81847 -12872915.37363
  22118548.357     6369240.247 6   5047383.65721
 93  6 11 21 13 59.9970000  0  4G24G13G12G 7
  20212786.603   -19475371.378 7 -15083180.12823
  20607767.3684  -12148924.33447  -9373688.99961
  20631572.5244  -16786966.89547 -12914480.62263
  22129158.978     6425004.888 6   5090836.59221
 93  6 11 21 14 29.9970000  0  4G24G13G12G 7
  20200984.321   -19537400.687 7 -15131514.61723
  20616477.4074  -12103155.49347  -9338024.98661
  20621519.4314  -16839789.50247 -12955641.09063
  22139783.087     6480820.360 6   5134329.12021
 93  6 11 21 14 59.9970000  0  4G24G13G12G 7
  20189286.2204  -19598874.82047 -15179416.51063
  20625224.5014  -12057187.33547  -9302205.64961
  20611572.5244  -16892066.40247 -12996376.32063
  22150416.235     6536705.977 6   5177876.31221
 93  6 11 21 15 29.9970000  0  4G24G13G12G 7
  20177685.306   -19659846.238 7 -15226926.67723
  20634002.8924  -12011055.13847  -9266258.49861
  20601722.7284  -16943829.04847 -13036710.84863
  22161054.649     6592627.844 6   5221451.76821
 93  6 11 21 15 59.9970000  0  4G24G13G12G 7
  20166174.923   -19720326.782 7 -15274054.33623
  20642811.5644  -11964763.67647  -9230187.23661
  20591968.9394  -16995078.08647 -13076645.15063
  22171704.1964    6648583.14746   5265053.27461
 93  6 11 21 16 29.9970000  0  4G24G13G12G 7
  20154761.118   -19780303.098 7 -15320789.10123
  20651653.3844  -11918292.38347  -9193975.85461
  20582319.7284  -17045788.65547 -13116159.86763
  22182363.064     6704593.929 6   5308698.02121
 93  6 11 21 16 59.9970000  0  4G24G13G12G 7
  20143435.431   -19839821.593 7 -15367167.12123
  20660526.1964  -11871674.09247  -9157649.91961
  20572767.8764  -17095989.44847 -13155277.35863
  22193027.720     6760628.916 6   5352361.60821
 93  6 11 21 17 29.9970000  0  4G24G13G12G 7
  20132196.673   -19898872.387 7 -15413180.69123
  20669427.6494  -11824888.89047  -9121193.93661
  20563317.7594  -17145657.27147 -13193979.54263
  22203697.142     6816708.736 6   5396060.14421
 93  6 11 21 17 59.9970000  0  4G24G13G12G 7
  20121051.298   -19957441.088 7 -15458818.61323
  20678363.587   -11777933.802 7  -9084605.57221
  20553969.8144  -17194784.53347 -13232260.51763
  22214378.9544    6872837.93446   5439797.14961
 93  6 11 21 18 29.9970000  0  4G24G13G12G 7
  20109996.032   -20015544.387 7 -15504093.88723
  20687323.8454  -11730842.88947  -9047911.36761
  20544716.9704  -17243400.99847 -13270143.46963
  22225067.517     6928985.459 6   5483548.43421
 93  6 11 21 18 59.9970000  0  4G24G13G12G 7
  20099035.798   -20073148.244 7 -15548979.97423
  20696317.0874  -11683590.74247  -9011091.52561
  20535566.0324  -17291477.85847 -13307605.94763
  22235755.071     6985176.881 6   5527333.91521
 93  6 11 21 19 29.9970000  0  4G24G13G12G 7
  20088166.142   -20130265.878 7 -15593487.19223
  20705336.1344  -11636194.92347  -8974159.73361
  20526517.4394  -17339028.90047 -13344658.70363
  22246452.345     7041396.573 6   5571141.43521
 93  6 11 21 19 59.9970000  0  4G24G13G12G 7
  20077391.274   -20186872.244 7 -15637596.02223
  20714387.4704  -11588637.84147  -8937102.28161
  20517574.0324  -17386032.34447 -13381284.75863
  22257160.759     7097663.099 6   5614985.45321
 93  6 11 21 20 29.9970000  0  4G24G13G12G 7
  20066722.673   -20242946.644 7 -15681290.32823
  20723468.2984  -11540905.33647  -8899908.13661
  20508737.3764  -17432470.34547 -13417470.20263
  22267882.399     7153992.861 6   5658878.74021
 93  6 11 21 20 59.9970000  0  4G24G13G12G 7
  20056150.126   -20298519.895 7 -15724594.12623
  20732582.3684  -11493016.23947  -8862591.96961
  20500003.8764  -17478357.46647 -13453226.39563
  22278609.7434    7210368.32546   5702807.64461
 93  6 11 21 21 29.9970000  0  4G24G13G12G 7
  20045671.3764  -20353578.81147 -15767497.15763
  20741724.8374  -11444960.69347  -8825146.10161
  20491379.5484  -17523680.19347 -13488542.79763
  22289348.5094    7266801.24146   5746781.31961
 93  6 11 21 21 59.9970000  0  4G24G13G12G 7
  20035290.048   -20408116.152 7 -15809993.75923
  20750903.056   -11396740.474 7  -8787571.91321
  20482865.0564  -17568436.59247 -13523417.90863
  22300098.1814    7323290.92746   5790799.23661
 93  6 11 21 22 29.9970000  0  4G24G13G12G 7
  20025008.048   -20462175.708 7 -15852118.06123
  20760102.1494  -11348403.37147  -8749906.65461
  20474446.1344  -17612670.74347 -13557886.06563
  22310847.814     7379790.696 6   5834825.01221
 93  6 11 21 22 59.9970000  0  4G24G13G12G 7
  20014810.970   -20515737.443 7 -15893854.45023
  20769325.2284  -11299935.93247  -8712139.83161
  20466131.9624  -17656365.30547 -13591933.77663
  22321603.985     7436316.087 6   5878870.73421
 93  6 11 21 23 29.9970000  0  4G24G13G12G 7
  20004721.485   -20568768.495 7 -15935177.32123
  20778572.8064  -11251329.08247  -8674264.37661
  20457921.8994  -17699507.72347 -13625551.23763
  22332370.985     7492877.416 6   5922944.46921
 93  6 11 21 23 59.9970000  0  4G24G13G12G 7
  19994734.267   -20621249.171 7 -15976071.32623
  20787852.649   -11202567.007 7  -8636267.97321
  20449818.2674  -17742079.00547 -13658723.65263
  22343143.251     7549491.130 6   5967059.01721
 93  6 11 21 24 29.9970000  0  4G24G13G12G 7
  19984847.954   -20673195.229 7 -16016548.75123
  20797158.1184  -11153669.83247  -8598166.28561
  20441825.8684  -17784094.94147 -13691463.33863
  22353925.204     7606139.782 6   6011200.79921
 93  6 11 21 24 59.9970000  0  4G24G13G12G 7
  19975058.2904  -20724647.46347 -16056641.37363
  20806482.1734  -11104668.09647  -8559983.13361
  20433929.1034  -17825582.81347 -13723791.54163
  22364702.8454    7662793.69346   6055346.66761
 93  6 11 21 25 29.9970000  0  4G24G13G12G 7
  19965363.384   -20775589.874 7 -16096336.74023
  20815832.5094  -11055525.66047  -8521690.33561
  20426145.3764  -17866502.43947 -13755676.96163
  22375492.6574    7719490.69946   6099526.12161
 93  6 11 21 25 59.9970000  0  4G24G13G12G 7
  19955758.8924  -20826071.16547 -16135672.78763
  20825207.8064  -11006269.52847  -8483308.95061
  20418459.9704  -17906877.80947 -13787138.28163
  22386284.1574    7776205.53646   6143719.48061
 93  6 11 21 26 29.9970000  0  4G24G13G12G 7
  19946245.1964  -20876059.19047 -16174624.46663
  20834609.3844  -10956868.51647  -8444814.66261
  20410888.6734  -17946673.50847 -13818147.91663
  22397087.321     7832971.479 6   6187952.66721
 93  6 11 21 26 59.9970000  0  4G24G13G12G 7
  19936823.696   -20925564.485 7 -16213199.99823
  20844034.6574  -10907332.52847  -8406215.20761
  20403423.8604  -17985896.42347 -13848711.22563
  22407900.814     7889779.347 6   6232218.49621
 93  6 11 21 27 29.9970000  0  4G24G13G12G 7
  19927503.1264  -20974551.74047 -16251371.86263
  20853489.0094  -10857648.47747  -8367500.37561
  20396072.7124  -18024529.99847 -13878815.29963
  22418718.5714    7946643.51746   6276528.21561
 93  6 11 21 27 59.9970000  0  4G24G13G12G 7
  19918285.2984  -21022999.06447 -16289123.00763
  20862969.8844  -10807827.80047  -8328679.07861
  20388830.4074  -18062582.08947 -13908466.27663
  22429547.642     8003554.601 6   6320874.47721
 93  6 11 21 28 29.9970000  0  4G24G13G12G 7
  19909164.2984  -21070918.94447 -16326463.15363
  20872469.5954  -10757898.66447  -8289773.27261
  20381696.2674  -18100077.55347 -13937683.51763
  22440382.087     8060485.800 6   6365236.43121
 93  6 11 21 28 59.9970000  0  4G24G13G12G 7
  19900149.048   -21118294.457 7 -16363379.11423
  20881996.5244  -10707847.12447  -8250772.09461
  20374672.5404  -18136999.36847 -13966453.75963
  22451221.9464    8117452.12846   6409625.74461
 93  6 11 21 29 29.9970000  0  4G24G13G12G 7
  19891239.087   -21165114.335 7 -16399862.11523
  20891544.2674  -10657660.75547  -8211665.84661
  20367756.7514  -18173332.13847 -13994765.01163
  22462070.876     8174467.453 6   6454053.23321
 93  6 11 21 29 59.9970000  0  4G24G13G12G 7
  19882433.0324  -21211402.92047 -16435931.12063
  20901119.7044  -10607356.12847  -8172467.44861
  20360951.2904  -18209088.49147 -14022627.10263
  22472929.0324    8231516.67746   6498507.14561
 93  6 11 21 30 29.9970000  0  4G24G13G12G 7
  19873728.0484  -21257151.96547 -16471579.70663
  20910718.6814  -10556910.86847  -8133159.46661
  20354260.4544  -18244242.74247 -14050020.02263
  22483795.384     8288624.111 6   6543006.41421
 93  6 11 21 30 59.9970000  0  4G24G13G12G 7
  19865126.2434  -21302357.04747 -16506804.42463
  20920342.1264  -10506327.71847  -8093744.04461
  20347685.5244  -18278795.25247 -14076944.05163
  22494674.4784    8345787.72546   6587549.44261
 93  6 11 21 31 29.9970000  0  4G24G13G12G 7
  19856621.8604  -21347040.45047 -16541622.64363
  20929991.3994  -10455630.70947  -8054239.90061
  20341221.4784  -18312765.75047 -14103414.57463
  22505559.321     8402985.796 6   6632119.33121
 93  6 11 21 31 59.9970000  0  4G24G13G12G 7
  19848218.376   -21391202.975 7 -16576034.98323
  20939659.3374  -10404826.83347  -8014652.47461
  20334867.3764  -18346158.56647 -14129434.94663
  22516446.1654    8460212.35746   6676711.43361
 93  6 11 21 32 29.9970000  0  4G24G13G12G 7
  19839912.1104  -21434852.72347 -16610047.75563
  20949342.7044  -10353929.87047  -7974992.51561
  20328621.8844  -18378984.58747 -14155013.66463
  22527336.501     8517455.044 6   6721316.08821
 93  6 11 21 32 59.9970000  0  4G24G13G12G 7
  19831704.7824  -21477980.23547 -16643653.58763
  20959047.314   -10302938.857 7  -7935259.27621
  20322482.3214  -18411239.48947 -14180147.35063
  22538234.735     8574716.139 6   6765935.08321
 93  6 11 21 33 29.9970000  0  4G24G13G12G 7
  19823599.837   -21520572.174 7 -16676842.09323
  20968770.5644  -10251843.23847  -7895444.52061
  20316457.1264  -18442909.18247 -14204825.03463
  22549139.274     8632008.333 6   6810578.32021
 93  6 11 21 33 59.9970000  0  4G24G13G12G 7
  19815598.8214  -21562612.45247 -16709600.73363
  20978517.1344  -10200630.93147  -7855538.83361
  20310544.8604  -18473979.19547 -14229035.44363
  22560048.649     8689344.533 6   6855255.84621
 93  6 11 21 34 29.9970000  0  4G24G13G12G 7
  19807695.0644  -21604137.73447 -16741958.07863
  20988277.368   -10149342.296 7  -7815573.68621
  20304739.7674  -18504486.97547 -14252807.73462
  22570960.423     8746685.996 6   6899937.46221
 93  6 11 21 34 59.9970000  0  4G24G13G12G 7
  19799885.0324  -21645171.54547 -16773932.45963
  20998047.3684  -10097985.75547  -7775555.61761
  20299042.1574  -18534437.60647 -14276145.88862
  22581870.415     8804025.892 5   6944617.85021
 93  6 11 21 35 29.9970000  0  4G24G13G12G 7
  19792172.2204  -21685721.51347 -16805529.81963
  21007832.8684  -10046560.51447  -7735484.01661
  20293446.8684  -18563827.29647 -14299046.95162
  22592783.4624    8861366.93646   6989299.13961
 93  6 11 21 35 59.9970000  0  4G24G13G12G 7
  19784551.8294  -21725775.27247 -16836740.52563
  21017638.1494   -9995038.42047  -7695336.94961
  20287966.5644  -18592625.36747 -14321487.00763
  22603703.9314    8918738.18246   7034003.98061
 93  6 11 21 36 29.9970000  0  4G24G13G12G 7
  19777019.5174  -21765337.83247 -16867568.47663
  21027462.6654   -9943411.47047  -7655108.18361
  20282603.8064  -18620821.10647 -14343457.71963
  22614624.7594    8976148.57646   7078739.30961
 93  6 11 21 36 59.9970000  0  4G24G13G12G 7
  19769584.446   -21804430.911 7 -16898030.59623
  21037302.821    -9891702.303 7  -7614815.34521
  20277345.8844  -18648434.26847 -14364974.47063
  22625550.3764    9033577.09346   7123488.76461
 93  6 11 21 37 29.9970000  0  4G24G13G12G 7
  19762236.5564  -21843027.65847 -16928105.96863
  21047159.0244   -9839905.68347  -7574454.35461
  20272205.9934  -18675456.96247 -14386031.11562
  22636490.071     9091030.436 6   7168257.56221
 93  6 11 21 37 59.9970000  0  4G24G13G12G 7
  19754995.1034  -21881101.66547 -16957774.01263
  21057034.7284   -9788015.14547  -7534020.19261
  20267175.4314  -18701879.25647 -14406619.92562
  22647425.821     9148517.043 6   7213052.29221
 93  6 11 21 38 29.9970000  0  4G24G13G12G 7
  19747851.1034  -21918627.88147 -16987015.20663
  21066925.790    -9736033.209 7  -7493514.80721
  20262266.1964  -18727701.49347 -14426741.15263
  22658370.087     9206035.161 6   7257871.55421
 93  6 11 21 38 59.9970000  0  4G24G13G12G 7
  19740821.5094  -21955570.64547 -17015801.76063
  21076838.0954   -9683947.19247  -7452928.31161
  20257466.3064  -18752908.07647 -14446382.65463
  22669326.939     9263599.475 5   7302726.82021
 93  6 11 21 39 29.9970000  0  4G24G13G12G 7
  19733900.0714  -21991953.65147 -17044152.13863
  21086765.7904   -9631777.94847  -7412276.97161
  20252783.1034  -18777517.45447 -14465558.80163
  22680285.071     9321190.264 5   7347602.73621
 93  6 11 21 39 59.9970000  0  4G24G13G12G 7
  19727075.2044  -22027789.80347 -17072076.39862
  21096706.165    -9579529.183 7  -7371563.67321
  20248215.0174  -18801530.98647 -14484270.64463
  22691250.853     9378804.902 5   7392497.21421
 93  6 11 21 40 29.9970000  0  4G24G13G12G 7
  19720363.3294  -22063074.97247 -17099571.32262
  21106668.3924   -9527184.58147  -7330775.68761
  20243761.3214  -18824929.21947 -14502503.03862
  22702219.7434    9436461.49145   7437424.37961
 93  6 11 21 40 59.9970000  0  4G24G13G12G 7
  19713744.3214  -22097873.09947 -17126686.73262
  21116636.642    -9474795.256 6  -7289952.85921
  20239415.2044  -18847761.01247 -14520294.05062
  22713189.056     9494110.359 5   7482345.52521
 93  6 11 21 41 29.9970000  0  4G24G13G12G 7
  19707217.8994  -22132164.09447 -17153406.96962
  21126619.1034   -9422336.98746  -7249076.30861
  20235184.1654  -18869999.82347 -14537622.99562
  22724166.0954    9551776.59746   7527280.22261
 93  6 11 21 41 59.9970000  0  4G24G13G12G 7
  19700790.2744  -22165935.89047 -17179722.64362
  21136617.0244   -9369808.13847  -7208144.76461
  20231067.2354  -18891641.26847 -14554486.46162
  22735140.165     9609463.863 5   7572231.30821
 93  6 11 21 42 29.9970000  0  4G24G13G12G 7
  19694463.7204  -22199177.14047 -17205624.90462
  21146624.6654   -9317201.76046  -7167152.79061
  20227064.4704  -18912676.32247 -14570877.42262
  22746126.4544    9667180.13246   7617204.96961
 93  6 11 21 42 59.9970000  0  4G24G13G12G 7
  19688242.0714  -22231869.88447 -17231099.76162
  21156654.5094   -9264496.82346  -7126084.03261
  20223181.4074  -18933081.23447 -14586777.35762
  22757117.384     9724947.729 5   7662218.64421
 93  6 11 21 43 29.9970000  0  4G24G13G12G 7
  19682119.6424  -22264046.46147 -17256172.40563
  21166701.134    -9211714.148 7  -7084954.70621
  20219413.8994  -18952874.73247 -14602200.86762
  22768118.876     9782747.755 5   7707257.58021
 93  6 11 21 43 59.9970000  0  4G24G13G12G 7
  19676099.3214  -22295687.15747 -17280827.48462
  21176763.3214   -9158835.67347  -7043750.71361
  20215766.2204  -18972036.26547 -14617131.93462
  22779125.642     9840599.083 5   7752336.49121
 93  6 11 21 44 29.9970000  0  4G24G13G12G 7
  19670174.6654  -22326833.16147 -17305097.08362
  21186836.2124   -9105899.46347  -7002501.73061
  20212232.5014  -18990601.43847 -14631598.31262
  22790137.8844    9898465.57045   7797427.19561
 93  6 11 21 44 59.9970000  0  4G24G13G12G 7
  19664343.0874  -22357465.27847 -17328966.25962
  21196922.681    -9052894.478 7  -6961199.17021
  20208818.9544  -19008557.11747 -14645589.75862
  22801158.3684    9956359.53945   7842539.35761
 93  6 11 21 45 29.9970000  0  4G24G13G12G 7
  19658610.4544  -22387581.42347 -17352433.37463
  21207019.524    -8999840.116 7  -6919858.13121
  20205516.3844  -19025920.91647 -14659119.99962
  22812175.415    10014262.046 5   7887658.15521
 93  6 11 21 45 59.9970000  0  4G24G13G12G 7
  19652987.6344  -22417145.45647 -17375470.26562
  21217127.9464   -8946717.10447  -6878463.60361
  20202326.7204  -19042671.49247 -14672172.40162
  22823199.087    10072194.215 5   7932800.04321
 93  6 11 21 46 29.9970000  0  4G24G13G12G 7
  19647462.6034  -22446173.72547 -17398089.68163
  21227246.993    -8893540.239 7  -6837027.09421
  20199253.0714  -19058820.79347 -14684756.28362
  22834224.634    10130143.101 5   7977954.96921
 93  6 11 21 46 59.9970000  0  4G24G13G12G 7
  19642035.5174  -22474682.84647 -17420304.57162
  21237372.4234   -8840332.18546  -6795566.30161
  20196292.6264  -19074389.87247 -14696888.04362
  22845251.189    10188087.139 5   8023106.13821
 93  6 11 21 47 29.9970000  0  4G24G13G12G 7
  19636717.2124  -22502647.57647 -17442095.25763
  21247509.321    -8787056.028 6  -6754052.44721
  20193444.8844  -19089340.06747 -14708537.55462
  22856283.462    10246064.309 5   8068283.09321
 93  6 11 21 47 59.9970000  0  5G20G24G13G12G 7
  23232926.2204         -0.37054        -0.48171
  19631491.2124  -22530098.11747 -17463485.27562
  21257656.9394   -8733738.10746  -6712506.03261
  20190716.4394  -19103695.43647 -14719723.56462
  22867317.3064   10304049.54045   8113466.34561
 93  6 11 21 48 29.9970000  0  5G20G24G13G12G 7
  23211858.228     -110707.232 4    -86265.47921
  19626367.2284  -22557037.41047 -17484476.91762
  21267810.4854   -8680378.90447  -6670927.44361
  20188094.2984  -19117454.74047 -14730445.11062
  22878354.501    10362043.555 5   8158656.42921
 93  6 11 21 48 59.9970000  0  5G20G24G13G12G 7
  23190792.0954    -221421.81644   -172536.49961
  19621331.7674  -22583487.26147 -17505087.17963
  21277968.282    -8626992.955 6  -6629328.02721
  20185588.1424  -19130630.50047 -14740711.94463
  22889390.689    10420033.301 5   8203843.20821
 93  6 11 21 49 29.9970000  0  5G20G24G13G12G 7
  23169722.4704    -332111.58643   -258788.18161
  19616395.5644  -22609419.42747 -17525294.04563
  21288140.321    -8573551.312 6  -6587685.22721
  20183199.5324  -19143191.30547 -14750499.59262
  22900429.7984   10478049.27045   8249050.38961
 93  6 11 21 49 59.9970000  0  5G20G24G13G12G 7
  23148668.017     -442773.541 4   -345018.19321
  19611565.2204  -22634817.22247 -17545084.52362
  21298318.337    -8520054.068 6  -6545999.07621
  20180924.3454  -19155135.66247 -14759806.89562
  22911471.6654   10536092.48845   8294278.84961
 93  6 11 21 50 29.9970000  0  5G20G24G13G12G 7
  23127610.110     -553421.465 4   -431237.29021
  19606830.3454  -22659705.52147 -17564477.99763
  21308508.220    -8466518.689 6  -6504283.22621
  20178765.8374  -19166479.04247 -14768645.90462
  22922521.3214   10594147.44645   8339516.42561
 93  6 11 21 50 59.9970000  0  5G20G24G13G12G 7
  23106560.673     -664038.499 4   -517432.27821
  19602195.6814  -22684055.73247 -17583452.16862
  21318705.134    -8412930.487 6  -6462526.21521
  20176725.6424  -19177205.77047 -14777004.40262
  22933574.837    10652229.120 5   8384774.84921
 93  6 11 21 51 29.9970000  0  5G20G24G13G12G 7
  23085518.4234    -774617.05645   -603597.31061
  19597665.1734  -22707853.08547 -17601995.55763
  21328913.2744   -8359285.66746  -6420725.08061
  20174804.9074  -19187310.05647 -14784877.88063
  22944631.415    10710342.944 5   8430058.31421
 93  6 11 21 51 59.9970000  0  5G20G24G13G12G 7
  23064480.9394    -885159.40345   -689734.12661
  19593239.6424  -22731110.99947 -17620118.60062
  21339130.321    -8305589.490 6  -6378883.92221
  20172998.1814  -19196795.23447 -14792268.94363
  22955699.142    10768484.411 5   8475363.31621
 93  6 11 21 52 29.9970000  0  5G20G24G13G12G 7
  23043452.5954    -995670.28545   -775846.42361
  19588912.1814  -22753851.21047 -17637838.23963
  21349356.064    -8251850.326 6  -6337009.27821
  20171310.9464  -19205667.87647 -14799182.70062
  22966769.2744   10826647.75546   8520685.34861
 93  6 11 21 52 59.9970000  0  5G20G24G13G12G 7
  23022422.181    -1106174.989 5   -861953.92321
  19584677.9074  -22776106.93847 -17655180.35363
  21359585.368    -8198096.541 6  -6295123.24221
  20169732.5874  -19213954.54647 -14805639.85462
  22977832.9074   10884805.38045   8566002.92061
 93  6 11 21 53 29.9970000  0  5G20G24G13G12G 7
  23001404.7124   -1216636.14145   -948027.47361
  19580536.7984  -22797871.31447 -17672139.59563
  21369826.4074   -8144293.35746  -6253198.70161
  20168274.1184  -19221619.70747 -14811612.71863
  22988905.7354   10942992.94845   8611343.84761
 93  6 11 21 53 59.9970000  0  5G20G24G13G12G 7
  22980391.6814   -1327071.26845  -1034080.75661
  19576485.1424  -22819159.56347 -17688727.83762
  21380066.892    -8090461.600 6  -6211251.90621
  20166928.3454  -19228682.49447 -14817116.20263
  22999980.8374   11001190.51045   8656692.54461
 93  6 11 21 54 29.9970000  0  5G20G24G13G12G 7
  22959380.595    -1437481.658 5  -1120114.76121
  19572523.3454  -22839971.71147 -17704945.08163
  21390316.251    -8036605.818 6  -6169286.38621
  20165701.6104  -19235145.84547 -14822152.58863
  23011058.876    11059395.140 5   8702046.75421
 93  6 11 21 54 59.9970000  0  5G20G24G13G12G 7
  22938377.4934   -1547849.96345  -1206115.97061
  19568659.4934  -22860283.11347 -17720772.13863
  21400570.892    -7982712.013 6  -6127291.23521
  20164586.9934  -19240994.33347 -14826709.86563
  23022135.1264   11117622.43745   8747418.63961
 93  6 11 21 55 29.9970000  0  5G20G24G13G12G 7
  22917385.306    -1658171.210 5  -1292080.52121
  19564893.4074  -22880073.01247 -17736192.83363
  21410835.7434   -7928778.37346  -6085265.05261
  20163590.5244  -19246224.74747 -14830785.52363
  23033224.1894   11175874.94545   8792810.14361
 93  6 11 21 55 59.9970000  0  5G20G24G13G12G 7
  22896405.0874   -1768428.83845  -1377995.47561
  19561234.8844  -22899300.03947 -17751174.92063
  21421109.626    -7874792.072 6  -6043197.83221
  20162715.6184  -19250822.59047 -14834368.27163
  23044313.8374   11234167.04845   8838232.51861
 93  6 11 21 56 29.9970000  0  5G20G24G13G12G 7
  22875426.6424   -1878654.35345  -1463885.43961
  19557676.1184  -22918004.62047 -17765749.91163
  21431384.9624   -7820788.03046  -6001116.77961
  20161954.6734  -19254820.93247 -14837483.87363
  23055406.8604   11292466.13545   8883660.31261
 93  6 11 21 56 59.9970000  0  5G20G24G13G12G 7
  22854455.8764   -1988847.75445  -1549750.35361
  19554218.8374  -22936177.67148 -17779910.72063
  21441665.376    -7766769.078 6  -5959024.12921
  20161307.353   -19258221.881 7 -14840133.97923
  23066503.1494   11350769.25145   8929091.26561
 93  6 11 21 57 29.9970000  0  5G20G24G13G12G 7
  22833504.5644   -2098980.59345  -1635568.09461
  19550863.8764  -22953792.85947 -17793636.83663
  21451951.821    -7712709.573 6  -5916899.86021
  20160781.2044  -19260998.77647 -14842297.80463
  23077604.7514   11409103.43345   8974546.39261
 93  6 11 21 57 59.9970000  0  5G20G24G13G12G 7
  22812547.173    -2209065.692 5  -1721348.63921
  19547614.8064  -22970880.83748 -17806952.13363
  21462243.9394   -7658625.88146  -5874756.74261
  20160367.6264  -19263166.20847 -14843986.73163
  23088706.923    11467454.272 5   9020014.51221
 93  6 11 21 58 29.9970000  0  5G20G24G13G12G 7
  22791618.6104   -2319064.76145  -1807062.14761
  19544468.5954  -22987416.47448 -17819837.04163
  21472548.556    -7604482.105 6  -5832566.81921
  20160077.7514  -19264688.24447 -14845172.74663
  23099821.985    11525857.702 5   9065523.63321
 93  6 11 21 58 59.9970000  0  5G20G24G13G12G 7
  22770700.274    -2429009.807 5  -1892733.55521
  19541419.2354  -23003437.11248 -17832320.64863
  21482854.7904   -7550314.24346  -5790358.12661
  20159903.462   -19265598.906 7 -14845882.36522
  23110938.5094   11584279.32945   9111046.91061
 93  6 11 21 59 29.9970000  0  5G20G24G13G12G 7
  22749789.8454   -2538891.78345  -1978355.80561
  19538465.1104  -23018947.55447 -17844406.69962
  21493169.392    -7496116.399 6  -5748126.08221
  20159849.4784  -19265891.23147
  23122061.665    11642726.764 5   9156590.32421
 93  6 11 21 59 59.9970000  0  5G20G24G13G12G 7
  22728889.6734   -2648716.33745  -2063933.31861
  19535608.1104  -23033967.53648 -17856110.57163
  21503485.3764   -7441896.78146  -5705877.05961
  20159910.3924  -19265572.97347
  23133188.0174   11701192.02545   9202147.60961
 93  6 11 22  0 29.9970000  0  5G20G24G13G12G 7
  22708005.735    -2758476.380 5  -2149460.57421
  19532844.8684  -23048485.55948 -17867423.31563
  21513808.931    -7387651.712 6  -5663608.20421
  20160087.4854  -19264638.92547 -14845134.37362
  23144317.282    11759680.050 5   9247722.65021
 93  6 11 22  0 59.9970000  0  5G20G24G13G12G 7
  22687130.165    -2868163.878 5  -2234931.28021
  19530179.4704  -23062496.21548 -17878340.70163
  21524136.462    -7333376.617 6  -5621315.94221
  20160382.5174  -19263083.62847 -14843922.47563
  23155452.149    11818197.198 5   9293320.36821
 93  6 11 22  1 29.9970000  0  5G20G24G13G12G 7
  22666271.6424   -2977771.70745  -2320339.92961
  19527613.2674  -23075988.90047 -17888854.47363
  21534471.2124   -7279067.30546  -5578997.03261
  20160798.3144  -19260902.09647 -14842222.58962
  23166592.470    11876748.603 5   9338944.79121
 93  6 11 22  1 59.9970000  0  5G20G24G13G12G 7
  22645429.0244   -3087303.64145  -2405689.43261
  19525142.5014  -23088972.48047 -17898971.54263
  21544812.946    -7224730.700 6  -5536656.84921
  20161332.2124  -19258100.15647 -14840039.26762
  23177740.884    11935328.309 5   9384591.23921
 93  6 11 22  2 29.9970000  0  5G20G24G13G12G 7
  22624604.696    -3196748.323 5  -2490970.94621
  19522772.3064  -23101414.48147 -17908666.60463
  21555157.7434   -7170358.69346  -5494289.08061
  20161983.8604  -19254669.02647 -14837365.67463
  23188896.9154   11993945.64945   9430267.02661
 93  6 11 22  2 59.9970000  0  6G20G16G24G13G12G 7
  22603792.532    -3306118.475 5  -2576194.38721
  23305093.7514         -0.37854
  19520506.3064  -23113331.20447 -17917952.36263
  21565508.228    -7115967.080 6  -5451906.03621
  20162753.5874  -19250623.69147 -14834213.47863
  23200056.610    12052586.029 5   9475960.76021
 93  6 11 22  3 29.9970000  0  6G20G16G24G13G12G 7
  22582993.6494   -3415398.81745  -2661347.86061
  23285056.7904    -105304.68944
  19518340.3374  -23124711.08947 -17926819.79963
  21575864.017    -7061543.698 6  -5409498.23821
  20163643.2674  -19245951.22047 -14830572.60663
  23211221.1734   12111262.55545   9521682.65361
 93  6 11 22  3 59.9970000  0  6G20G16G24G13G12G 7
  22562216.4854   -3524592.85845  -2746434.06961
  23265019.7434    -210609.30344        -0.15171
  19516277.0014  -23135556.93348 -17935271.10162
  21586226.3764   -7007095.30846  -5367070.93661
  20164652.3294  -19240657.60747 -14826447.73062
  23222390.8844   12169969.92145   9567428.57561
 93  6 11 22  4 29.9970000  0  5G20G16G24G13G12
  22541451.571    -3633709.288 5  -2831459.81021
  23244976.228     -315930.568 5    -82068.49121
  19514313.0404  -23145868.68147 -17943306.22063
  21596588.6574   -6952634.19546  -5324633.73861
  20165774.8374  -19234754.16147 -14821847.66062
 93  6 11 22  4 59.9970000  0  5G20G16G24G13G12
  22520706.095    -3742729.812 5  -2916410.81021
  23224933.9074    -421250.47845   -164135.81261
  19512453.2674  -23155655.90247 -17950932.62363
  21606959.915    -6898145.103 6  -5282174.74021
  20167016.6264  -19228225.18047 -14816760.16462
 93  6 11 22  5 29.9970000  0  5G20G16G24G13G12
  22499973.4234   -3851669.70545  -3001298.98961
  23204889.009     -526597.523 5   -246224.26121
  19510685.4074  -23164937.45548 -17958164.99563
  21617328.1734   -6843646.60646  -5239708.38961
  20168376.1494  -19221088.30947 -14811198.98663
 93  6 11 22  5 59.9970000  0  5G20G16G24G13G12
  22479262.032    -3960515.847 5  -3086114.11421
  23184835.939     -631959.855 4   -328324.62221
  19509017.7434  -23173708.75347 -17964999.76562
  21627703.860    -6789128.392 6  -5197226.70321
  20169851.7904  -19213333.02947 -14805155.92863
 93  6 11 22  6 29.9970000  0  5G20G16G24G13G12
  22458571.0094   -4069251.01546  -3170842.76261
  23164788.548     -737316.695 5   -410420.69721
  19507445.0714  -23181970.10547 -17971437.17663
  21638085.8374   -6734575.82346  -5154718.23961
  20171445.1264  -19204944.60247 -14798619.51262
 93  6 11 22  6 59.9970000  0  5G20G16G24G13G12
  22437900.1734   -4177882.93646  -3255490.95361
  23144739.1964    -842666.76645   -492511.52061
  19505964.2204  -23189748.92547 -17977498.59163
  21648469.118    -6680000.169 6  -5112191.77821
  20173161.9854  -19195933.42347 -14791597.83362
 93  6 11 22  7 29.9970000  0  5G20G16G24G13G12
  22417244.9154   -4286426.60946  -3340070.38861
  23124689.8924    -948021.83445   -574606.26761
  19504575.9854  -23197043.88747 -17983182.96963
  21658858.1034   -6625419.92646  -5069661.77461
  20174990.2984  -19186317.32247 -14784104.78462
 93  6 11 22  7 59.9970000  0  5G20G16G24G13G12
  22396607.407    -4394871.118 6  -3424572.55721
  23104646.384    -1053350.079 4   -656680.09021
  19503282.8374  -23203843.93247 -17988481.70163
  21669246.2824   -6570826.95846  -5027121.81361
  20176937.3214  -19176088.19247 -14776134.05162
 93  6 11 22  8 29.9970000  0  5G20G16G24G13G12
  22375993.595    -4503211.179 6  -3508993.32721
  23084613.6814   -1158641.74445   -738725.39661
  19502086.1104  -23210127.79447 -17993378.21063
  21679638.1734   -6516219.43446  -4984570.52961
  20179001.7284  -19165243.46347 -14767683.63562
 93  6 11 22  8 59.9970000  0  5G20G16G24G13G12
  22355393.8994   -4611461.78346  -3593344.39461
  23064583.243    -1263911.188 5   -820753.41021
  19500986.8374  -23215904.58047 -17997879.59362
  21690028.524    -6461615.371 6  -4942021.93521
  20181178.9464  -19153800.94347 -14758767.40862
 93  6 11 22  9 29.9970000  0  5G20G16G24G13G12
  22334808.399    -4719624.659 6  -3677627.10821
  23044547.767    -1369164.272 5   -902768.66421
  19499982.3924  -23221178.37547 -18001989.04263
  21700414.704    -6407019.915 6  -4899480.06221
  20183470.4544  -19141765.14647 -14749388.87962
 93  6 11 22  9 59.9970000  0  5G20G16G24G13G12
  22314249.306    -4827671.653 6  -3761819.50621
  23024533.1344   -1474366.89645   -984744.60561
  19499078.056   -23225939.817 7 -18005699.25323
  21710811.6814   -6352407.75646  -4856925.15661
  20185876.9074  -19129110.69347 -14739528.28862
 93  6 11 22 10 29.9970000  0  5G20G16G24G13G12
  22293710.564    -4935602.446 6  -3845921.39021
  23004519.782    -1579532.569 5  -1066691.77021
  19498267.9314  -23230197.56647 -18009016.97463
  21721202.2124   -6297781.64446  -4814359.40061
  20188403.439   -19115840.119 7 -14729187.60322
 93  6 11 22 10 59.9970000  0  5G20G16G24G13G12
  22273191.7824   -5043433.06146  -3929945.19461
  22984514.767    -1684678.639 5  -1148623.64321
  19497545.6494  -23233990.50747 -18011972.51063
  21731602.157    -6243160.775 6  -4771797.71221
  20191042.3214  -19101972.53247 -14718381.71263
 93  6 11 22 11 29.9970000  0  5G20G16G24G13G12
  22252694.564    -5151152.265 6  -4013882.18721
  22964506.095    -1789801.314 5  -1230537.28721
  19496915.6494  -23237298.50647 -18014550.17262
  21741991.814    -6188536.909 6  -4729233.69021
  20193795.7434  -19087499.67947 -14707104.18362
 93  6 11 22 11 59.9970000  0  5G20G16G24G13G12
  22232220.704    -5258753.355 6  -4097727.15021
  22944508.540    -1894894.349 5  -1312427.81921
  19496384.6344  -23240093.84847 -18016728.35962
  21752388.774    -6133906.672 6  -4686664.69521
  20196665.7124  -19072418.00247 -14695352.24962
 93  6 11 22 12 29.9970000  0  5G20G16G24G13G12
  22211760.907    -5366243.211 6  -4181485.44121
  22924511.7514   -1999973.91745  -1394307.89661
  19495947.4234  -23242386.11947 -18018514.54462
  21762785.821    -6079279.966 6  -4644098.47321
  20199651.868   -19056737.247 7 -14683133.50322
 93  6 11 22 12 59.9970000  0  5G20G16G24G13G12
  22191326.259    -5473630.874 6  -4265164.10221
  22904519.7124   -2105034.88845  -1476173.50761
  19495604.0484  -23244189.67147 -18019919.91362
  21773176.556    -6024668.932 6  -4601544.46421
  20202744.728   -19040469.283 7 -14670457.19822
 93  6 11 22 13 29.9970000  0  5G20G16G24G13G12
  22170915.3454   -5580896.89546  -4348747.96061
  22884540.0404   -2210049.52645  -1558002.94961
  19495360.1494  -23245479.16147 -18020924.70262
  21783568.939    -5970057.565 6  -4558990.17321
  20205956.0644  -19023598.34947 -14657311.03562
 93  6 11 22 13 59.9970000  0  5G20G16G24G13G12
  22150522.821    -5688044.029 6  -4432239.18821
  22864561.579    -2315006.861 5  -1639787.75221
  19495208.1424  -23246285.79447 -18021553.24262
  21793961.5484   -5915451.56746  -4516440.08261
  20209280.5174  -19006129.91847 -14643699.28662
 93  6 11 22 14 29.9970000  0  5G20G16G24G13G12
  22130160.743    -5795049.775 6  -4515620.23421
  22844604.431    -2419879.250 5  -1721506.36521
  19495144.1814  -23246618.17347
  21804353.3144   -5860831.08946  -4473878.69661
  20212722.3294  -18988045.00547 -14629607.16862
 93  6 11 22 14 59.9970000  0  5G20G16G24G13G12
  22109821.618    -5901946.180 6  -4598916.08221
  22824659.3764   -2524697.28545  -1803182.62861
  19495164.6964  -23246497.69947
  21814742.5094   -5806231.35946  -4431333.47961
  20216272.2044  -18969378.99347 -14615062.24362
 93  6 11 22 15 29.9970000  0  5G20G16G24G13G12
  22089502.735    -6008722.646 6  -4682118.47021
  22804724.7514   -2629464.36145  -1884819.20161
  19495277.1734  -23245911.68347
  21825130.587    -5751645.228 6  -4388798.87421
  20219937.1964  -18950124.26847 -14600058.58362
 93  6 11 22 15 59.9970000  0  5G20G16G24G13G12
  22069209.2514   -6115367.11946  -4765218.01861
  22784795.7904   -2734176.62845  -1966413.03761
  19495477.7124  -23244847.28147 -18020432.31462
  21835516.712    -5697063.829 6  -4346267.93721
  20223714.9234  -18930271.99047 -14584589.29662
 93  6 11 22 16 29.9970000  0  5G20G16G24G13G12
  22048943.610    -6221855.259 6  -4848195.74521
  22764884.524    -2838824.645 5  -2047956.80621
  19495781.1184  -23243256.91147 -18019193.06162
  21845907.6494   -5642465.99946  -4303724.21761
  20227611.7124  -18909801.59247 -14568638.35662
 93  6 11 22 16 59.9970000  0  5G20G16G24G13G12
  22028704.087    -6328212.543 6  -4931071.50321
  22744974.9394   -2943433.92745  -2129470.40261
  19496182.3924  -23241152.04847 -18017552.90163
  21856294.923    -5587879.897 6  -4261189.62721
  20231618.2514  -18888741.54847 -14552227.95462
 93  6 11 22 17 29.9960000  0  5G20G16G24G13G12
  22008489.301    -6434442.016 6  -5013847.68021
  22725076.8874   -3048000.53645  -2210950.77161
  19496678.2934  -23238550.73847 -18015525.90562
  21866677.856    -5533316.809 6  -4218672.96721
  20235736.0904  -18867102.68647 -14535366.52462
 93  6 11 22 17 59.9960000  0  5G20G16G24G13G12
  21988300.676    -6540538.069 6  -5096519.89621
  22705192.160    -3152512.659 5  -2292388.66321
  19497267.9024  -23235445.03847 -18013105.87562
  21877058.121    -5478763.972 6  -4176164.29621
  20239968.3954  -18844874.32347 -14518045.74562
 93  6 11 22 18 29.9960000  0  5G20G16G24G13G12
  21968138.926    -6646495.650 6  -5179084.19321
  22685313.9024   -3256956.66845  -2373773.48061
  19497952.5984  -23231852.36147 -18010306.38162
  21887438.7154   -5424224.80746  -4133666.29461
  20244307.9184  -18822059.02747 -14500267.61262
 93  6 11 22 18 59.9960000  0  5G20G16G24G13G12
  21947995.520    -6752329.407 6  -5261552.01621
  22665453.1994   -3361331.52445  -2455104.42061
  19498720.4264  -23227809.01347 -18007155.72162
  21897809.496    -5369716.620 6  -4091192.40821
  20248757.9884  -18798675.22447 -14482046.48962
 93  6 11 22 19 29.9960000  0  5G20G16G24G13G12
  21927881.668    -6858022.111 6  -5343909.92821
  22645607.856    -3465624.773 5  -2536371.76321
  19499576.2934  -23223316.44147 -18003655.01362
  21908176.4494   -5315225.62446  -4048731.91361
  20253319.418   -18774709.110 7 -14463371.61922
 93  6 11 22 19 59.9960000  0  5G20G16G24G13G12
  21907805.434    -6963549.843 6  -5426139.28721
  22625779.199    -3569810.843 5  -2617555.61421
  19500518.5434  -23218360.27047 -17999793.06062
  21918547.395    -5260730.676 6  -4006268.34921
  20257991.7704  -18750140.28047 -14444227.10062
 93  6 11 22 20 29.9960000  0  5G20G16G24G13G12
  21887757.473    -7068897.978 6  -5508228.69821
  22605976.035    -3673868.857 5  -2698639.67921
  19501552.7544  -23212931.04647 -17995562.49563
  21928924.5594   -5206220.32846  -3963792.78461
  20262786.824   -18724957.748 7 -14424604.36622
 93  6 11 22 20 59.9960000  0  5G20G16G24G13G12
  21867742.637    -7174056.164 6  -5590170.10021
  22586205.004    -3777788.728 5  -2779616.10621
  19502677.5514  -23207016.95647 -17990954.11062
  21939298.9734   -5151687.11246  -3921299.39661
  20267695.246   -18699154.609 7 -14404498.04722
 93  6 11 22 21 29.9960000  0  5G20G16G24G13G12
  21847768.051    -7279034.939 6  -5671971.68921
  22566448.481    -3881591.201 5  -2860501.05521
  19503894.6914  -23200626.77647 -17985974.74363
  21949680.106    -5097144.881 6  -3878798.98221
  20272721.6214  -18672745.17547 -14383919.29462
 93  6 11 22 21 59.9960000  0  5G20G16G24G13G12
  21827821.606    -7383864.344 6  -5753656.89521
  22546711.8794   -3985305.55345  -2941317.32061
  19505197.8714  -23193778.91547 -17980638.75063
  21960053.066    -5042626.528 6  -3836317.18921
  20277856.1604  -18645763.53747 -14362894.65962
 93  6 11 22 22 29.9960000  0  5G20G16G24G13G12
  21807901.293    -7488539.259 6  -5835221.72121
  22526991.871    -4088929.738 5  -3022063.34721
  19506589.4184  -23186465.95247 -17974940.33663
  21970422.457    -4988130.414 6  -3793852.70221
  20283099.582   -18618208.322 7 -14341423.09222
 93  6 11 22 22 59.9960000  0  5G20G16G24G13G12
  21788015.6764   -7593035.91046  -5916647.64061
  22507297.145    -4192448.339 5  -3102727.07921
  19508074.4184  -23178662.18248 -17968859.47363
  21980792.3094   -4933635.10046  -3751388.84561
  20288457.2384  -18590059.18647 -14319488.72762
 93  6 11 22 23 29.9960000  0  5G20G16G24G13G12
  21768162.113    -7697373.137 6  -5997949.34021
  22487613.2624   -4295886.06045  -3183327.79961
  19509649.1844  -23170384.32847 -17962409.19163
  21991160.5594   -4879162.93746  -3708943.03361
  20293923.3404  -18561338.98247 -14297109.36962
 93  6 11 22 23 59.9960000  0  5G20G16G24G13G12
  21748337.363    -7801545.355 6  -6079122.45621
  22467949.2934   -4399218.58045  -3263846.56061
  19511315.9024  -23161625.75248 -17955584.31863
  22001521.512    -4824711.507 6  -3666513.38521
  20299495.7074  -18532045.90047 -14274283.61962
 93  6 11 22 24 29.9960000  0  5G20G16G24G13G12
  21728546.106    -7905550.162 6  -6160165.12521
  22448310.5354   -4502434.27045  -3344274.25661
  19513073.4494  -23152392.99648 -17948389.97063
  22011877.9654   -4770280.91546  -3624099.96361
  20305178.2774  -18502181.19647 -14251012.44762
 93  6 11 22 24 59.9960000  0  5G20G16G24G13G12
  21708787.106    -8009388.107 6  -6241077.77621
  22428689.762    -4605532.502 5  -3424610.45021
  19514917.7854  -23142697.81348 -17940835.27662
  22022232.441    -4715875.037 6  -3581705.81321
  20310970.277   -18471749.367 7 -14227299.35922
 93  6 11 22 25 29.9960000  0  5G20G16G24G13G12
  21689062.8094   -8113045.59846  -6321849.80761
  22409097.824    -4708491.938 5  -3504838.46421
  19516852.6134  -23132532.10847 -17932913.94263
  22032582.426    -4661483.546 6  -3539322.85121
  20316870.238   -18440741.173 7 -14203137.15922
 93  6 11 22 25 59.9960000  0  5G20G16G24G13G12
  21669366.613    -8216545.328 6  -6402498.90721
  22389524.832    -4811336.072 5  -3584976.66021
  19518869.8794  -23121927.84147 -17924650.87963
  22042924.832    -4607132.068 5  -3496971.07721
  20322878.168   -18409183.101 7 -14178546.48222
 93  6 11 22 26 29.9960000  0  5G20G16G24G13G12
  21649702.520    -8319889.030 6  -6483026.44121
  22369973.035    -4914085.357 5  -3665040.93521
  19520967.1684  -23110908.04647 -17916064.02363
  22053260.402    -4552825.430 6  -3454654.24121
  20328985.504   -18377080.794 7 -14153531.72922
 93  6 11 22 26 59.9960000  0  5G20G16G24G13G12
  21630065.879    -8423067.412 6  -6563425.14121
  22350437.449    -5016735.996 5  -3745028.34621
  19523144.3324  -23099466.90747 -17907148.84663
  22063584.1764   -4498557.10146  -3412367.25661
  20335200.106   -18344429.045 7 -14128088.82922
 93  6 11 22 27 29.9960000  0  5G20G16G24G13G12
  21610466.910    -8526071.932 6  -6643688.36721
  22330926.434    -5119280.305 5  -3824932.89721
  19525402.6994  -23087596.26248 -17897898.98963
  22073906.4574   -4444321.25745  -3370105.59361
  20341516.9574  -18311222.96247 -14102213.98462
 93  6 11 22 27 59.9960000  0  5G20G16G24G13G12
  21590899.129    -8628898.010 6  -6723812.55421
  22311434.012    -5221711.392 5  -3904749.25821
  19527742.6214  -23075298.42047 -17888316.24763
  22084224.356    -4390116.574 6  -3327868.23321
  20347941.738   -18277462.419 7 -14075907.10022
 93  6 11 22 28 29.9960000  0  5G20G16G24G13G12
  21571368.6524   -8731535.52946  -6803789.78961
  22291965.1684   -5324018.88745  -3984469.27561
  19530167.6134  -23062559.87347 -17878390.10163
  22094532.4264   -4335935.90946  -3285649.56361
  20354472.863   -18243141.300 7 -14049163.40422
 93  6 11 22 28 59.9960000  0  5G20G16G24G13G12
  21551871.848    -8833981.631 6  -6883617.89321
  22272524.871    -5426194.039 5  -4064086.19221
  19532679.3794  -23049363.57947 -17868107.27263
  22104842.5664   -4281779.18546  -3243449.56161
  20361110.402   -18208261.042 7 -14021984.01422
 93  6 11 22 29 29.9960000  0  5G20G16G24G13G12
  21532414.410    -8936233.409 6
  22253104.8794   -5528230.70445
  19535277.5744  -23035711.35247 -17857469.17163
  22115138.949    -4227646.229 6  -3201268.06021
  20367854.270   -18172822.903 7 -13994369.91322
 93  6 11 22 29 59.9960000  0  5G20G16G24G13G12
  21512990.832    -9038295.832 6
  22233713.4964   -5630130.01545
  19537961.9104  -23021601.72147 -17846474.64963
  22125432.4414   -4173545.26946  -3159111.48861
  20374702.934   -18136835.992 7 -13966328.19222
 93  6 11 22 30 29.9960000  0  5G20G16G24G13G12
  21493606.988    -9140172.511 6
  22214348.0984   -5731895.58345
  19540731.5824  -23007048.48847 -17835134.46563
  22135724.285    -4119483.846 6  -3116985.74221
  20381652.535   -18100308.419 7 -13937865.18222
 93  6 11 22 30 59.9960000  0  5G20G16G24G13G12
  21474255.129    -9241859.798 6
  22195009.8714   -5833515.33545
  19543582.9884  -22992061.13547 -17823456.00663
  22146000.2384   -4065460.37046  -3074889.57461
  20388707.231   -18063240.659 7 -13908981.24322
 93  6 11 22 31 29.9960000  0  5G20G16G24G13G12
  21454934.6374   -9343364.70346
  22175708.1374   -5934995.23346
  19546513.7544  -22976660.98047 -17811455.88263
  22156274.5514   -4011484.46946  -3032830.46061
  20395860.2774  -18025643.72947 -13879684.96162
 93  6 11 22 31 59.9960000  0  5G20G16G24G13G12
  21435662.996    -9444669.205 6
  22156418.5824   -6036314.78046
  19549522.9414  -22960847.55047 -17799133.73163
  22166539.7384   -3957541.79946  -2990797.22161
  20403119.887   -17987504.155 7 -13849965.85022
 93  6 11 22 32 29.9960000  0  5G20G16G24G13G12
  21416421.418    -9545784.179 6
  22137165.9414   -6137487.79646
  19552603.5514  -22944651.91247 -17786513.74863
  22176795.9264   -3903645.83646  -2948800.42361
  20410478.840   -17948837.093 7 -13819835.70822
 93  6 11 22 32 59.9960000  0  5G20G16G24G13G12
  21397219.238    -9646687.849 6
  22117946.0124   -6238492.09346
  19555766.1134  -22928042.31947 -17773571.20563
  22187044.340    -3849778.030 6  -2906825.54221
  20417941.066   -17909625.256 7 -13789281.05922
 93  6 11 22 33 29.9960000  0  5G20G16G24G13G12
  21378058.785    -9747367.221 6
  22098760.0594   -6339315.07046
  19559008.0204  -22911004.65447 -17760295.10463
  22197293.3954   -3795928.04645  -2864864.55961
  20425506.926   -17869859.864 7 -13758295.08522
 93  6 11 22 33 59.9960000  0  5G20G16G24G13G12
  21358941.871    -9847837.195 6  -7673634.83021
  22079605.6994   -6439975.49646
  19562328.0514  -22893555.26047 -17746698.17963
  22207532.1134   -3742113.63246  -2822931.26461
  20433175.4964  -17829560.38347 -13726892.91762
 93  6 11 22 34 29.9960000  0  5G20G16G24G13G12
  21339867.910    -9948071.003 6  -7751739.05722
  22060485.4104   -6540458.88246
  19565733.7774  -22875655.24347 -17732750.10963
  22217775.2774   -3688311.12245  -2781007.27961
  20440950.949   -17788704.458 7 -13695057.15922
 93  6 11 22 34 59.9960000  0  5G20G16G24G13G12
  21320840.684   -10048051.944 6  -7829646.24922
  22041398.8564   -6640743.60646
  19569230.9574  -22857282.04847 -17718433.33763
  22228010.973    -3634506.840 5  -2739081.90821
  20448831.457   -17747280.021 7 -13662778.41222
 93  6 11 22 35 29.9960000  0  5G20G16G24G13G12
  21301857.441   -10147806.043 6  -7907376.68322
  22022346.777    -6740865.588 6  -4625021.46521
  19572808.3094  -22838479.42847 -17703781.94963
  22238240.816    -3580729.436 5  -2697177.45921
  20456817.918   -17705317.428 7 -13630080.32422
 93  6 11 22 35 59.9960000  0  5G20G16G24G13G12
  21282918.324   -10247334.426 6  -7984931.22822
  22003326.0904   -6840828.01746  -4702914.18461
  19576467.1064  -22819254.76347 -17688801.69063
  22248472.3714   -3526983.05745  -2655297.21861
  20464904.832   -17662822.205 7 -13596967.19722
 93  6 11 22 36 29.9960000  0  5G20G16G24G13G12
  21264023.301   -10346638.028 6  -8062310.62122
  21984334.5434   -6940614.24746  -4780669.60261
  19580205.8874  -22799603.59647 -17673489.10163
  22258695.3954   -3473271.89845  -2613444.41161
  20473089.902   -17619800.281 7 -13563443.65522
 93  6 11 22 36 59.9960000  0  5G20G16G24G13G12
  21245170.066   -10445706.012 6  -8139506.42222
  21965382.707    -7040197.840 6  -4858267.11621
  19584029.0904  -22779517.01247 -17657837.21563
  22268906.6604   -3419587.69845  -2571612.62061
  20481379.613   -17576245.293 7 -13529504.73722
 93  6 11 22 37 29.9960000  0  5G20G16G24G13G12
  21226358.004   -10544563.885 6  -8216538.50022
  21946470.9654   -7139608.62946  -4935730.01261
  19587928.3324  -22759022.82047 -17641867.72263
  22279111.6524   -3365958.60846  -2529823.74861
  20489763.340   -17532187.223 7 -13495173.80822
 93  6 11 22 37 59.9960000  0  5G20G16G24G13G12
  21207594.340   -10643169.669 6  -8293374.14022
  21927596.332    -7238786.407 6  -5013011.31121
  19591915.3484  -22738068.93347 -17625540.02363
  22289315.356    -3312345.335 5  -2488047.20421
  20498249.863   -17487588.661 7 -13460421.71622
 93  6 11 22 38 29.9960000  0  5G20G16G24G13G12
  21188871.457   -10741563.674 6  -8370044.76622
  21908756.481    -7337771.868 6  -5090142.77521
  19595983.7314  -22716692.43447 -17608883.01363
  22299511.895    -3258791.627 5  -2446317.07121
  20506832.340   -17442494.722 7 -13425283.61122
 93  6 11 22 38 59.9960000  0  5G20G16G24G13G12
  21170194.473   -10839705.371 6  -8446518.77622
  21889964.9264   -7436543.64446  -5167107.71861
  19600136.0274  -22694871.35147 -17591879.57863
  22309693.238    -3205259.601 5  -2404603.87721
  20515514.246   -17396869.429 7 -13389731.47122
 93  6 11 22 39 29.9960000  0  5G20G16G24G13G12
  21151565.168   -10937600.360 6  -8522800.54922
  21871208.0744   -7535108.82646  -5243911.69461
  19604368.3954  -22672627.68147 -17574546.85563
  22319873.918    -3151757.597 5  -2362914.04021
  20524295.707   -17350723.272 7 -13353773.46522
 93  6 11 22 39 59.9960000  0  5G20G16G24G13G12
  21132980.402   -11035260.746 7  -8598899.52022
  21852491.4024   -7633470.48846  -5320557.08461
  19608678.1684  -22649987.61847 -17556905.24463
  22330045.1454   -3098300.67545  -2321259.31261
  20533171.262   -17304072.973 7 -13317422.61722
 93  6 11 22 40 29.9960000  0  5G20G16G24G13G12
  21114442.863   -11132686.062 7  -8674815.31622
  21833805.4814   -7731647.74046  -5397058.77161
  19613057.3954  -22626968.66047 -17538968.40463
  22340208.731    -3044891.369 5  -2279641.72221
  20542145.629   -17256923.099 7 -13280682.49722
 93  6 11 22 40 59.9960000  0  5G20G16G24G13G12
  21095955.0744  -11229838.95547  -8750518.84262
  21815164.8244   -7829603.36446  -5473387.77061
  19617514.6134  -22603551.55347 -17520721.30863
  22350373.8164   -2991495.21345  -2238034.37361
  20551218.629   -17209240.832 7 -13243527.51322
 93  6 11 22 41 29.9960000  0  5G20G16G24G13G12
  21077513.191   -11326746.050 7  -8826030.83322
  21796564.6684   -7927355.44346  -5549558.15561
  19622038.1914  -22579774.68147 -17502193.87563
  22360523.566    -2938141.716 5  -2196460.25321
  20560387.887   -17161057.745 7 -13205982.29822
 93  6 11 22 41 59.9960000  0  5G20G16G24G13G12
  21059122.848   -11423387.800 7  -8901336.05922
  21778004.4414   -8024896.64146  -5625564.21061
  19626634.5984  -22555621.46347 -17483373.19263
  22370672.3714   -2884814.20945  -2154906.39861
  20569653.426   -17112358.998 6 -13168035.26822
 93  6 11 22 42 29.9960000  0  5G20G16G24G13G12
  21040786.410   -11519753.369 7  -8976426.07622
  21759482.668    -8122220.303 6  -5701400.77021
  19631304.8714  -22531082.53547 -17464251.96063
  22380820.6844   -2831504.32945  -2113366.25861
  20579021.207   -17063138.604 6 -13129681.75822
 93  6 11 22 42 59.9960000  0  5G20G16G24G13G12
  21022501.785   -11615844.699 7  -9051302.40722
  21741006.9184   -8219307.25846  -5777052.87561
  19636045.3564  -22506158.89647 -17444830.95263
  22390954.777    -2778216.762 5  -2071843.50621
  20588486.051   -17013403.522 6 -13090927.19022
 93  6 11 22 43 29.9960000  0  5G20G16G24G13G12
  21004263.902   -11711672.033 7  -9125973.02022
  21722578.9104   -8316157.98246  -5852520.90861
  19640865.4184  -22480844.04647 -17425105.09263
  22401091.598    -2724964.747 5  -2030348.50221
  20598045.262   -16963168.540 6 -13051783.08722
 93  6 11 22 43 59.9960000  0  5G20G16G24G13G12
  20986076.145   -11807257.266 7  -9200454.98622
  21704189.2934   -8412789.95946  -5927818.49361
  19645756.5204  -22455136.43947 -17405073.19663
  22411214.9104   -2671772.82445  -1988900.29661
  20607694.606   -16912460.777 7 -13012270.58622
 93  6 11 22 44 29.9960000  0  5G20G16G24G13G12
  20967935.3094  -11902593.21647  -9274742.70862
  21685842.1214   -8509188.98146  -6002934.53661
  19650725.5514  -22429025.01047 -17384726.63463
  22421326.207    -2618637.318 5  -1947496.03621
  20617432.965   -16861277.897 6 -12972387.86522
 93  6 11 22 44 59.9960000  0  5G20G16G24G13G12
  20949844.168   -11997650.396 7  -9348813.19622
  21667550.2774   -8605327.53246  -6077847.62461
  19655779.1134  -22402467.38847 -17364032.38463
  22431428.8404   -2565531.18245  -1906114.66561
  20627268.309   -16809595.504 6 -12932115.91422
 93  6 11 22 45 29.9960000  0  5G20G16G24G13G12
  20931804.699   -12092439.431 7  -9422674.75722
  21649302.340    -8701231.249 6  -6152577.73021
  19660913.6134  -22375481.86947 -17343004.71563
  22441524.7704   -2512467.64545  -1864766.50961
  20637196.621   -16757429.181 7 -12891466.88022
 93  6 11 22 45 59.9960000  0  5G20G16G24G13G12
  20913823.715   -12186936.160 7  -9496308.54422
  21631095.3404   -8796886.95246  -6227114.57161
  19666131.6914  -22348067.11647 -17321642.56363
  22451623.0044   -2459425.21045
  20647217.387   -16704759.892 6
 93  6 11 22 46 29.9960000  0  5G20G16G24G13G12
  20895900.691   -12281143.959 7  -9569717.18922
  21612937.4264   -8892300.93946  -6301463.06861
  19671424.5354  -22320251.71647 -17299968.23363
  22461711.4574   -2406410.22545  -1782124.42361
  20657335.684   -16651596.196 7 -12808999.69822
 93  6 11 22 46 59.9960000  0  5G20G16G24G13G12
  20878022.731   -12375076.105 7  -9642911.04322
  21594830.4494   -8987477.47446  -6375626.52561
  19676787.4344  -22292069.37847 -17278007.97663
  22471787.449    -2353438.610 5  -1740847.86721
  20667541.996   -16597956.136 7 -12767202.29922
 93  6 11 22 47 29.9960000  0  5G20G16G24G13G12
  20860208.215   -12468691.743 7  -9715858.26522
  21576771.2624   -9082380.38746  -6449576.76261
  19682221.2774  -22263514.66547 -17255757.55063
  22481871.504    -2300472.300 5  -1699575.47021
  20677847.863   -16543803.808 7 -12725005.72322
 93  6 11 22 47 59.9960000  0  5G20G16G24G13G12
  20842451.4574  -12562003.59947  -9788568.77662
  21558761.6684   -9177024.01546  -6523324.98161
  19687721.5984  -22234607.51547 -17233232.49763
  22491944.7154   -2247526.69245  -1658319.21061
  20688247.488   -16489157.080 7 -12682423.90322
 93  6 11 22 48 29.9960000  0  5G20G16G24G13G12
  20824749.8484  -12655033.71447  -9861059.75662
  21540800.7074   -9271421.24246  -6596881.19761
  19693283.8244  -22205378.49147 -17210456.64763
  22502013.1064   -2194627.02845  -1617098.76961
  20698733.520   -16434043.133 6 -12639478.01822
 93  6 11 22 48 59.9960000  0  5G20G16G24G13G12
  20807101.9344  -12747768.64747  -9933320.71562
  21522882.9264   -9365556.67446  -6670233.42461
  19698910.2544  -22175815.62347 -17187420.65363
  22512072.574    -2141761.991 5  -1575905.26421
  20709313.0124  -16378453.74246 -12596161.65662
 93  6 11 22 49 29.9960000  0  5G20G16G24G13G12
  20789509.3874  -12840222.71647 -10005362.82662
  21505016.973    -9459449.956 6  -6743396.97221
  19704599.5354  -22145918.84947 -17164124.46363
  22522119.9964   -2088948.87145  -1534752.22961
  20719977.691   -16322408.182 6 -12552489.82722
 93  6 11 22 49 59.9960000  0  5G20G16G24G13G12
  20771970.731   -12932392.187 7 -10077183.16722
  21487197.7074   -9553080.92746  -6816356.09961
  19710356.6374  -22115658.49147 -17140544.96863
  22532164.566    -2036186.745 5  -1493638.92621
  20730729.6604  -16265907.81246 -12508463.61662
 93  6 11 22 50 29.9960000  0  5G20G16G24G13G12
  20754487.770   -13024265.912 7 -10148773.05222
  21469433.1994   -9646427.28446  -6889093.46261
  19716187.3794  -22085018.24647 -17116669.45863
  22542196.0354   -1983466.91845  -1452558.59361
  20741568.215   -16208946.742 6 -12464078.41122
 93  6 11 22 50 59.9960000  0  5G20G16G24G13G12
  20737060.309   -13115847.309 7 -10220135.15522
  21451725.8564   -9739497.40246  -6961615.56561
  19722091.8324  -22053990.00647 -17092491.61663
  22552222.5594   -1930795.37445  -1411515.86561
  20752493.348   -16151533.479 6 -12419340.84422
 93  6 11 22 51 29.9960000  0  5G20G16G24G13G12
  20719689.191   -13207124.002 7 -10291259.82022
  21434067.2704   -9832273.10946  -7033908.26961
  19728073.0904  -22022558.35247 -17067999.42563
  22562232.4264   -1878163.30645  -1370503.92361
  20763507.879   -16093661.298 6 -12374245.68922
 93  6 11 22 51 59.9960000  0  5G20G16G24G13G12
  20702379.082   -13298092.638 7 -10362144.45222
  21416468.4414   -9924750.81846  -7105968.76861
  19734129.5514  -21990736.62647 -17043203.28763
  22572245.348    -1825569.300 5  -1329521.62821
  20774607.6134  -16035331.76446 -12328794.15062
 93  6 11 22 52 29.9960000  0  5G20G16G24G13G12
  20685130.012   -13388748.201 7 -10432785.12422
  21398929.8634  -10016925.84846  -7177793.40361
  19740254.4024  -21958543.14147 -17018117.46063
  22582242.9024   -1773010.43945  -1288566.72661
  20785792.801   -15976544.922 6 -12282986.26822
 93  6 11 22 52 59.9960000  0  5G20G16G24G13G12
  20667939.231   -13479081.502 7 -10503174.68522
  21381448.5744  -10108792.40746  -7249377.67561
  19746451.3404  -21925980.04847 -16992743.62164
  22592235.770    -1720480.994 5  -1247634.73221
  20797069.488   -15917297.047 6 -12236819.13922
 93  6 11 22 53 29.9960000  0  5G20G16G24G13G12
  20650812.0124  -13569081.99047 -10573304.91462
  21364027.0274  -10200339.96346  -7320713.37061
  19752716.3714  -21893057.06247 -16967089.36064
  22602231.582    -1667972.731 5  -1206719.22521
  20808432.762   -15857582.926 6 -12190288.71122
 93  6 11 22 53 59.9960000  0  5G20G16G24G13G12
  20633749.199   -13658746.763 7 -10643173.53822
  21346663.5664  -10291580.85246  -7391810.10961
  19759047.9654  -21859781.01347 -16941159.97963
  22612219.574    -1615485.569 5  -1165820.18421
  20819883.418   -15797404.848 6 -12143396.74922
 93  6 11 22 54 29.9960000  0  5G20G16G24G13G12
  20616749.926   -13748078.826 7 -10712782.91022
  21329358.3714  -10382520.11346  -7462671.81361
  19765447.3874  -21826155.16047 -16914958.02064
  22622204.4184   -1563024.93945  -1124941.86961
  20831422.481   -15736771.100 6 -12096149.71522
 93  6 11 22 54 59.9960000  0  5G20G16G24G13G12
  20599808.832   -13837098.948 7 -10782149.20722
  21312104.160   -10473201.721 6  -7533332.75121
  19771909.8324  -21792196.20947 -16888496.50864
  22632173.504    -1510614.223 5  -1084102.36621
  20843039.840   -15675707.933 6 -12048568.07821
 93  6 11 22 55 29.9960000  0  5G20G16G24G13G12
  20582932.301   -13925798.138 7 -10851265.43322
  21294899.043   -10563621.300 6  -7603789.50421
  19778436.0664  -21757899.27347 -16861771.63964
  22642141.2314   -1458247.54144  -1043297.23561
  20854742.504   -15614211.366 6 -12000648.72521
 93  6 11 22 55 59.9960000  0  5G20G16G24G13G12
  20566114.074   -14014168.347 7 -10920125.31322
  21277746.7854  -10653764.60446  -7674030.97861
  19785029.4574  -21723252.87447 -16834774.45764
  22652096.3014   -1405918.95844  -1002521.77661
  20866528.004   -15552278.618 6 -11952389.49321
 93  6 11 22 56 29.9960000  0  5G20G16G24G13G12
  20549361.379   -14102196.535 7 -10988718.69023
  21260651.3634  -10743607.20946  -7744038.14661
  19791690.6374  -21688248.34947 -16807498.20964
  22662050.465    -1353617.949 5   -961767.78821
  20878399.965   -15489902.133 6 -11903784.48621
 93  6 11 22 56 59.9960000  0  5G20G16G24G13G12
  20532672.0904  -14189907.80347 -11057065.11063
  21243606.066   -10833163.342 6  -7813822.08621
  19798414.3634  -21652919.02247 -16779968.87763
  22671993.535    -1301372.385 5   -921056.99321
  20890348.934   -15427112.472 6 -11854857.53421
 93  6 11 22 57 29.9960000  0  5G20G16G24G13G12
  20516052.1994  -14277250.71347 -11125124.50163
  21226630.3484  -10922362.86346  -7883328.16061
  19805207.5514  -21617213.05847 -16752146.05464
  22681936.9184   -1249133.27545   -880351.24161
  20902381.621   -15363863.768 6 -11805572.86621
 93  6 11 22 57 59.9960000  0  5G20G16G24G13G12
  20499499.652   -14364226.228 7 -11192897.60123
  21209727.184   -11011200.138 6  -7952551.95321
  19812073.1454  -21581128.80047 -16724028.46264
  22691873.6524   -1196904.04545   -839653.21461
  20914505.691   -15300161.985 6 -11755935.15921
 93  6 11 22 58 29.9960000  0  5G20G16G24G13G12
  20483008.7934  -14450884.87047 -11260423.79863
  21192883.0744  -11099728.09346  -8021534.72161
  19818999.5664  -21544730.72947 -16695666.33864
  22701802.6844   -1144738.30445   -799004.65661
  20926704.121   -15236063.098 6 -11705988.01822
 93  6 11 22 58 59.9960000  0  5G20G16G24G13G12
  20466583.7384  -14537199.23147 -11327681.72462
  21176097.223   -11187927.716 6  -8090261.65722
  19825990.9024  -21508000.41547 -16667045.31964
  22711715.168    -1092611.295 4   -758386.25421
  20938980.7544  -15171545.25646 -11655714.42761
 93  6 11 22 59 29.9960000  0  5G20G16G24G13G12
  20450225.6134  -14623176.95247 -11394677.34363
  21159374.090   -11275810.552 6  -8158741.73722
  19833041.1684  -21470952.25247 -16638176.63364
  22721626.8954   -1040532.57145   -717805.51461
  20951335.2774  -15106621.50946 -11605124.54661
 93  6 11 22 59 59.9960000  0  5G20G16G24G13G12
  20433924.1134  -14708837.36147 -11461425.69563
  21142705.8794  -11363393.62846  -8226988.24261
  19840143.0824  -21433629.52147 -16609093.99664
  22731530.496     -988524.363 4   -677279.68221
  20963761.746   -15041316.837 6 -11554237.84621
 93  6 11 23  0 29.9960000  0  5G20G16G24G13G12
  20417687.5664  -14794135.67647 -11527891.89863
  21126106.777   -11450636.808 6  -8294969.90121
  19847305.3324  -21395996.16147 -16579769.30464
  22741415.402     -936544.323 4   -636775.83521
  20976269.871   -14975591.734 6 -11503023.52821
 93  6 11 23  0 59.9960000  0  5G20G16G24G13G12
  20401527.020   -14879072.677 7 -11594076.54823
  21109567.8954  -11537539.05946  -8362685.88661
  19854529.4734  -21358029.87147 -16550185.19964
  22751296.590     -884595.464 4   -596296.28321
  20988854.613   -14909452.334 6 -11451486.38321
 93  6 11 23  1 29.9960000  0  5G20G16G24G13G12
  20385433.5274  -14963655.86047 -11659985.50263
  21093096.2624  -11624094.56146  -8430131.67461
  19861814.8714  -21319740.05847 -16520348.98964
  22761176.606     -832687.409 4   -555848.50421
  21001517.809   -14842911.334 6 -11399636.30021
